[[{"header":{"parameterUnit":"m.s-1","parameterCategory":1,"la1":30.6,"la2":29.2853,"lo1":-89.7004,"lo2":-87.6739,"dy":0.0162,"dx":0.0183,"nx":112,"ny":82,"refTime":"2026-04-12T12:00:00:Z","depth":0,"parameterNumber":2,"parameterNumberName":"U-component_of_WINDS"},"data":[0.0,0.0,0.0,0.0,0.0,0.0,0.0,0.0,0.0,0.0,0.0,0.0,0.0,0.0,0.0,0.0,0.0,0.0,0.0,0.0,0.0,0.0,0.0,0.0,0.0,0.0,0.0,0.0,0.0,0.0,0.0,0.0,0.0,0.0,0.0,0.0,0.0,0.0,0.0,0.0,0.0,0.0,0.0,0.0,0.0,0.0,0.0,0.0,0.0,0.0,0.0,0.0,0.0,0.0,0.0,0.0,0.0,0.0,0.0,0.0,0.0,0.0,0.0,0.0,0.0,0.0,0.0,0.0,0.0,0.0,0.0,0.0,0.0,0.0,0.0,0.0,0.0,0.0,0.0,0.0,0.0,0.0,0.0,0.0,0.0,0.0,0.0,0.0,0.0,0.0,0.0,-3.9939,-4.4086,-4.5935,-4.4423,-4.2694,-4.0015,-3.6058,0.0,0.0,0.0,0.0,0.0,0.0,0.0,0.0,0.0,0.0,0.0,0.0,0.0,0.0,0.0,0.0,0.0,0.0,0.0,0.0,0.0,0.0,0.0,0.0,0.0,0.0,0.0,0.0,0.0,0.0,0.0,0.0,0.0,0.0,0.0,0.0,0.0,0.0,0.0,0.0,0.0,0.0,0.0,0.0,0.0,0.0,0.0,0.0,0.0,0.0,0.0,0.0,0.0,0.0,0.0,0.0,0.0,0.0,0.0,0.0,0.0,0.0,0.0,0.0,0.0,0.0,0.0,0.0,0.0,0.0,0.0,0.0,0.0,0.0,0.0,0.0,0.0,0.0,0.0,0.0,0.0,0.0,0.0,0.0,0.0,0.0,0.0,0.0,0.0,0.0,0.0,0.0,0.0,0.0,0.0,0.0,0.0,0.0,0.0,0.0,0.0,0.0,0.0,0.0,-3.6621,-4.2544,-4.4875,-4.5641,-4.4721,-4.2513,-3.9798,-3.6495,0.0,0.0,0.0,0.0,0.0,0.0,0.0,0.0,0.0,0.0,0.0,0.0,0.0,0.0,0.0,0.0,0.0,0.0,0.0,0.0,0.0,0.0,0.0,0.0,0.0,0.0,0.0,0.0,0.0,0.0,0.0,0.0,0.0,0.0,0.0,0.0,0.0,0.0,0.0,0.0,0.0,0.0,0.0,0.0,0.0,0.0,0.0,0.0,0.0,0.0,0.0,0.0,0.0,0.0,0.0,0.0,0.0,0.0,0.0,0.0,0.0,0.0,0.0,0.0,0.0,0.0,0.0,0.0,0.0,0.0,0.0,0.0,0.0,0.0,0.0,0.0,0.0,0.0,0.0,0.0,0.0,0.0,0.0,0.0,0.0,0.0,0.0,0.0,0.0,0.0,0.0,0.0,0.0,0.0,0.0,0.0,0.0,0.0,0.0,0.0,0.0,0.0,0.0,-3.5847,-3.94,-4.2701,-4.4355,-4.4745,-4.3497,-4.1589,-3.9087,-3.5915,-3.2521,0.0,0.0,0.0,0.0,0.0,0.0,0.0,0.0,0.0,0.0,0.0,0.0,0.0,0.0,0.0,0.0,0.0,0.0,0.0,0.0,0.0,0.0,0.0,0.0,0.0,0.0,0.0,0.0,0.0,0.0,0.0,0.0,0.0,0.0,0.0,0.0,0.0,0.0,0.0,0.0,0.0,0.0,0.0,0.0,0.0,0.0,0.0,0.0,0.0,0.0,0.0,0.0,0.0,0.0,0.0,0.0,0.0,0.0,0.0,0.0,0.0,0.0,0.0,0.0,0.0,0.0,0.0,0.0,0.0,0.0,0.0,0.0,0.0,0.0,0.0,0.0,0.0,0.0,0.0,0.0,0.0,0.0,0.0,0.0,0.0,0.0,0.0,0.0,0.0,0.0,0.0,0.0,0.0,0.0,0.0,0.0,0.0,0.0,0.0,0.0,0.0,0.0,-3.8922,-4.1673,-4.257,-4.3532,-4.3571,-4.2139,-4.0194,-3.7749,-3.4706,-3.1544,0.0,0.0,0.0,0.0,0.0,0.0,0.0,0.0,0.0,0.0,0.0,0.0,0.0,0.0,0.0,0.0,0.0,0.0,0.0,0.0,0.0,0.0,0.0,0.0,0.0,0.0,0.0,0.0,0.0,0.0,0.0,0.0,0.0,0.0,0.0,0.0,0.0,0.0,0.0,0.0,0.0,0.0,0.0,0.0,0.0,0.0,0.0,0.0,0.0,0.0,0.0,0.0,0.0,0.0,0.0,0.0,0.0,0.0,0.0,0.0,0.0,0.0,0.0,0.0,0.0,0.0,0.0,0.0,0.0,0.0,0.0,0.0,0.0,0.0,0.0,0.0,0.0,0.0,0.0,0.0,0.0,0.0,0.0,0.0,0.0,0.0,0.0,0.0,0.0,0.0,0.0,0.0,0.0,0.0,0.0,0.0,0.0,0.0,0.0,0.0,0.0,0.0,-3.9108,-4.1715,-4.3258,-4.2837,-4.2139,-4.1242,-3.8358,-3.5459,-3.2926,-2.9744,0.0,0.0,0.0,0.0,0.0,0.0,0.0,0.0,0.0,0.0,0.0,0.0,0.0,0.0,0.0,0.0,0.0,0.0,0.0,0.0,0.0,0.0,0.0,0.0,0.0,0.0,0.0,0.0,0.0,0.0,0.0,0.0,0.0,0.0,0.0,0.0,0.0,0.0,0.0,0.0,0.0,0.0,0.0,0.0,0.0,0.0,0.0,0.0,0.0,0.0,0.0,0.0,0.0,0.0,0.0,0.0,0.0,0.0,0.0,0.0,0.0,0.0,0.0,0.0,0.0,0.0,0.0,0.0,0.0,0.0,0.0,0.0,0.0,0.0,0.0,0.0,0.0,0.0,0.0,0.0,0.0,0.0,0.0,0.0,0.0,0.0,0.0,0.0,0.0,0.0,0.0,0.0,0.0,0.0,0.0,0.0,0.0,0.0,0.0,0.0,0.0,0.0,-3.8445,-4.0957,0.0,-4.1812,-4.123,-3.9462,-3.726,-3.4761,-3.185,0.0,0.0,0.0,0.0,0.0,0.0,0.0,0.0,0.0,0.0,0.0,0.0,0.0,0.0,0.0,0.0,0.0,0.0,0.0,0.0,0.0,0.0,0.0,0.0,0.0,0.0,0.0,0.0,0.0,0.0,0.0,0.0,0.0,0.0,0.0,0.0,0.0,0.0,0.0,0.0,0.0,0.0,0.0,0.0,0.0,0.0,0.0,0.0,0.0,0.0,0.0,0.0,0.0,0.0,0.0,0.0,0.0,0.0,0.0,0.0,0.0,0.0,0.0,0.0,0.0,0.0,0.0,0.0,0.0,0.0,0.0,0.0,0.0,0.0,0.0,0.0,0.0,0.0,0.0,0.0,0.0,0.0,0.0,0.0,0.0,0.0,0.0,0.0,0.0,0.0,0.0,0.0,0.0,0.0,0.0,0.0,0.0,0.0,0.0,0.0,0.0,0.0,-3.3574,-3.7195,-3.968,0.0,-4.0508,-3.9788,-3.768,-3.5575,-3.3157,-3.0333,0.0,0.0,0.0,0.0,0.0,0.0,0.0,0.0,0.0,0.0,0.0,0.0,0.0,0.0,0.0,0.0,0.0,0.0,0.0,0.0,0.0,0.0,0.0,0.0,0.0,0.0,0.0,0.0,0.0,0.0,0.0,0.0,0.0,0.0,0.0,0.0,0.0,0.0,0.0,0.0,0.0,0.0,0.0,0.0,0.0,0.0,0.0,0.0,0.0,0.0,0.0,0.0,0.0,0.0,0.0,0.0,0.0,0.0,0.0,0.0,0.0,0.0,0.0,0.0,0.0,0.0,0.0,0.0,0.0,0.0,0.0,0.0,0.0,0.0,0.0,0.0,0.0,0.0,0.0,0.0,0.0,0.0,0.0,0.0,0.0,0.0,0.0,0.0,0.0,0.0,0.0,0.0,0.0,0.0,0.0,0.0,0.0,0.0,0.0,0.0,0.0,0.0,-3.2175,-3.535,-3.787,-3.9396,-3.886,-3.7742,-3.6112,-3.312,-3.0391,0.0,0.0,0.0,0.0,0.0,0.0,0.0,0.0,0.0,0.0,0.0,0.0,0.0,0.0,0.0,0.0,0.0,0.0,0.0,0.0,0.0,0.0,0.0,0.0,0.0,0.0,0.0,0.0,0.0,0.0,0.0,0.0,0.0,0.0,0.0,0.0,0.0,0.0,0.0,0.0,0.0,0.0,0.0,0.0,0.0,0.0,0.0,0.0,0.0,0.0,0.0,0.0,0.0,0.0,0.0,0.0,0.0,0.0,0.0,0.0,0.0,0.0,0.0,0.0,0.0,0.0,0.0,0.0,0.0,0.0,0.0,0.0,0.0,0.0,0.0,0.0,0.0,0.0,0.0,0.0,0.0,0.0,0.0,0.0,0.0,0.0,0.0,0.0,0.0,0.0,0.0,0.0,0.0,0.0,0.0,0.0,0.0,0.0,0.0,0.0,0.0,0.0,0.0,-3.1005,-3.4597,-3.7016,-3.7431,-3.7781,-3.7116,-3.4996,-3.2949,-3.0655,-2.8,0.0,0.0,0.0,0.0,0.0,0.0,0.0,0.0,0.0,0.0,0.0,0.0,0.0,0.0,0.0,0.0,0.0,0.0,0.0,0.0,0.0,0.0,0.0,0.0,0.0,0.0,0.0,0.0,0.0,0.0,0.0,0.0,0.0,0.0,0.0,0.0,0.0,0.0,0.0,0.0,0.0,0.0,0.0,0.0,0.0,0.0,0.0,0.0,0.0,0.0,0.0,0.0,0.0,0.0,0.0,0.0,0.0,0.0,0.0,0.0,0.0,0.0,0.0,0.0,0.0,0.0,0.0,0.0,0.0,0.0,0.0,0.0,0.0,0.0,0.0,0.0,0.0,0.0,0.0,0.0,0.0,0.0,0.0,0.0,0.0,0.0,0.0,0.0,0.0,0.0,0.0,0.0,0.0,0.0,0.0,0.0,0.0,0.0,0.0,0.0,0.0,0.0,-2.973,-3.3195,-3.5608,-3.613,-3.6358,-3.5794,-3.4086,-3.2295,-3.0162,-2.7542,0.0,0.0,0.0,0.0,0.0,0.0,0.0,0.0,0.0,0.0,0.0,0.0,0.0,0.0,0.0,0.0,0.0,0.0,0.0,0.0,0.0,0.0,0.0,0.0,0.0,0.0,0.0,0.0,0.0,0.0,0.0,0.0,0.0,0.0,0.0,0.0,0.0,0.0,0.0,0.0,0.0,0.0,0.0,0.0,0.0,0.0,0.0,0.0,0.0,0.0,0.0,0.0,0.0,0.0,0.0,0.0,0.0,0.0,0.0,0.0,0.0,0.0,0.0,0.0,0.0,0.0,0.0,0.0,0.0,0.0,0.0,0.0,0.0,0.0,0.0,0.0,0.0,0.0,0.0,0.0,0.0,0.0,0.0,0.0,0.0,0.0,0.0,0.0,0.0,0.0,0.0,0.0,0.0,0.0,0.0,0.0,0.0,0.0,0.0,0.0,0.0,0.0,-2.8484,-3.1509,-3.3909,-3.5261,-3.4844,-3.4167,-3.3334,-3.1306,-2.9163,-2.6994,0.0,0.0,0.0,0.0,0.0,0.0,0.0,0.0,0.0,0.0,0.0,0.0,0.0,0.0,0.0,0.0,0.0,0.0,0.0,0.0,0.0,0.0,0.0,0.0,0.0,0.0,0.0,0.0,0.0,0.0,0.0,0.0,0.0,0.0,0.0,0.0,0.0,0.0,0.0,0.0,0.0,0.0,0.0,0.0,0.0,0.0,0.0,0.0,0.0,0.0,0.0,0.0,0.0,0.0,0.0,0.0,0.0,0.0,0.0,0.0,-3.0105,0.0,0.0,0.0,0.0,0.0,0.0,0.0,0.0,0.0,0.0,0.0,0.0,0.0,0.0,0.0,0.0,0.0,0.0,0.0,0.0,0.0,0.0,0.0,0.0,0.0,0.0,0.0,0.0,0.0,0.0,0.0,0.0,0.0,0.0,0.0,0.0,0.0,0.0,0.0,0.0,0.0,-2.7579,-3.0972,-3.3311,-3.3768,-3.4226,-3.3943,-3.2487,-3.0844,-2.8889,-2.6656,-2.4301,0.0,0.0,0.0,0.0,0.0,0.0,0.0,0.0,0.0,0.0,0.0,0.0,0.0,0.0,0.0,0.0,0.0,0.0,0.0,0.0,0.0,0.0,0.0,0.0,0.0,0.0,0.0,0.0,0.0,0.0,0.0,0.0,0.0,0.0,0.0,0.0,0.0,0.0,0.0,0.0,0.0,0.0,0.0,0.0,0.0,0.0,0.0,0.0,0.0,0.0,0.0,0.0,0.0,0.0,0.0,0.0,0.0,0.0,0.0,0.0,-3.1411,0.0,0.0,0.0,0.0,0.0,0.0,0.0,0.0,0.0,0.0,0.0,0.0,0.0,0.0,0.0,0.0,0.0,0.0,0.0,0.0,0.0,0.0,0.0,0.0,0.0,0.0,0.0,0.0,0.0,0.0,0.0,0.0,0.0,0.0,0.0,0.0,0.0,0.0,0.0,0.0,-2.7008,-2.9976,-3.2138,-3.3014,-3.3296,-3.3077,-3.2114,-3.0209,-2.832,-2.666,-2.4048,0.0,0.0,0.0,0.0,0.0,0.0,0.0,0.0,0.0,0.0,0.0,0.0,0.0,0.0,0.0,0.0,0.0,0.0,0.0,0.0,0.0,0.0,0.0,0.0,0.0,0.0,0.0,0.0,0.0,0.0,0.0,0.0,0.0,0.0,0.0,0.0,0.0,0.0,0.0,0.0,0.0,0.0,0.0,0.0,0.0,0.0,0.0,0.0,0.0,0.0,0.0,0.0,0.0,-3.8274,-3.8526,-3.7961,-3.8557,-3.8654,-3.8309,-3.6571,-3.4963,-3.3498,-3.1805,0.0,0.0,0.0,0.0,0.0,0.0,0.0,0.0,0.0,0.0,0.0,0.0,0.0,0.0,0.0,0.0,0.0,0.0,0.0,0.0,0.0,0.0,0.0,0.0,-2.7381,-2.65,0.0,0.0,0.0,0.0,0.0,0.0,0.0,0.0,0.0,0.0,0.0,0.0,-2.6588,-2.8997,-3.0967,-3.2265,-3.2253,-3.1988,-3.1504,-2.9376,-2.7617,-2.6497,-2.3811,-2.1898,0.0,0.0,0.0,0.0,0.0,0.0,0.0,0.0,0.0,0.0,0.0,0.0,0.0,0.0,0.0,0.0,0.0,0.0,0.0,0.0,0.0,0.0,0.0,0.0,0.0,0.0,0.0,0.0,0.0,0.0,0.0,0.0,-3.435,-3.4501,0.0,0.0,0.0,0.0,0.0,0.0,0.0,0.0,0.0,0.0,0.0,0.0,0.0,-3.7592,-3.8184,-3.8962,-3.9646,-4.0302,-4.0458,-4.0489,-4.0427,-4.0553,-4.0383,-4.0074,-4.0221,0.0,-3.5584,-3.3819,0.0,0.0,0.0,0.0,0.0,0.0,0.0,0.0,0.0,0.0,0.0,0.0,0.0,0.0,0.0,0.0,0.0,0.0,0.0,0.0,0.0,0.0,-3.009,-2.9485,-2.8798,-2.8407,0.0,-2.6444,-2.4157,-2.367,-2.2671,0.0,0.0,0.0,0.0,0.0,0.0,0.0,-2.617,-2.8888,-3.0583,-3.0402,-3.1186,-3.1052,-2.9538,-2.8331,-2.6965,-2.5346,-2.4079,-2.2622,-2.0841,-2.0783,0.0,0.0,0.0,0.0,0.0,0.0,0.0,0.0,0.0,0.0,0.0,0.0,0.0,0.0,0.0,0.0,0.0,0.0,0.0,0.0,0.0,0.0,0.0,0.0,0.0,0.0,0.0,0.0,0.0,-3.3727,-3.5612,-3.5247,-3.5246,-3.4699,0.0,0.0,0.0,0.0,0.0,0.0,0.0,0.0,0.0,-3.6765,-3.874,-4.0107,-4.0811,-4.1808,-4.2477,-4.2818,-4.2818,-4.3031,-4.3366,-4.3001,-4.2743,-4.2584,-4.2809,-4.1663,-3.9461,-3.6787,-3.4532,-3.2617,0.0,0.0,0.0,0.0,-2.9804,-2.9744,-2.9475,-2.9328,0.0,-2.8999,0.0,0.0,0.0,0.0,0.0,0.0,0.0,0.0,0.0,0.0,-3.0883,-3.0253,-2.9894,-2.9654,-2.9621,-2.8423,-2.712,0.0,-2.4906,-2.3587,-2.2672,0.0,0.0,0.0,0.0,-2.4248,-2.6125,-2.7847,-2.9016,-2.9348,-2.9653,-2.9437,-2.8554,-2.7211,-2.6031,-2.5176,-2.3846,-2.2744,-2.1959,-2.1446,-2.0461,0.0,0.0,0.0,0.0,0.0,0.0,0.0,0.0,0.0,0.0,0.0,0.0,0.0,0.0,0.0,0.0,0.0,0.0,0.0,0.0,0.0,0.0,0.0,0.0,0.0,0.0,0.0,0.0,-3.4891,-3.6776,-3.6297,-3.6985,-3.6776,0.0,0.0,0.0,0.0,0.0,0.0,-3.6001,-3.7704,-3.8901,-3.9415,-4.1175,-4.2372,-4.289,-4.3988,-4.4496,-4.4317,-4.4317,-4.4496,-4.4766,-4.4287,-4.4037,-4.4047,-4.3898,-4.3269,-4.2201,-3.9499,-3.7255,-3.5402,-3.4203,-3.3245,-3.2527,-3.2527,-3.2527,-3.2527,-3.2527,-3.2407,-3.2258,-3.2258,-3.13,-2.9953,-2.9295,0.0,0.0,0.0,0.0,-2.9564,-3.0522,-3.1241,-3.16,-3.0941,-3.0761,-3.0642,-3.0193,-2.9953,-2.9435,0.0,-2.671,-2.5342,-2.4132,0.0,0.0,0.0,0.0,-2.456,-2.6312,-2.7196,-2.7977,-2.8693,-2.8433,-2.809,-2.7721,-2.6277,-2.5274,-2.4863,-2.3622,-2.2855,-2.2637,-2.1896,-2.0852,-1.945,0.0,0.0,0.0,0.0,0.0,0.0,0.0,0.0,0.0,0.0,0.0,0.0,0.0,0.0,0.0,0.0,0.0,0.0,0.0,0.0,0.0,0.0,0.0,0.0,0.0,0.0,0.0,0.0,0.0,-3.8242,-3.9409,0.0,0.0,0.0,0.0,-3.8063,-3.8751,-3.9439,-4.0068,-4.1422,-4.2171,-4.2201,-4.3479,-4.4197,-4.4197,-4.4915,-4.4915,-4.4317,-4.4317,-4.3977,-4.3379,-4.3349,-4.3349,-4.3319,-4.2731,-4.247,-4.2351,-4.1542,-4.0008,-3.8123,-3.7434,-3.6387,-3.531,-3.531,-3.531,-3.531,-3.531,-3.4891,-3.4354,-3.4354,-3.3006,-3.1271,-3.0612,-2.9924,0.0,0.0,-3.0823,-3.1361,-3.1421,-3.1959,-3.2258,-3.16,-3.1451,-3.1451,-3.1421,-3.0883,-2.9948,0.0,-2.7334,-2.6534,-2.5317,0.0,-2.4534,-2.5013,-2.5513,-2.613,-2.6866,-2.7679,-2.8229,-2.8436,-2.8015,-2.7399,-2.6554,-2.5681,-2.4832,-2.3915,-2.3674,-2.3023,-2.1893,-2.1987,-2.1161,-1.9236,-1.8036,0.0,0.0,0.0,0.0,0.0,0.0,0.0,0.0,0.0,0.0,0.0,0.0,0.0,0.0,0.0,0.0,0.0,0.0,0.0,0.0,0.0,0.0,0.0,0.0,0.0,0.0,0.0,0.0,-4.0943,-4.2491,0.0,-4.1153,-4.1115,-4.1145,-4.1003,-4.2342,-4.3299,-4.3539,-4.4825,-4.5544,-4.5544,-4.5992,-4.6232,-4.6232,-4.6052,-4.5843,-4.5562,-4.4736,-4.4407,-4.4586,-4.4167,-4.3958,-4.3928,-4.3269,-4.2761,-4.2381,-4.2141,-4.0846,-3.902,-3.8781,-3.7883,-3.6716,-3.6716,-3.6716,-3.6716,-3.6716,-3.6297,-3.5642,-3.4803,-3.3993,-3.3305,-3.2617,-3.2287,-3.2138,-3.2377,-3.2617,-3.2706,-3.2258,-3.2318,-3.2318,-3.166,-3.1511,-3.1511,-3.1511,-3.1301,-3.0821,-2.9738,-2.8377,-2.7254,-2.682,-2.5894,-2.541,-2.5998,-2.6283,-2.6627,-2.7289,-2.764,-2.781,-2.789,-2.6964,-2.6229,-2.5894,-2.4843,-2.4023,-2.3674,-2.3263,-2.2843,-2.2384,-2.1603,-2.0665,-1.9537,-1.8681,-1.7697,0.0,0.0,0.0,0.0,0.0,0.0,0.0,0.0,0.0,0.0,0.0,0.0,0.0,0.0,0.0,0.0,0.0,0.0,0.0,0.0,0.0,0.0,0.0,0.0,0.0,0.0,-4.2222,-4.268,-4.4646,-4.5274,-4.3579,-4.3958,-4.4077,-4.3459,-4.4975,-4.5873,-4.5663,-4.692,-4.7549,-4.7309,-4.7309,-4.7309,-4.7309,-4.6651,-4.6202,-4.5963,-4.4855,-4.4436,-4.4616,-4.4197,-4.3947,-4.3958,-4.3299,-4.288,-4.2671,-4.25,-4.1632,-4.0397,-4.0397,-3.9589,-3.8422,-3.8422,-3.8272,-3.8063,-3.7823,-3.7464,-3.6896,-3.5579,-3.5192,-3.5073,-3.4382,-3.4173,-3.4173,-3.4173,-3.4173,-3.3963,-3.3066,-3.2856,-3.2617,-3.172,-3.1511,-3.1511,-3.1511,-3.1511,-3.1301,-3.0642,-2.9295,-2.8214,-2.7974,-2.6991,-2.6422,-2.6896,-2.6956,-2.7106,-2.7525,-2.7585,-2.7585,-2.7585,-2.6393,-2.5615,-2.5615,-2.4388,-2.361,-2.361,-2.3032,-2.2613,-2.2373,-2.1306,-2.0359,-1.9708,-1.9031,-1.8027,-1.6711,0.0,0.0,0.0,0.0,0.0,0.0,0.0,0.0,0.0,0.0,0.0,0.0,0.0,0.0,0.0,0.0,0.0,0.0,0.0,0.0,0.0,0.0,0.0,-3.7404,-4.0905,-4.3449,-4.3479,-4.5783,-4.683,-4.5484,-4.5992,-4.6112,-4.5394,-4.6591,-4.707,-4.6369,-4.7608,-4.7997,-4.7369,-4.7309,-4.7309,-4.7309,-4.6621,-4.5963,-4.5274,-4.4616,-4.3958,-4.329,-4.329,-4.329,-4.326,-4.2641,-4.2731,-4.323,-4.2611,-4.241,-4.241,-4.241,-4.1602,-4.0397,-4.0397,-3.9978,-3.932,-3.8631,-3.8392,-3.8182,-3.6896,-3.6477,-3.6324,-3.5666,-3.5457,-3.5457,-3.5519,-3.5519,-3.519,-3.3844,-3.3484,-3.3155,-3.1809,-3.1511,-3.1511,-3.1511,-3.1511,-3.1301,-3.0644,-3.0013,-2.9355,-2.8697,-2.8064,-2.7585,-2.7585,-2.7585,0.0,-2.7585,-2.7585,-2.7585,-2.7585,-2.6393,-2.5615,-2.5615,-2.4388,-2.361,-2.361,-2.3032,-2.2373,-2.1724,-2.1036,-2.0348,-1.9678,-1.9031,-1.8027,-1.6711,0.0,0.0,0.0,0.0,0.0,0.0,0.0,0.0,0.0,0.0,0.0,0.0,0.0,0.0,0.0,0.0,0.0,0.0,0.0,0.0,0.0,-3.7515,-3.9379,-3.9559,-4.2162,-4.4436,-4.5394,-4.7429,-4.8207,-4.689,-4.7788,-4.7997,-4.683,-4.7549,-4.7938,-4.7758,-4.8087,-4.8207,-4.8027,-4.7549,-4.7309,-4.7309,-4.6142,-4.5484,-4.5274,-4.4137,-4.3469,-4.329,-4.329,-4.329,-4.326,-4.2641,-4.25,-4.265,-4.247,-4.241,-4.241,-4.241,-4.1602,-4.0397,-4.0397,-3.9978,-3.9284,-3.8454,-3.8074,-3.7724,-3.632,-3.5771,-3.5517,-3.5041,-3.4997,-3.51,-3.5261,-3.5392,-3.519,-3.3844,-3.3484,-3.3155,-3.1809,-3.1511,-3.1482,-3.1365,-3.1248,-3.1102,-3.0954,-3.0035,-2.9112,-2.867,-2.8064,-2.7585,-2.7585,-2.7585,0.0,-2.7585,-2.7585,-2.7585,-2.7585,-2.6393,-2.5615,-2.5615,-2.4388,-2.361,-2.361,-2.2562,-2.1874,-2.1695,-2.0587,-1.966,-1.9001,-1.8792,-1.8027,0.0,0.0,0.0,0.0,0.0,0.0,0.0,0.0,0.0,0.0,0.0,0.0,0.0,0.0,0.0,0.0,0.0,0.0,0.0,0.0,0.0,0.0,-4.0048,-4.2252,-4.2791,-4.4197,-4.5454,-4.619,-4.7818,-4.8446,-4.7399,-4.8237,-4.8416,-4.7369,-4.7908,-4.8177,-4.7908,-4.8147,-4.8147,-4.7878,-4.7489,-4.7189,-4.689,-4.5843,-4.5155,-4.4855,-4.3798,-4.329,-4.329,-4.329,-4.329,-4.326,-4.294,-4.2761,-4.2761,-4.2761,-4.265,0.0,0.0,0.0,0.0,0.0,-3.9738,-3.9277,-3.8638,-3.8135,-3.7536,-3.6006,-3.5253,-3.4825,-3.422,-3.4303,-3.4576,-3.4872,-3.5198,-3.519,-3.3844,-3.3484,-3.3155,-3.1809,-3.1511,-3.1453,-3.1219,-3.0925,-3.063,-3.0397,-2.9492,0.0,-2.8296,-2.788,-2.7585,-2.7585,-2.7585,-2.756,-2.7539,-2.7488,-2.7412,-2.7361,-2.61,-2.5307,-2.5355,-2.4208,0.0,0.0,0.0,-2.1782,-2.1414,-2.041,0.0,0.0,0.0,0.0,0.0,0.0,0.0,0.0,-1.8087,-1.8356,0.0,0.0,0.0,0.0,0.0,0.0,0.0,0.0,0.0,0.0,0.0,0.0,0.0,0.0,0.0,0.0,-4.2197,-4.481,-4.6135,-4.6433,-4.6535,-4.6518,-4.7638,-4.8117,-4.7369,-4.7908,-4.8027,-4.7369,-4.7848,-4.7908,-4.7339,0.0,0.0,0.0,0.0,-4.692,-4.6322,-4.5574,-4.4885,-4.4317,-4.3618,-4.329,-4.329,-4.329,-4.329,-4.329,-4.329,-4.329,-4.329,-4.329,-4.294,-4.244,-4.2781,-4.2243,-4.104,-3.9748,-3.9265,-3.9192,-3.8797,0.0,0.0,-3.5759,-3.4817,-3.412,-3.3294,-3.3457,-3.3973,-3.4346,-3.4905,-3.5061,-3.375,-3.3392,-3.3034,-3.1722,-3.1424,-3.1278,-3.0925,-3.0539,-3.0005,-2.9401,-2.8741,-2.8197,-2.7869,-2.7676,-2.7585,-2.7585,-2.7585,-2.7564,-2.7386,-2.7233,-2.7052,-2.6925,0.0,0.0,-2.4873,-2.3867,-2.3216,-2.3216,-2.2555,-2.1791,-2.0901,-2.0304,-1.9938,-1.9852,-2.0078,-1.9953,-1.9442,-2.0184,-2.0644,-2.0808,-2.0139,-1.9887,0.0,0.0,0.0,0.0,0.0,0.0,0.0,0.0,0.0,0.0,0.0,0.0,0.0,0.0,0.0,-3.9552,-4.2593,-4.5055,-4.6109,-4.7287,-4.803,-4.7924,-4.8596,-4.864,-4.7429,-4.7908,-4.8027,-4.7369,-4.7429,-4.7429,-4.7309,-4.7429,-4.7429,-4.7309,-4.68,-4.6441,-4.6279,-4.5125,-4.4436,-4.4317,0.0,0.0,-4.329,-4.329,-4.329,-4.329,-4.329,-4.329,-4.329,-4.329,-4.294,-4.2321,-4.1173,-4.0448,-4.0001,-3.9017,-3.8575,-3.8352,-3.7787,-3.726,-3.6532,-3.4771,-3.3892,-3.3369,-3.2554,-3.2739,0.0,-3.3596,-3.4167,-3.4309,-3.3027,-3.2706,-3.2355,-3.1098,-3.0777,-3.0628,-3.0146,-2.9747,-2.9411,-2.9171,-2.8672,-2.8208,-2.7939,-2.7705,-2.7585,-2.7585,-2.7585,-2.7509,-2.7284,-2.6893,-2.6551,-2.6312,-2.4807,-2.3921,-2.4176,-2.3349,-2.2807,-2.2807,-2.1979,-2.1044,-2.0085,-1.9897,-1.9598,-1.9038,-1.9803,-2.0017,-1.9651,-2.0555,-2.1167,-2.1485,-2.0827,-2.1096,0.0,0.0,0.0,0.0,0.0,0.0,0.0,0.0,0.0,0.0,0.0,-3.3756,-3.5119,0.0,-3.9445,-4.058,-4.3146,-4.5344,-4.6107,-4.7699,-4.8805,-4.8625,-4.8731,-4.8506,-4.7848,-4.7788,-4.7668,-4.7339,-4.7309,-4.7309,-4.7309,-4.7309,-4.7309,-4.7309,-4.6681,-4.613,-4.5813,-4.4825,-4.4137,-4.3798,-4.3439,-4.329,-4.329,-4.329,-4.325,-4.317,-4.305,-4.293,-4.282,-4.202,-4.1509,-4.1096,-3.9381,-3.8946,-3.9159,-3.8216,-3.7577,-3.7127,-3.661,-3.6096,-3.5358,-3.3686,-3.2765,-3.2201,-3.1476,-3.1663,-3.2182,-3.2541,-3.3073,-3.3208,-3.1962,-3.1654,-3.1342,-3.0092,-2.978,-2.9687,-2.9251,-2.8807,-2.8487,-2.8476,-2.7931,-2.7515,-2.758,-2.7201,-2.6949,-2.7104,-2.7152,-2.7023,-2.6683,-2.6312,-2.5933,-2.5605,-2.4148,-2.3304,-2.3563,-2.2776,-2.2287,-2.2356,-2.1722,-2.107,-2.0444,-2.0101,-1.9782,-1.9467,-2.0052,-2.0335,-2.0373,-2.1283,-2.1924,-2.2287,-2.1972,-2.2097,0.0,0.0,0.0,0.0,0.0,0.0,0.0,0.0,-3.1685,-3.2769,-3.4684,-3.6366,-3.7117,-3.9198,-4.0927,-4.1229,-4.3362,-4.52,-4.5755,-4.7551,-4.8827,-4.8719,-4.8581,-4.8416,-4.8297,-4.7698,-4.7309,-4.7309,-4.7309,-4.7309,-4.7309,-4.7189,-4.713,-4.713,-4.6352,-4.5663,-4.5095,-4.4436,-4.3828,-4.329,-4.317,-4.317,-4.329,-4.317,-4.3051,-4.29,-4.2496,-4.217,-4.1794,-4.0291,-3.9704,-3.951,-3.7692,-3.7388,-3.7923,-3.718,-3.6515,-3.5922,-3.5507,-3.5047,-3.4327,-3.2797,-3.1873,-3.1266,-3.0547,-3.0696,-3.1156,-3.1553,-3.2001,-3.2105,-3.0925,-3.0596,-3.0294,-2.9114,-2.8812,-2.8716,-2.839,-2.7934,-2.7604,-2.7656,-2.7203,-2.6901,-2.711,-2.6634,-2.6296,-2.6569,-2.6502,-2.6312,-2.5934,-2.555,-2.5189,-2.4821,-2.3415,-2.2591,-2.2718,-2.2027,-2.165,-2.1769,-2.141,-2.1068,-2.0795,-2.03,-2.004,-2.004,-2.0303,-2.0607,-2.0951,-2.1778,-2.2356,-2.2672,-2.2672,-2.2702,-3.3903,-3.4715,-3.6085,-3.5951,-3.5554,-3.517,0.0,0.0,-3.4546,-3.5699,-3.7241,-3.8341,-3.798,-3.9556,-4.0811,-4.0537,-4.2451,-4.4068,-4.437,-4.6245,-4.7661,-4.7916,-4.8695,-4.897,-4.8356,-4.7698,-4.7309,-4.7309,-4.7309,-4.7309,-4.7309,-4.6741,-4.6399,-4.6399,-4.5185,-4.4496,-4.4436,-4.3738,-4.3349,-4.329,-4.2761,-4.2761,-4.326,-4.2731,-4.2594,-4.2688,-4.1603,-4.0774,-4.0062,-3.8769,-3.8269,-3.8145,-3.6455,-3.5534,-3.5249,-3.5683,-3.5534,-3.5073,-3.4662,-3.4356,-3.3923,-3.2378,-3.1655,-3.1226,-3.0417,-3.0381,-3.0733,-3.0985,-3.1357,-3.1368,-3.0218,-2.9896,-2.9602,-2.8391,-2.8091,-2.8026,-2.7689,-2.743,-2.7229,-2.7113,-2.7136,-2.7037,-2.6733,-2.6453,-2.6277,-2.6267,-2.5855,-2.5412,-2.5078,-2.4682,-2.4308,-2.3989,-2.2549,-2.1474,-2.1111,-2.0974,-2.0919,-2.0919,-2.0673,-2.0346,-1.994,-1.9864,-1.9838,-1.9838,-2.0092,-2.0419,-2.0813,-2.1186,-2.15,-2.1828,-2.1828,-2.2197,-3.6567,-3.7863,-3.9343,-3.9112,-3.9382,-3.9656,-3.942,-3.9031,-3.904,-3.9882,-4.1063,-4.1694,-4.0821,-4.1208,-4.151,0.0,-4.203,-4.3021,-4.3429,-4.5313,-4.6673,-4.6756,-4.7566,-4.8177,-4.8267,-4.7698,-4.7266,-4.7062,-4.6961,-4.6917,-4.6917,-4.6251,-4.6159,-4.6645,-4.549,-4.4885,-4.4885,-4.4227,-4.3638,-4.3101,-4.2396,-4.2139,-4.2367,-4.2139,-4.1909,-4.1574,-4.0365,-3.9388,-3.8526,-3.7335,-3.6847,-3.6751,-3.5435,-3.4703,-3.4371,-3.4662,-3.4397,-3.3852,-3.3683,-3.3581,-3.3318,-3.201,-3.1468,-3.1226,-3.0223,-3.0024,-3.0177,-3.0279,-3.0406,-3.0237,-2.9104,-2.8795,-2.8511,-2.7378,-2.7121,-2.7087,-2.6952,-2.685,-2.6782,-2.6705,-2.6748,-2.6739,-2.6577,-2.5942,-2.5407,-2.5397,-2.5095,-2.4766,-2.4454,-2.4192,-2.3742,-2.2996,-2.2144,-2.1468,-2.1121,-2.0705,-2.0498,-2.0573,-2.0321,-2.0042,-1.9811,-1.9811,-1.9811,-1.9811,-1.9991,-2.022,-2.0573,-2.1114,-2.1499,-2.1772,-2.2125,-2.2464,-3.8571,-4.0277,-4.185,-4.1463,-4.2249,-4.3027,-4.2356,-4.2022,-4.202,-4.2375,-4.2988,-4.323,-4.219,-4.1737,-4.1354,-4.0953,-4.148,-4.2109,-4.2606,-4.4369,-4.5597,-4.5468,-4.6133,-4.6783,-4.708,-4.691,-4.6612,-4.631,-4.5976,-4.5757,-4.5757,-4.5141,-4.5212,-4.6121,-4.5436,-4.5035,-4.5035,-4.4556,-4.3777,-4.2634,-4.1705,-4.1253,-4.1213,-4.1134,-4.0735,-4.0069,-3.8931,-3.7839,-3.6796,-3.5824,-3.543,-3.5335,-3.4422,-3.3937,-3.3836,-3.3836,-3.3539,-3.3086,-3.2893,-3.2842,-3.2667,-3.1537,-3.1185,-3.1009,-3.008,-2.9804,-2.9804,-2.9804,-2.9804,-2.9553,-2.8599,-2.8222,-2.7871,-2.6952,-2.66,-2.6499,-2.6499,-2.6499,-2.6499,-2.6499,-2.6499,-2.6499,-2.6499,-2.5536,-2.48,-2.48,-2.4412,-2.4018,-2.3868,-2.3695,-2.3284,-2.2401,-2.2031,-2.1667,-2.1195,-2.0629,-2.0322,-2.022,-2.0042,-1.9888,-1.9811,-1.9811,-1.9811,-1.9811,-1.9888,-2.0042,-2.0245,-2.094,-2.1355,-2.1511,-2.2087,-2.2375,-3.902,-4.1324,-4.317,-4.2426,-4.3298,-4.4051,-4.2906,-4.2556,-4.2311,-4.1822,-4.1749,-4.1526,-4.0695,-4.0108,-3.9772,-3.9747,-4.0651,-4.142,-4.1699,-4.3271,-4.4348,-4.399,-4.4567,-4.4763,0.0,-4.4862,-4.5198,-4.4807,-4.4108,-4.3661,-4.3661,-4.3055,-4.3211,-4.4336,-4.4347,-4.4347,-4.4347,-4.4317,-4.3458,-4.1824,-4.0488,-3.9892,-3.9939,-3.947,-3.8887,-3.8159,-3.7246,-3.6105,-3.4745,-3.4167,-3.3941,-3.3891,-3.3381,-3.3111,-3.3111,-3.3111,-3.3111,-3.2993,-3.2441,-3.224,-3.2064,-3.0984,-3.0633,-3.0532,-2.9955,-2.9804,-2.9804,-2.9804,-2.9804,-2.9654,-2.9013,-2.8499,-2.7971,-2.7394,-2.6876,-2.6499,-2.6499,-2.6499,-2.6499,-2.6499,-2.6499,-2.6499,-2.6499,-2.5536,-2.48,-2.48,-2.3853,-2.3125,-2.3125,-2.3125,-2.2924,-2.2372,-2.2297,-2.1845,-2.0819,-2.0693,-2.0415,-1.9862,-1.9811,-1.9811,-1.9811,-1.9811,-1.9811,-1.9811,-1.9811,-1.9811,-1.9837,-2.0441,-2.0718,-2.0745,-2.1297,-2.1549,-4.0367,-4.2641,-4.4642,-4.4516,-4.5718,-4.6643,-4.5551,-4.5157,-4.4661,-4.3332,-4.2355,-4.1386,-4.0402,-3.9626,-3.927,-3.9647,-4.0626,-4.1468,-4.1901,-4.3258,-4.3846,-4.2858,-4.3072,0.0,0.0,0.0,0.0,-4.3993,-4.3458,-4.3279,-4.3735,-4.3136,-4.3239,-4.4179,-4.4122,-4.3822,-4.3453,-4.3453,-4.2723,-4.1274,-3.9502,-3.8749,-3.894,-3.8071,-3.791,-3.8218,-3.6524,-3.5158,-3.4123,-3.3571,-3.3345,-3.3345,-3.3144,-3.3111,-3.3111,-3.3111,-3.3111,-3.2993,-3.2416,-3.2215,-3.2039,-3.0959,-3.0608,-3.0507,-2.9955,-2.9804,-2.9804,-2.9804,-2.9804,-2.9654,-2.9076,-2.8762,-2.8423,-2.7494,-2.7178,-2.6927,-2.6575,-2.6499,-2.6499,-2.6499,-2.6499,-2.6499,-2.6499,-2.5536,-2.4525,-2.3797,-2.3346,-2.3095,-2.3095,-2.3095,-2.302,-2.2844,-2.2493,-2.2171,-2.1794,-2.1119,-2.0616,-2.0415,-2.0012,-1.9811,-1.9811,-1.9811,-1.9811,-1.9811,-2.0188,-2.039,-2.0415,-2.1345,-2.1769,-2.1769,-2.2322,-2.2543,-4.2013,-4.4197,-4.6028,-4.6089,-4.7115,-4.773,-4.613,-4.5537,-4.4759,-4.2689,-4.1,-3.9721,-3.9013,-3.8229,-3.799,-3.8944,-4.0023,-4.0961,-4.1561,-4.2605,-4.289,-4.1974,-4.1773,-4.1303,0.0,0.0,0.0,-4.2249,-4.2185,-4.2317,-4.2722,-4.2598,-4.2728,-4.3302,-4.3174,-4.2838,-4.221,-4.2181,-4.1368,-3.9668,-3.8164,-3.7573,-3.7687,-3.6822,-3.6749,-3.7295,-3.5594,-3.4392,-3.3571,-3.3219,-3.3111,-3.3111,-3.3111,-3.3111,-3.3111,-3.3111,-3.3111,-3.3011,-3.219,-3.1913,-3.1738,-3.0658,-3.0306,-3.0256,-2.9905,-2.9804,-2.9804,-2.9804,-2.9804,-2.9704,-2.9327,-2.9038,-2.8662,-2.7795,-2.7419,-2.7178,-2.6625,-2.6499,-2.6499,-2.6499,-2.6499,-2.6499,-2.6499,-2.5536,-2.4474,-2.3547,-2.3246,-2.3095,-2.3095,-2.3095,-2.3095,-2.3095,-2.2794,-2.2493,-2.2322,-2.1669,-2.1119,-2.0717,-2.0339,-2.0012,-1.9811,-1.9811,-1.9811,-1.9811,-2.039,-2.0691,-2.0691,-2.1769,-2.2322,-2.2293,-2.2844,-2.3095,-4.3898,-4.5903,-4.7385,-4.7094,-4.7611,-4.752,-4.4879,-4.3891,-4.2744,-3.9999,-3.7847,-3.6515,-3.6595,0.0,-3.5909,-3.7563,-3.8868,-3.9951,-4.0741,-4.1311,-4.1569,0.0,0.0,0.0,0.0,0.0,0.0,-3.9777,0.0,-4.0797,-4.089,-4.1414,-4.1718,-4.1718,-4.1663,-4.1332,-4.0669,-4.0669,-3.9489,-3.7237,-3.6648,-3.6314,-3.6236,-3.5657,-3.5437,-3.541,-3.4464,-3.3709,-3.3111,-3.3111,-3.3111,-3.3111,-3.3111,-3.3111,-3.3111,-3.3086,-3.3043,-3.2867,-3.1738,-3.1361,-3.121,-3.0131,-2.9804,-2.9804,-2.9804,-2.9804,-2.9804,-2.9804,-2.9804,-2.9804,-2.9804,-2.9377,-2.8787,-2.8247,-2.7695,-2.7203,-2.6625,-2.6499,-2.6499,-2.6499,-2.6499,-2.6474,-2.6449,-2.5561,-2.4625,-2.4079,-2.3496,-2.3145,-2.3095,-2.3095,-2.3095,-2.3095,-2.3095,-2.2895,-2.2368,-2.2322,-2.1845,-2.0792,-2.0717,-2.044,-1.9861,-1.9836,-1.9861,-1.9886,-2.049,-2.0767,-2.0792,-2.182,-2.2347,-2.2343,-2.2869,-2.3095,-4.5394,-4.7565,-4.9329,-4.885,-4.9193,-4.8962,-4.613,-4.4174,-4.2086,-3.889,-3.5999,-3.3882,-3.3449,-3.3564,0.0,-3.5353,-3.7538,0.0,-3.9926,-4.0812,0.0,-4.0716,0.0,-3.965,-3.9064,-3.8477,0.0,0.0,-3.9865,-4.0486,-4.0719,-4.1474,-4.1536,-4.0729,-4.0656,-4.0145,-3.9069,-3.8754,-3.7957,-3.6753,-3.6011,-3.5727,-3.5895,-3.471,-3.4503,-3.508,-3.4024,-3.3411,-3.3111,-3.3111,-3.3111,-3.3111,-3.3111,-3.3111,-3.3061,-3.2591,-3.2441,-3.2265,-3.1185,-3.106,-3.121,-3.0131,-2.9804,-2.9804,-2.9804,-2.9804,-2.9804,-2.9804,-2.9804,-2.9804,-2.9804,-2.9679,-2.9327,-2.8348,-2.7996,-2.762,-2.67,-2.6499,-2.6499,-2.6499,-2.6499,-2.6348,-2.5921,-2.5586,-2.5084,-2.413,-2.3879,-2.3627,-2.317,-2.3095,-2.3095,-2.3095,-2.3095,-2.3045,-2.292,-2.2518,-2.202,-2.1345,-2.0918,-2.0616,-2.049,-2.0465,-2.0666,-2.1041,-2.1619,-2.1895,-2.1895,-2.2569,-2.2895,-2.2895,-2.3045,-2.3095,-4.6741,-4.8476,-4.9643,-4.8985,-4.8895,-4.809,-4.4938,-4.2507,-3.9968,-3.6891,-3.3586,-3.1235,-3.116,-3.1411,-3.2164,0.0,0.0,0.0,-3.8492,-3.932,-3.9848,0.0,-3.9295,0.0,-3.8868,-3.8341,-3.8062,0.0,-3.9623,-4.0522,-4.0728,-4.1432,-4.1208,-3.9833,-3.9473,-3.8735,-3.7592,-3.7315,-3.6975,-3.6483,-3.5811,-3.5531,-3.5615,-3.4361,-3.4074,-3.4459,0.0,-3.3197,-3.3111,-3.3111,-3.3111,-3.3111,-3.3111,-3.3111,-3.3061,-3.2416,-3.2215,-3.2064,-3.0984,-3.0809,-3.0909,-3.0055,-2.9804,-2.9804,-2.9804,-2.9804,-2.9804,-2.9804,-2.9804,-2.9804,-2.9804,-2.9804,-2.9578,-2.8674,-2.8273,-2.7871,-2.7027,-2.6675,-2.6499,-2.6499,-2.6499,-2.6399,-2.6072,-2.5762,-2.5385,-2.4782,-2.4305,-2.3879,-2.3521,-2.3271,-2.3095,-2.3095,-2.3095,-2.3095,-2.3095,-2.2819,-2.2318,-2.1543,-2.1446,-2.1194,-2.0717,-2.0918,-2.1194,-2.1468,-2.202,-2.2322,-2.2322,-2.2844,-2.3095,-2.3095,-2.3095,-2.3095,-4.7818,-4.8835,-4.9239,-4.8356,-4.7668,-4.6228,-4.2631,-3.9874,-3.7232,-3.4403,-3.1021,-2.8775,-2.9352,-2.9528,-3.0256,-3.239,0.0,-3.5734,-3.6835,-3.7563,-3.8191,-3.8693,-3.8391,-3.8316,-3.8869,-3.8492,-3.8114,-3.7802,-3.9495,-4.05,-4.0417,-4.0992,-4.0563,-3.8962,-3.8206,-3.7337,-3.6405,-3.6329,-3.6304,-3.6279,-3.5629,-3.5282,-3.5232,-3.4248,-3.3796,-3.3771,-3.3294,0.0,-3.3111,-3.3111,-3.3111,-3.3111,-3.3111,-3.3111,-3.2993,-3.234,-3.2114,-3.1964,-3.0884,-3.0507,-3.0432,-2.9955,-2.9804,-2.9804,-2.9804,-2.9804,-2.9804,-2.9804,-2.9804,-2.9804,-2.9804,-2.9804,-2.9654,-2.9038,-2.8499,-2.7946,-2.7429,-2.6876,-2.6499,-2.6499,-2.6499,-2.6499,-2.6499,-2.6072,-2.5686,-2.5611,-2.4808,-2.4155,-2.4029,-2.3471,-2.3095,-2.3095,-2.3095,-2.3095,-2.3095,-2.3095,-2.2669,-2.1669,-2.2046,-2.187,-2.0943,-2.137,-2.1619,-2.1694,-2.2171,-2.2422,-2.2422,-2.2869,-2.3095,-2.3095,-2.3095,-2.3095,-4.8207,-4.9164,-4.9643,-4.7908,-4.698,-4.5424,-4.1445,-3.8261,0.0,0.0,-2.9009,-2.7102,-2.762,-2.8097,-2.8976,-3.0758,-3.3194,-3.5031,-3.5683,-3.7086,-3.804,0.0,0.0,0.0,0.0,0.0,0.0,0.0,0.0,-3.8989,-3.8505,-3.9184,-3.8991,-3.7579,-3.6981,-3.6606,-3.6405,-3.5906,-3.5633,-3.5633,-3.4675,-3.4198,-3.4173,-3.352,-3.3262,-3.3219,-3.3162,0.0,-3.3111,-3.3111,-3.3111,-3.3111,-3.3111,-3.3111,-3.2943,-3.1913,-3.1537,-3.1386,-3.0306,-2.993,-2.9905,-2.9829,-2.9804,-2.9804,-2.9804,-2.9804,-2.9804,-2.9804,-2.9804,-2.9804,-2.9804,-2.9804,-2.9654,-2.9038,-2.8499,-2.7946,-2.7429,-2.6876,-2.6499,-2.6499,-2.6499,-2.6499,-2.6499,-2.6399,-2.6172,-2.5661,-2.5435,-2.5008,-2.4104,-2.3471,-2.3095,-2.3095,-2.3095,-2.3095,-2.3095,-2.3095,-2.2819,-2.2221,-2.2272,-2.2221,-2.202,-2.2121,-2.2368,-2.2819,-2.292,-2.297,-2.297,-2.3045,-2.3095,-2.3095,-2.3095,-2.3095,-4.8087,-4.8745,-4.8745,-4.6741,-4.5514,-4.3696,-3.9604,0.0,0.0,0.0,-2.74,-2.536,-2.5912,-2.644,0.0,-2.9026,-3.1386,-3.3294,-3.4148,-3.5429,0.0,0.0,0.0,0.0,0.0,0.0,0.0,0.0,0.0,-3.7988,-3.798,-3.8123,-3.7873,-3.7235,-3.6707,-3.6405,-3.6405,-3.5805,-3.5508,-3.5483,-3.4424,-3.3897,-3.3872,-3.3319,-3.3111,-3.3111,-3.3111,0.0,-3.3111,-3.3111,-3.3111,-3.3111,-3.3111,-3.3111,-3.2943,-3.1813,-3.1386,-3.1235,-3.0156,-2.9804,-2.9804,-2.9804,-2.9804,-2.9804,-2.9804,-2.9804,-2.9804,-2.9804,-2.9804,-2.9804,-2.9804,-2.9804,-2.9729,-2.9453,-2.8725,-2.7946,-2.7429,-2.6876,-2.6499,-2.6499,-2.6499,-2.6499,-2.6499,-2.6499,-2.6399,-2.6122,-2.5787,-2.541,-2.4908,-2.4104,-2.3446,-2.3145,-2.3095,-2.3095,-2.3095,-2.3095,-2.2869,-2.2347,-2.2543,-2.2569,-2.2322,-2.2569,-2.2844,-2.3095,-2.3095,-2.3095,-2.3095,-2.3095,-2.3095,-2.3095,-2.3095,-2.3095,-4.7788,-4.8177,-4.7758,-4.5633,-4.4107,-4.2028,-3.7887,-3.4225,0.0,-2.8972,-2.6025,-2.3979,-2.4531,-2.4983,-2.5812,0.0,-2.9503,-3.126,-3.239,-3.3696,-3.4901,0.0,0.0,0.0,0.0,0.0,0.0,0.0,0.0,0.0,-3.7638,-3.7236,-3.701,-3.701,-3.6483,-3.6182,-3.6182,-3.5529,-3.5157,-3.5132,-3.4198,-3.3721,-3.3696,-3.3269,-3.3111,-3.3111,-3.2943,0.0,0.0,-3.2767,-3.2792,-3.2893,-3.2767,-3.2792,-3.2767,-3.1637,-3.1235,-3.1085,-3.0131,-2.9804,-2.9804,-2.9804,-2.9804,-2.9804,-2.9804,-2.9804,-2.9804,-2.9804,-2.9804,-2.9804,-2.9804,-2.9804,-2.9754,-2.9628,-2.8925,-2.8097,-2.7419,-2.6977,-2.6625,-2.6524,-2.6499,-2.6499,-2.6499,-2.6499,-2.6499,-2.6499,-2.6097,-2.5737,-2.5611,-2.4858,-2.4079,-2.3371,-2.317,-2.3095,-2.3095,-2.3095,-2.292,-2.2493,-2.2869,-2.292,-2.2468,-2.2869,-2.3095,-2.3095,-2.3095,-2.3095,-2.3095,-2.3095,-2.3095,-2.3095,-2.3095,-2.3095,-4.7369,-4.7848,-4.7668,-4.5065,-4.3419,-4.1292,-3.6722,0.0,-2.9743,-2.7193,-2.4827,-2.3371,-2.3979,-2.4104,-2.4682,-2.6373,-2.8047,-2.9553,-3.0683,-3.2641,0.0,0.0,0.0,0.0,0.0,0.0,0.0,0.0,0.0,0.0,-3.6556,-3.6505,-3.648,-3.648,-3.5906,-3.5583,-3.5583,-3.4575,-3.4048,-3.4048,-3.3445,-3.3144,-3.3144,-3.3093,-3.3111,-3.3043,-3.2516,0.0,0.0,-3.1738,-3.1838,-3.224,-3.1738,-3.1863,-3.2164,-3.1085,-3.0683,-3.0608,-3.0005,-2.9804,-2.9804,-2.9804,-2.9804,-2.9804,-2.9804,-2.9804,-2.9804,-2.9804,-2.9804,-2.9804,-2.9804,-2.9804,-2.9654,-2.9088,-2.8888,-2.8574,-2.7519,-2.7278,-2.7102,-2.66,-2.6499,-2.6499,-2.6499,-2.6499,-2.6499,-2.6499,-2.6449,-2.6223,-2.5661,-2.5511,-2.5059,-2.4029,-2.3421,-2.3095,-2.3095,-2.3095,-2.307,-2.302,-2.307,-2.307,-2.302,-2.307,-2.3095,-2.3095,-2.3095,-2.3095,-2.3095,-2.3095,-2.3095,-2.3095,-2.3095,-2.3095,-4.5873,-4.6591,-4.6561,-4.4317,-4.2462,-4.0099,-3.5873,-3.2225,-2.9073,-2.6866,-2.4641,-2.317,-2.3396,-2.3778,-2.4431,-2.5737,-2.7067,-2.8448,-2.9905,-3.116,0.0,0.0,0.0,0.0,0.0,0.0,0.0,0.0,0.0,0.0,-3.6405,-3.6405,-3.6405,-3.6405,-3.583,-3.5508,-3.5508,-3.4449,-3.3897,-3.3897,-3.3345,-3.3111,-3.3111,-3.3111,-3.3111,-3.3086,-3.2466,0.0,0.0,-3.1612,-3.1712,-3.2164,-3.1612,-3.1738,-3.2089,-3.1009,-3.0608,-3.0532,-2.998,-2.9804,-2.9804,-2.9804,-2.9804,-2.9804,-2.9804,-2.9804,-2.9804,-2.9804,-2.9804,-2.9804,-2.9804,-2.9804,-2.9729,-2.9503,-2.9176,-2.8762,-2.8373,-2.7745,-2.7253,-2.7027,-2.6725,-2.6499,-2.6499,-2.6499,-2.6499,-2.6499,-2.6499,-2.6399,-2.6172,-2.5812,-2.5435,-2.5008,-2.418,-2.3471,-2.312,-2.3095,-2.3095,-2.3095,-2.3095,-2.3095,-2.3095,-2.3095,-2.3095,-2.3095,-2.3095,-2.3095,-2.3095,-2.3095,-2.3095,-2.3095,-2.3095,-2.3095,-4.4377,-4.5364,-4.5544,-4.3569,-4.1743,-3.9348,-3.5405,-3.1793,-2.8765,-2.6812,-2.4641,-2.3095,-2.3095,-2.3446,-2.4054,-2.4983,-2.6063,-2.7243,-2.8624,-2.9704,0.0,0.0,0.0,0.0,0.0,0.0,0.0,0.0,0.0,0.0,-3.6405,-3.6207,-3.6107,-3.6107,-3.5579,-3.5182,-3.5006,-3.4123,-3.3646,-3.3646,-3.3269,-3.3111,-3.3111,-3.3111,-3.3111,-3.3086,-3.229,0.0,0.0,-3.121,-3.1235,-3.1687,-3.1135,-3.126,-3.1637,-3.0708,-3.0357,-3.0306,-2.993,-2.9804,-2.9804,-2.9804,-2.9804,-2.9804,-2.9804,-2.9804,-2.9804,-2.9804,-2.9804,-2.9804,-2.9804,-2.9804,-2.9804,-2.9804,-2.9478,-2.9126,-2.8938,-2.8323,-2.767,-2.7344,-2.7002,-2.6675,-2.6524,-2.6499,-2.6499,-2.6499,-2.6499,-2.6499,-2.6499,-2.6147,-2.5787,-2.5611,-2.4933,-2.4255,-2.3647,-2.3446,-2.3371,-2.3371,-2.3195,-2.3095,-2.3095,-2.3095,-2.317,-2.3346,-2.3371,-2.3446,-2.3597,-2.3597,-2.3597,-2.3597,-2.3597,-2.3597,-4.306,-4.4347,-4.4825,-4.292,-4.1422,-3.9348,-3.5405,-3.1793,-2.8765,-2.6812,-2.4641,-2.3095,-2.3095,-2.312,-2.3296,-2.3929,-2.4908,-2.5812,-2.6449,-2.8435,0.0,0.0,0.0,0.0,0.0,0.0,0.0,0.0,0.0,0.0,-3.6405,-3.5855,-3.5508,-3.5508,-3.4981,-3.4474,-3.3922,-3.337,-3.3136,-3.3136,-3.3111,-3.3111,-3.3111,-3.3111,-3.3111,0.0,0.0,0.0,0.0,-3.0256,-3.0131,-3.0583,-3.003,-3.0156,-3.0557,-3.0005,-2.9804,-2.9804,-2.9804,-2.9804,-2.9804,-2.9804,-2.9804,-2.9804,-2.9804,-2.9804,-2.9804,-2.9804,-2.9804,-2.9804,-2.9804,-2.9804,-2.9804,-2.9804,-2.9779,-2.9628,-2.9013,-2.8888,-2.8562,-2.7494,-2.7304,-2.7128,-2.6575,-2.6499,-2.6499,-2.6499,-2.6499,-2.6499,-2.6499,-2.6474,-2.6273,-2.5661,-2.5586,-2.5385,-2.4825,-2.4305,-2.3979,-2.3979,-2.3421,-2.3095,-2.3095,-2.3095,-2.3371,-2.3979,-2.3979,-2.4255,-2.4775,-2.4775,-2.4775,-2.4775,-2.4775,-2.4775,-3.9619,-4.0935,-4.1683,-4.0606,-3.902,-3.6939,-3.3911,-3.0823,-2.8097,-2.6163,-2.4356,-2.3095,-2.3095,-2.3095,-2.3296,-2.3904,-2.428,-2.5084,0.0,0.0,0.0,0.0,0.0,0.0,0.0,0.0,0.0,0.0,0.0,0.0,-3.583,-3.5583,-3.5508,-3.5508,-3.4605,-3.4073,-3.3897,-3.3345,-3.3111,-3.3111,-3.3111,-3.3111,-3.3111,-3.3111,-3.3111,0.0,0.0,0.0,0.0,-3.0231,-3.0131,-3.0557,-3.0005,-3.0131,-3.0557,-3.0005,-2.9804,-2.9804,-2.9804,-2.9804,-2.9804,-2.9804,-2.9804,-2.9804,-2.9804,-2.9804,-2.9804,-2.9804,-2.9804,-2.9804,-2.9804,-2.9804,-2.9804,-2.9804,-2.9804,-2.9754,-2.9553,-2.9202,-2.8687,-2.7971,-2.7544,-2.7153,-2.66,-2.6499,-2.6499,-2.6499,-2.6499,-2.6499,-2.6499,-2.6499,-2.6424,-2.6248,-2.6223,-2.5812,-2.4876,-2.4625,-2.4406,-2.4029,-2.3828,-2.3521,-2.312,-2.3496,-2.3803,-2.4004,-2.4381,-2.4625,-2.48,-2.48,-2.48,-2.48,-2.48,-2.5008,-3.639,-3.8063,-3.905,-3.8153,-3.6836,-3.5061,-3.2445,-2.982,-2.7456,-2.584,-2.4072,-2.2794,-2.2794,-2.2619,-2.2698,-2.3276,-2.3527,-2.4381,0.0,0.0,0.0,0.0,0.0,0.0,0.0,0.0,0.0,0.0,0.0,0.0,-3.5508,-3.5107,-3.4881,-3.4881,-3.4248,-3.3796,-3.3596,-3.3244,-3.3111,-3.3111,-3.3111,-3.3111,-3.3111,-3.3111,-3.3111,0.0,0.0,0.0,0.0,-3.0231,-3.0005,-3.0256,-2.993,-3.0005,-3.0256,-2.9905,-2.9804,-2.9804,-2.9804,-2.9804,-2.9804,-2.9804,-2.9804,-2.9804,-2.9804,-2.9804,-2.9804,-2.9804,-2.9804,-2.9804,-2.9804,-2.9804,-2.9804,-2.9804,-2.9804,-2.9804,-2.9804,-2.9503,-2.9026,-2.8247,-2.7821,-2.7379,-2.6625,-2.6499,-2.6499,-2.6499,-2.6499,-2.6499,-2.6499,-2.6499,-2.6499,-2.6499,-2.6499,-2.6223,-2.5485,-2.5234,-2.4958,-2.4632,-2.4406,-2.4123,-2.3747,-2.4098,-2.4406,-2.4607,-2.4933,-2.5209,-2.5435,-2.5435,-2.5435,-2.5435,-2.5435,-2.5611,0.0,-3.5519,-3.6776,-3.5579,-3.4771,-3.363,-3.1039,-2.8792,0.0,-2.5622,-2.3735,-2.2322,-2.2322,-2.1895,-2.1744,-2.2347,-2.2819,-2.3747,0.0,-2.7695,0.0,0.0,0.0,0.0,0.0,0.0,0.0,0.0,0.0,0.0,-3.5433,-3.4474,-3.3872,-3.3847,-3.3847,-3.3596,-3.3093,-3.3111,-3.3111,-3.3111,-3.3111,-3.3111,-3.3111,-3.3111,-3.3111,0.0,0.0,0.0,0.0,-3.0231,-2.9804,-2.9804,-2.9804,-2.9804,-2.9804,-2.9804,-2.9804,-2.9804,-2.9804,-2.9804,-2.9804,-2.9804,-2.9804,-2.9804,-2.9804,-2.9804,-2.9804,-2.9804,-2.9804,-2.9804,-2.9804,-2.9804,-2.9804,-2.9804,-2.9804,-2.9804,-2.9804,-2.9804,-2.9478,-2.8373,-2.8172,-2.7821,-2.6801,-2.66,-2.66,-2.66,-2.6575,-2.6549,-2.6549,-2.6524,-2.6499,-2.6499,-2.6499,-2.6499,-2.6499,-2.5996,-2.5636,-2.5586,-2.5134,-2.4825,-2.48,-2.4825,-2.5109,-2.5586,-2.5636,-2.5912,-2.6499,-2.6499,-2.6499,-2.6499,-2.6499,-2.6499,-2.9774,0.0,-3.3604,-3.3305,-3.2676,-3.1663,0.0,-2.7854,-2.6155,-2.4468,-2.3137,-2.2322,-2.2322,-2.2196,-2.2447,-2.3452,-2.3703,-2.4531,-2.659,0.0,0.0,0.0,0.0,0.0,0.0,0.0,0.0,0.0,0.0,-3.5307,-3.4881,-3.4274,-3.3696,-3.3294,-3.3269,-3.3219,-3.3111,-3.3111,-3.3111,-3.3111,-3.3111,-3.3111,-3.3111,-3.3111,-3.3111,0.0,0.0,0.0,-3.1311,-3.0231,-2.9804,-2.9804,-2.9804,-2.9804,-2.9804,-2.9804,-2.9804,-2.9804,-2.9804,-2.9804,-2.9804,-2.9804,-2.9804,-2.9804,-2.9804,-2.9804,-2.9804,-2.9804,-2.9804,-2.9804,-2.9804,-2.9804,-2.9804,-2.9804,-2.9804,-2.9804,-2.9804,-2.9804,-2.9578,-2.8838,-2.8687,-2.8524,-2.7846,-2.772,-2.772,-2.772,-2.7344,-2.7128,-2.7128,-2.6751,-2.6499,-2.6499,-2.6499,-2.6499,-2.6499,-2.6373,-2.6097,-2.5611,-2.5485,-2.5234,-2.48,-2.5209,-2.5485,-2.5586,-2.6072,-2.6348,-2.6499,-2.6499,-2.6499,-2.6499,-2.6499,-2.6499,-2.8517,-3.0073,-3.145,-3.0881,-3.0462,-2.9669,-2.7798,-2.618,-2.4778,-2.3527,-2.2389,-2.1644,-2.1895,-2.192,-2.2297,-2.3427,-2.4029,0.0,0.0,0.0,0.0,0.0,0.0,0.0,0.0,0.0,0.0,0.0,0.0,-3.4981,-3.4751,-3.3947,-3.3395,-3.3136,-3.3111,-3.3111,-3.3111,-3.3111,-3.3111,-3.3111,-3.3111,-3.3111,-3.3111,-3.3111,-3.3111,0.0,0.0,0.0,-3.1311,-3.0231,-2.9804,-2.9804,-2.9804,-2.9804,-2.9804,-2.9804,-2.9804,-2.9804,-2.9804,-2.9804,-2.9804,-2.9804,-2.9804,-2.9804,-2.9804,-2.9804,-2.9804,-2.9804,-2.9804,-2.9804,-2.9804,-2.9804,-2.9804,-2.9804,-2.9804,-2.9804,-2.9804,-2.9804,-2.9628,-2.9013,-2.8888,-2.8712,-2.8197,-2.8097,-2.8097,-2.8097,-2.7846,-2.757,-2.7318,-2.7052,-2.6776,-2.6524,-2.6499,-2.6499,-2.6499,-2.6499,-2.6373,-2.6047,-2.6021,-2.5862,-2.5586,-2.5837,-2.6021,-2.6021,-2.6323,-2.6499,-2.6499,-2.6499,-2.6499,-2.6499,-2.6499,-2.6625,-2.8248,-2.9295,-2.9983,-2.8996,-2.8757,-2.8297,-2.6539,-2.4986,-2.3759,-2.3124,-2.1952,-2.1174,-2.17,-2.1773,0.0,-2.3396,0.0,0.0,-3.0959,0.0,0.0,0.0,0.0,0.0,0.0,0.0,0.0,0.0,0.0,-3.463,-3.46,-3.3621,-3.3111,-3.3111,-3.3111,-3.3111,-3.3111,-3.3111,-3.3111,-3.3111,-3.3111,-3.3111,-3.3111,-3.3111,-3.3111,-3.3061,0.0,0.0,-3.1311,-3.0231,-2.9804,-2.9804,-2.9804,-2.9804,-2.9804,-2.9804,-2.9804,-2.9804,-2.9804,-2.9804,-2.9804,-2.9804,-2.9804,-2.9804,-2.9804,-2.9804,-2.9804,-2.9804,-2.9804,-2.9804,-2.9804,-2.9804,-2.9804,-2.9804,-2.9804,-2.9804,-2.9804,-2.9804,-2.9654,-2.9151,-2.9013,-2.8863,-2.8448,-2.8373,-2.8373,-2.8373,-2.8298,-2.8072,-2.7595,-2.7469,-2.7243,-2.6801,-2.6675,-2.6625,-2.6625,-2.6549,-2.6499,-2.6499,-2.6499,-2.6499,-2.6499,-2.6499,-2.6499,-2.6499,-2.6499,-2.6499,-2.6499,-2.6499,-2.6499,-2.6499,-2.6499,-2.6801,-2.7585,-2.8308,-2.8996,-2.9352,-2.9472,-2.9128,-2.7874,-2.648,-2.5159,-2.4177,-2.3194,-2.262,-2.3035,-2.2988,-2.3552,0.0,0.0,-2.9754,0.0,0.0,0.0,0.0,0.0,0.0,0.0,0.0,0.0,0.0,0.0,-3.4525,-3.4048,-3.342,-3.3111,-3.3111,-3.3111,-3.3111,-3.3111,-3.3111,-3.3111,-3.3111,-3.3111,-3.3111,-3.3111,-3.3111,-3.3111,-3.3061,0.0,-3.1386,-3.1311,-3.0231,-2.9804,-2.9804,-2.9804,-2.9804,-2.9804,-2.9804,-2.9804,-2.9804,-2.9804,-2.9804,-2.9804,-2.9804,-2.9804,-2.9804,-2.9804,-2.9804,-2.9804,-2.9804,-2.9804,-2.9804,-2.9804,-2.9804,-2.9804,-2.9804,-2.9804,-2.9804,-2.9804,-2.9804,-2.9754,-2.9679,-2.9654,-2.9628,-2.9553,-2.9528,-2.9528,-2.9528,-2.9126,-2.8737,-2.8637,-2.8273,-2.7946,-2.7871,-2.7444,-2.7203,-2.7203,-2.6776,-2.6499,-2.6499,-2.6499,-2.6499,-2.6499,-2.6499,-2.6499,-2.6499,-2.6499,-2.6499,-2.6499,-2.6499,-2.6499,-2.6499,-2.6499,-2.6801,-2.7405,-2.7824,-2.8334,-2.9352,-2.9621,-2.9304,-2.8302,-2.7089,-2.6008,-2.5216,-2.4334,-2.378,0.0,0.0,-2.5285,-2.7882,0.0,-3.0909,0.0,0.0,0.0,0.0,0.0,0.0,0.0,0.0,0.0,0.0,0.0,0.0,-3.3922,-3.337,-3.3111,-3.3111,-3.3111,-3.3111,-3.3111,-3.3111,-3.3111,-3.3111,-3.3111,-3.2918,-3.2616,-3.2616,-3.2441,-3.2114,0.0,-3.0959,-3.0909,-3.0105,-2.9804,-2.9804,-2.9804,-2.9804,-2.9804,-2.9804,-2.9804,-2.9804,-2.9804,-2.9804,-2.9804,-2.9804,-2.9804,-2.9804,-2.9804,-2.9804,-2.9804,-2.9804,-2.9804,-2.9804,-2.9804,-2.9804,-2.9804,-2.9804,-2.9804,-2.9804,-2.9804,-2.9804,-2.9804,-2.9804,-2.9804,-2.9804,-2.9804,-2.9804,-2.9804,-2.9804,-2.9578,-2.9277,-2.8938,-2.8662,-2.8423,-2.8147,-2.7871,-2.772,-2.772,-2.7218,-2.6826,-2.6524,-2.6499,-2.6499,-2.6499,-2.6499,-2.6499,-2.6499,-2.6499,-2.6499,-2.6499,-2.6801,-2.6927,-2.6952,-2.7253,-2.7645,-2.7195,-2.7255,-2.7465,-2.8813,-2.9382,-2.9421,-2.882,-2.8023,-2.7184,-2.6637,-2.5872,0.0,0.0,-2.6041,0.0,-2.9428,-3.0357,0.0,0.0,0.0,0.0,0.0,0.0,0.0,0.0,0.0,0.0,0.0,0.0,0.0,-3.3721,-3.3294,-3.3111,-3.3111,-3.3111,-3.3111,-3.3111,-3.3111,-3.3111,-3.3111,-3.2943,-3.2641,-3.2215,-3.2089,-3.1788,-3.1361,-3.0834,-3.0608,-3.0583,-3.003,-2.9804,-2.9804,-2.9804,-2.9804,-2.9804,-2.9804,-2.9804,-2.9804,-2.9804,-2.9804,-2.9804,-2.9804,-2.9804,-2.9804,-2.9804,-2.9804,-2.9804,-2.9804,-2.9804,-2.9804,-2.9804,-2.9804,-2.9804,-2.9804,-2.9804,-2.9804,-2.9804,-2.9804,-2.9804,-2.9804,-2.9804,-2.9804,-2.9804,-2.9804,-2.9804,-2.9804,-2.9804,-2.9628,-2.9176,-2.9126,-2.8938,-2.8549,-2.8373,-2.8247,-2.8122,-2.7595,-2.7128,-2.6725,-2.6575,-2.6499,-2.6499,-2.6499,-2.6499,-2.6499,-2.6499,-2.6549,-2.67,-2.7102,-2.7344,-2.7494,-2.7921,-2.8398,-2.6482,-2.6213,-2.6063,-2.7405,-2.8693,-2.9687,-3.0058,-2.9894,-2.9464,-2.8793,-2.8336,0.0,0.0,-2.8451,-2.8925,-2.9679,-3.0658,0.0,0.0,0.0,0.0,0.0,0.0,0.0,0.0,0.0,0.0,0.0,0.0,0.0,-3.3169,-3.3093,-3.3111,-3.3111,-3.3111,-3.3111,-3.3111,-3.3111,-3.3111,-3.3111,-3.2541,-3.2265,-3.219,-3.1687,-3.1436,-3.1361,-3.0834,-3.0608,-3.0583,-3.003,-2.9804,-2.9804,-2.9804,-2.9804,-2.9804,-2.9804,-2.9804,-2.9804,-2.9804,-2.9804,-2.9804,-2.9804,-2.9804,-2.9804,-2.9804,-2.9804,-2.9804,-2.9804,-2.9804,-2.9804,-2.9804,-2.9804,-2.9804,-2.9804,-2.9804,-2.9804,-2.9804,-2.9804,-2.9804,-2.9804,-2.9804,-2.9804,-2.9804,-2.9804,-2.9804,-2.9804,-2.9804,-2.9779,-2.9729,-2.9729,-2.9704,-2.9679,-2.9202,-2.8637,-2.8147,-2.7595,-2.7268,-2.7218,-2.6776,-2.6499,-2.6499,-2.6499,-2.6499,-2.6499,-2.6499,-2.6751,-2.7218,-2.7268,-2.7544,-2.8047,-2.8097,-2.8398,-2.7046,-2.6722,-2.6632,-2.8423,-2.9232,-2.9864,-3.0826,-3.1604,-3.2047,-3.1748,-3.1321,0.0,0.0,0.0,-2.9327,-3.0583,0.0,0.0,0.0,0.0,0.0,0.0,0.0,0.0,0.0,0.0,0.0,0.0,0.0,0.0,-3.3136,-3.3111,-3.3111,-3.3111,-3.3111,-3.3111,-3.3111,-3.2717,-3.2541,-3.2541,-3.2315,-3.1863,-3.121,-3.1009,-3.0708,-3.0382,-3.0181,-3.0105,-3.008,-2.988,-2.9804,-2.9804,-2.9804,-2.9804,-2.9804,-2.9804,-2.9804,-2.9804,-2.9804,-2.9804,-2.9804,-2.9804,-2.9804,-2.9804,-2.9804,-2.9804,-2.9804,-2.9804,-2.9804,-2.9804,-2.9804,-2.9804,-2.9804,-2.9804,-2.9804,-2.9804,-2.9804,-2.9804,-2.9804,-2.9804,-2.9804,-2.9804,-2.9804,-2.9804,-2.9804,-2.9804,-2.9804,-2.9804,-2.9804,-2.9804,-2.9804,-2.9804,-2.9603,-2.9227,-2.8674,-2.8423,-2.8172,-2.7821,-2.6977,-2.665,-2.6977,-2.7002,-2.7178,-2.7469,-2.7469,-2.7595,-2.7795,-2.8147,-2.8423,-2.8624,-2.8976,-2.9277,-2.7165,-2.6782,-2.6722,-2.8513,-2.9292,-2.9983,-3.1481,-3.2856,-3.3806,-3.3718,-3.3213,-3.2229,-3.0405,0.0,0.0,0.0,0.0,0.0,0.0,0.0,0.0,0.0,0.0,0.0,0.0,0.0,0.0,0.0,0.0,0.0,0.0,-3.3111,-3.2993,-3.2817,-3.2792,-3.2717,-3.2541,-3.2139,-3.1863,-3.1712,-3.1712,-3.1311,-3.0608,-3.0432,-3.0156,-2.9804,-2.9804,-2.9804,-2.9804,-2.9804,-2.9804,-2.9804,-2.9804,-2.9804,-2.9804,-2.9804,-2.9804,-2.9804,-2.9804,-2.9804,-2.9804,-2.9804,-2.9804,-2.9804,-2.9804,-2.9804,-2.9804,-2.9804,-2.9804,-2.9804,-2.9804,-2.9804,-2.9804,-2.9804,-2.9804,-2.9804,-2.9804,-2.9804,-2.9804,-2.9804,-2.9804,-2.9804,-2.9804,-2.9804,-2.9804,-2.9804,-2.9804,-2.9804,-2.9804,-2.9804,-2.9804,-2.9804,-2.9804,-2.9628,-2.9227,-2.8988,-2.8737,-2.8398,-2.7494,-2.7178,-2.7519,-2.7544,-2.772,-2.8097,-2.8097,-2.8197,-2.8373,-2.8712,-2.8988,-2.9164,-2.9603,-2.9804,-2.6602,-2.6123,-2.5944,-2.7285,-2.8633,-3.0133,-3.2078,-3.3544,-3.449,-3.4355,-3.3753,-3.2751,-3.0972,-3.0633,0.0,0.0,0.0,0.0,0.0,0.0,0.0,0.0,0.0,0.0,0.0,0.0,0.0,0.0,0.0,0.0,0.0,-3.3111,-3.2817,-3.224,-3.2215,-3.1938,-3.1411,-3.1386,-3.1135,-3.0608,-3.0608,-3.0608,-3.0583,-3.003,-2.9804,-2.9804,-2.9804,-2.9804,-2.9804,-2.9804,-2.9804,-2.9804,-2.9804,-2.9804,-2.9804,-2.9804,-2.9804,-2.9804,-2.9804,-2.9804,-2.9804,-2.9804,-2.9804,-2.9804,-2.9804,-2.9804,-2.9804,-2.9804,-2.9804,-2.9804,-2.9804,-2.9804,-2.9804,-2.9804,-2.9804,-2.9804,-2.9804,-2.9804,-2.9804,-2.9804,-2.9804,-2.9804,-2.9804,-2.9804,-2.9804,-2.9804,-2.9804,-2.9804,-2.9804,-2.9804,-2.9804,-2.9804,-2.9804,-2.9804,-2.9804,-2.9277,-2.8888,-2.8888,-2.8423,-2.8122,-2.8122,-2.8122,-2.8122,-2.8122,-2.8122,-2.8398,-2.8888,-2.8888,-2.9227,-2.9804,-2.9804,-2.9804,-2.7195,-2.75,-2.8038,-2.9325,-3.0283,-3.157,-3.4053,-3.528,-3.5862,0.0,-3.471,-3.3502,-3.201,0.0,0.0,0.0,0.0,0.0,0.0,0.0,0.0,0.0,0.0,0.0,0.0,0.0,0.0,0.0,0.0,0.0,0.0,-3.2692,-3.239,-3.2215,-3.1838,-3.1562,-3.1386,-3.1035,-3.0758,-3.0608,-3.0231,-3.003,-3.003,-2.9854,-2.9804,-2.9804,-2.9804,-2.9804,-2.9804,-2.9804,-2.9804,-2.9804,-2.9804,-2.9804,-2.9804,-2.9804,-2.9804,-2.9804,-2.9804,-2.9804,-2.9804,-2.9804,-2.9804,-2.9804,-2.9804,-2.9804,-2.9804,-2.9804,-2.9804,-2.9804,-2.9804,-2.9804,-2.9804,-2.9804,-2.9804,-2.9804,-2.9804,-2.9804,-2.9804,-2.9804,-2.9804,-2.9804,-2.9804,-2.9804,-2.9804,-2.9804,-2.9804,-2.9804,-2.9804,-2.9804,-2.9804,-2.9804,-2.9804,-2.9804,-2.9804,-2.9628,-2.9528,-2.9528,-2.9377,-2.9126,-2.8662,-2.8637,-2.8875,-2.9277,-2.9302,-2.9377,-2.9528,-2.9528,-2.9628,-2.9804,-2.9804,-2.9804,-2.7345,-2.8304,-2.9295,-3.0582,-3.1809,-3.3395,-3.6058,0.0,0.0,0.0,-3.529,-3.4015,-3.2491,-3.1938,0.0,0.0,0.0,0.0,0.0,0.0,0.0,0.0,0.0,0.0,0.0,0.0,0.0,0.0,0.0,0.0,0.0,-3.2064,-3.1788,-3.1587,-3.126,-3.0984,-3.0758,-3.0432,-3.0281,-3.0281,-2.9955,-2.9804,-2.9804,-2.9804,-2.9804,-2.9804,-2.9804,-2.9804,-2.9804,-2.9804,-2.9804,-2.9804,-2.9804,-2.9804,-2.9804,-2.9804,-2.9804,-2.9804,-2.9804,-2.9804,-2.9804,-2.9804,-2.9804,-2.9804,-2.9804,-2.9804,-2.9804,-2.9804,-2.9804,-2.9804,-2.9804,-2.9804,-2.9804,-2.9804,-2.9804,-2.9804,-2.9804,-2.9804,-2.9804,-2.9804,-2.9804,-2.9804,-2.9804,-2.9804,-2.9804,-2.9804,-2.9804,-2.9804,-2.9804,-2.9804,-2.9804,-2.9804,-2.9804,-2.9804,-2.9804,-2.9804,-2.9804,-2.9804,-2.9804,-2.9628,-2.9277,-2.9277,-2.9428,-2.9779,-2.9804,-2.9804,-2.9804,-2.9804,-2.9804,-2.9804,-2.9804,-2.9804,-2.7136,-2.8543,-2.9894,-3.1182,-3.3095,0.0,-3.7734,-3.7729,-3.702,-3.6337,0.0,-3.4462,-3.2617,0.0,0.0,0.0,0.0,0.0,0.0,0.0,0.0,0.0,0.0,0.0,0.0,0.0,0.0,0.0,0.0,0.0,0.0,-3.1336,-3.111,-3.0633,-3.0557,-3.0306,-2.9804,-2.9804,-2.9804,-2.9804,-2.9804,-2.9804,-2.9804,-2.9804,-2.9804,-2.9804,-2.9804,-2.9804,-2.9804,-2.9804,-2.9804,-2.9804,-2.9804,-2.9804,-2.9804,-2.9804,-2.9804,-2.9804,-2.9804,-2.9804,-2.9804,-2.9804,-2.9804,-2.9804,-2.9804,-2.9804,-2.9804,-2.9804,-2.9804,-2.9804,-2.9804,-2.9804,-2.9804,-2.9804,-2.9804,-2.9804,-2.9804,-2.9804,-2.9804,-2.9804,-2.9804,-2.9804,-2.9804,-2.9804,-2.9804,-2.9854,-2.9905,-2.993,-2.993,-2.993,-2.993,-2.988,-2.9854,-2.9854,-2.9804,-2.9804,-2.9804,-2.9804,-2.9804,-2.9804,-2.9804,-2.9804,-2.9804,-2.9804,-2.9804,-2.9804,-2.9804,-2.9804,-2.9804,-2.9804,-2.9804,-2.9829,-2.6452,-2.8184,0.0,-3.1182,-3.3814,-3.6327,-3.7375,-3.7369,-3.702,-3.6337,-3.5548,-3.4594,0.0,0.0,0.0,0.0,0.0,0.0,0.0,0.0,0.0,0.0,0.0,0.0,0.0,0.0,0.0,0.0,0.0,0.0,-3.1411,-3.1009,-3.0733,-3.0608,-3.0206,-2.9905,-2.9804,-2.9804,-2.9804,0.0,-2.9804,-2.9804,-2.9804,-2.9804,-2.9804,-2.9804,-2.9804,-2.9804,-2.9804,-2.9804,-2.9804,-2.9804,-2.9804,-2.9804,-2.9804,-2.9804,-2.9804,-2.9804,-2.9804,-2.9804,-2.9804,-2.9804,-2.9804,-2.9804,-2.9804,-2.9804,-2.9804,-2.9804,-2.9804,-2.9804,-2.9804,-2.9804,-2.9804,-2.9804,-2.9804,-2.9804,-2.9804,-2.9804,-2.9804,-2.9804,-2.9804,-2.9804,-2.9804,-2.9804,-2.993,-3.0382,-3.0783,-3.106,-3.106,-3.106,-3.0884,-3.0482,-3.0432,-3.0256,-2.9829,-2.9804,-2.9804,-2.9804,-2.9804,-2.9804,-2.9804,-2.9804,-2.9804,-2.9804,-2.9804,-2.9804,-2.9804,-2.9804,-2.9804,-2.9804,-2.9804,-3.003,-2.6063,-2.8094,0.0,-3.2796,0.0,-3.6357,-3.7584,-3.7552,-3.702,-3.6337,-3.5548,0.0,0.0,0.0,0.0,0.0,0.0,0.0,0.0,0.0,0.0,0.0,0.0,0.0,0.0,0.0,0.0,0.0,0.0,-3.0909,-3.0633,-3.0357,-3.0231,-3.0231,-2.9955,-2.9804,-2.9804,-2.9804,-2.9804,-2.9804,-2.9804,-2.9804,-2.9804,-2.9804,-2.9804,-2.9804,-2.9804,-2.9804,-2.9804,-2.9804,-2.9804,-2.9804,-2.9804,-2.9804,-2.9804,-2.9804,-2.9804,-2.9804,-2.9804,-2.9804,-2.9804,-2.9804,-2.9804,-2.9804,-2.9804,-2.9804,-2.9804,-2.9804,-2.9804,-2.9804,-2.9804,-2.9804,-2.9804,-2.9804,-2.9804,-2.9804,-2.9804,-2.9804,-2.9804,-2.9804,-2.9804,-2.9804,-2.9804,-3.0005,-3.0382,-3.0909,-3.121,-3.1386,-3.1386,-3.1386,-3.1286,-3.1009,-3.0758,-3.0507,-3.0206,-2.9955,-2.9804,-2.9804,-2.9804,-2.9804,-2.9804,-2.9804,-2.9804,-2.9804,-2.9804,-2.9804,-2.9804,-2.9804,-2.9804,-2.9804,-3.0055,-3.0331,-2.5585,-2.7949,-3.0582,-3.4113,-3.5128,0.0,-3.7425,-3.7269,-3.6556,-3.5953,0.0,0.0,0.0,0.0,0.0,0.0,0.0,0.0,0.0,0.0,0.0,0.0,0.0,0.0,0.0,0.0,0.0,0.0,0.0,-3.0281,-2.9804,-2.9804,-2.9804,-2.9804,-2.9804,-2.9804,-2.9804,-2.9804,-2.9804,-2.9804,-2.9804,-2.9804,-2.9804,-2.9804,-2.9804,-2.9804,-2.9804,-2.9804,-2.9804,-2.9804,-2.9804,-2.9804,-2.9804,-2.9804,-2.9804,-2.9804,-2.9804,-2.9804,-2.9804,-2.9804,-2.9804,-2.9804,-2.9804,-2.9804,-2.9804,-2.9804,-2.9804,-2.9804,-2.9804,-2.9804,-2.9804,-2.9804,-2.9804,-2.9804,-2.9804,-2.9804,-2.9804,-2.9804,-2.9804,-2.9804,-2.9854,-2.993,-2.993,-3.0457,-3.1035,-3.1461,-3.1612,-3.1687,-3.1687,-3.1687,-3.1637,-3.1537,-3.116,-3.0859,-3.0758,-3.0331,-3.008,-3.008,-3.008,-3.008,-3.008,-3.008,-3.008,-3.008,-2.988,-2.9804,-2.9804,-2.9804,-2.9854,-2.9955,-3.0407,-3.0708,-2.4306,0.0,-3.0791,0.0,-3.363,-3.4545,0.0,0.0,-3.4735,0.0,0.0,0.0,0.0,0.0,0.0,0.0,0.0,0.0,0.0,0.0,0.0,0.0,0.0,0.0,0.0,0.0,0.0,0.0,-3.0181,-2.988,-2.9804,-2.9804,-2.9804,-2.9804,-2.9804,-2.9804,-2.9804,-2.9804,-2.9804,-2.9804,-2.9804,-2.9804,-2.9804,-2.9804,-2.9804,-2.9804,-2.9804,-2.9804,-2.9804,-2.9804,-2.9804,-2.9804,-2.9804,-2.9804,-2.9804,-2.9804,-2.9804,-2.9804,-2.9804,-2.9804,-2.9804,-2.9804,-2.9804,-2.9804,-2.9804,-2.9804,-2.9804,-2.9804,-2.9804,-2.9804,-2.9804,-2.9804,-2.9804,-2.9804,-2.9804,-2.9804,-2.9804,-2.9804,-2.9804,-2.9804,-3.0181,-3.0507,-3.0507,-3.1336,-3.2014,-3.2089,-3.2541,-3.2842,-3.2842,-3.2842,-3.2667,-3.2164,-3.2039,-3.1813,-3.1336,-3.121,-3.1185,-3.1185,-3.1185,-3.1185,-3.1185,-3.1185,-3.1185,-3.1185,-3.0256,-2.9804,-2.9804,-2.9804,-3.003,-3.0507,-3.0583,-3.111,-2.4896,-2.756,-2.9924,0.0,-3.2764,-3.3227,-3.4155,0.0,-3.362,0.0,0.0,0.0,0.0,0.0,0.0,0.0,0.0,0.0,0.0,0.0,0.0,0.0,0.0,0.0,0.0,0.0,0.0,0.0,-2.993,-2.9804,-2.9804,-2.9804,-2.9804,-2.9804,-2.9804,-2.9804,-2.9804,-2.9804,-2.9804,-2.9804,-2.9804,-2.9804,-2.9804,-2.9804,-2.9804,-2.9804,-2.9804,-2.9804,-2.9804,-2.9804,-2.9804,-2.9804,-2.9804,-2.9804,-2.9804,-2.9804,-2.9804,-2.9804,-2.9804,-2.9804,-2.9804,-2.9804,-2.9804,-2.9804,-2.9804,-2.9804,-2.9854,-3.0156,-3.0256,-3.0331,-3.0608,-3.0683,-3.0683,-3.0683,-3.0683,-3.0683,-3.0683,-3.0206,-2.988,-3.0206,-3.0457,-3.0809,-3.1411,-3.1913,-3.2315,-3.2641,-3.2918,-3.3111,-3.3111,-3.3111,-3.2993,-3.2717,-3.2416,-3.2114,-3.1863,-3.1562,-3.1386,-3.1386,-3.1386,-3.1386,-3.1386,-3.1386,-3.1386,-3.1386,-3.0934,-3.0683,-3.0683,-3.0683,-3.0809,-3.106,-3.1361,-3.1763,0.0,0.0,-2.8453,-3.0742,-3.1367,-3.1675,0.0,0.0,0.0,0.0,0.0,0.0,0.0,0.0,0.0,0.0,0.0,0.0,0.0,0.0,0.0,0.0,0.0,0.0,0.0,0.0,0.0,0.0,-2.9804,-2.9804,-2.9804,-2.9804,-2.9804,-2.9804,-2.9804,-2.9804,-2.9804,-2.9804,-2.9804,-2.9804,-2.9804,-2.9804,-2.9804,-2.9804,-2.9804,-2.9804,-2.9804,-2.9804,-2.9804,-2.9804,-2.9804,-2.9804,-2.9804,-2.9804,-2.9804,-2.9804,-2.9804,-2.9804,-2.9804,-2.9804,-2.9804,-2.9804,-2.9804,-2.9804,-2.9804,-2.9804,-2.9905,-3.0457,-3.0608,-3.0733,-3.126,-3.1386,-3.1386,-3.1386,-3.1386,-3.1386,-3.1386,-3.0758,-3.0306,-3.0733,-3.0934,-3.126,-3.2064,-3.234,-3.2566,-3.3061,-3.3111,-3.3111,-3.3111,-3.3111,-3.3111,-3.3111,-3.2692,-3.2441,-3.2441,-3.2064,-3.1813,-3.1813,-3.1813,-3.1813,-3.1813,-3.1813,-3.1813,-3.1813,-3.1813,-3.1687,-3.1386,-3.1386,-3.1461,-3.1612,-3.2014,-3.229,0.0,-2.4591,0.0,-2.771,-2.9001,0.0,0.0,0.0,0.0,0.0,0.0,0.0,0.0,0.0,0.0,0.0,0.0,0.0,0.0,0.0,0.0,0.0,0.0,0.0,0.0,0.0,0.0,0.0,-2.9804,-2.9804,-2.9804,-2.9804,-2.9804,-2.9804,-2.9804,-2.9804,-2.9804,-2.9804,-2.9804,-2.9804,-2.9804,-2.9804,-2.9804,-2.9804,-2.9804,-2.9804,-2.9804,-2.9804,-2.9804,-2.9804,-2.9804,-2.9804,-2.9804,-2.9804,-2.9804,-2.9804,-2.9804,-2.9804,-2.9804,-2.9804,-2.9804,-2.9804,-2.9804,-2.9804,-2.9804,-2.9804,-2.9905,-3.0457,-3.0608,-3.0733,-3.126,-3.1386,-3.1386,-3.1386,-3.1386,-3.1386,-3.1386,-3.1361,-3.1311,-3.1336,-3.1763,-3.2139,-3.2215,-3.2667,-3.3043,-3.3111,-3.3111,-3.3111,-3.3111,-3.3111,-3.3111,-3.3111,-3.3043,-3.3043,-3.3043,-3.3061,-3.2993,-3.2993,-3.2993,-3.2993,-3.2993,-3.2993,-3.2993,-3.2993,-3.2993,-3.2466,-3.1386,-3.1386,-3.1662,-3.2164,-3.219,-3.2516,0.0,0.0,0.0,-2.5519,-2.6385,-2.7014,0.0,0.0,0.0,0.0,0.0,0.0,0.0,0.0,0.0,0.0,0.0,0.0,0.0,0.0,0.0,0.0,0.0,0.0,0.0,0.0,0.0,0.0,0.0,-2.9804,-2.9804,-2.9804,-2.9804,-2.9804,-2.9804,-2.9804,-2.9804,-2.9804,-2.9804,-2.9804,-2.9804,-2.9804,-2.9804,-2.9804,-2.9804,-2.9804,-2.9804,-2.9804,-2.9804,-2.9804,-2.9804,-2.9804,-2.9804,-2.9804,-2.9804,-2.9804,-2.9804,-2.9804,-2.9804,-2.9804,-2.9854,-3.0206,-3.0306,-3.0382,-3.0708,-3.0809,-3.0934,-3.1486,-3.1637,-3.1763,-3.234,-3.2466,-3.2466,-3.2466,-3.2466,-3.2466,-3.2466,-3.1913,-3.1486,-3.1863,-3.2089,-3.234,-3.2692,-3.2943,-3.3111,-3.3111,-3.3111,-3.3111,-3.3111,-3.3111,-3.3111,-3.3111,-3.3111,-3.3111,-3.3111,-3.3111,-3.3111,-3.3111,-3.3111,-3.3111,-3.3111,-3.3111,-3.3111,-3.3111,-3.3111,-3.291,-3.2466,-3.2466,-3.2566,-3.2767,-3.2767,-3.2867,-1.9795,0.0,0.0,0.0,0.0,-2.4524,0.0,0.0,0.0,0.0,0.0,0.0,0.0,0.0,0.0,0.0,0.0,0.0,0.0,0.0,0.0,0.0,0.0,0.0,0.0,0.0,0.0,0.0,0.0,0.0,-2.9804,-2.9804,-2.9804,-2.9804,-2.9804,-2.9804,-2.9804,-2.9804,-2.9804,-2.9804,-2.9804,-2.9804,-2.9804,-2.9804,-2.9804,-2.9804,-2.9804,-2.9804,-2.9804,-2.9804,-2.9804,-2.9804,-2.9804,-2.9804,-2.9804,-2.9804,-2.9804,-2.9804,-2.9804,-2.9905,-3.0131,-3.0507,-3.0733,-3.0934,-3.1286,-3.1386,-3.1512,-3.2064,-3.2215,-3.234,-3.2918,-3.3111,-3.3111,-3.3111,-3.3111,-3.3111,-3.3111,-3.2533,-3.2064,-3.2441,-3.2516,-3.2616,-3.3061,-3.3111,-3.3111,-3.3111,-3.3111,-3.3111,-3.3111,-3.3111,-3.3111,-3.3111,-3.3111,-3.3111,-3.3111,-3.3111,-3.3111,-3.3111,-3.3111,-3.3111,-3.3111,-3.3111,-3.3111,-3.3111,-3.3111,-3.3111,-3.3111,-3.3111,-3.3111,-3.3111,-3.3111,-3.3111,0.0,0.0,0.0,0.0,0.0,0.0,0.0,0.0,0.0,0.0,0.0,0.0,0.0,0.0,0.0,0.0,0.0,0.0,0.0,0.0,0.0,0.0,0.0,0.0,0.0,0.0,0.0,0.0,-2.9804,-2.9804,-2.9804,-2.9804,-2.9804,-2.9804,-2.9804,-2.9804,-2.9804,-2.9804,-2.9804,-2.9804,-2.9804,-2.9804,-2.9804,-2.9804,-2.9804,-2.9804,-2.9804,-2.9804,-2.9804,-2.9804,-2.9804,-2.9804,-2.9804,-2.9804,-2.9804,-2.9804,-2.9804,-2.9804,-2.9804,-3.0156,-3.0633,-3.0658,-3.1009,-3.1411,-3.1436,-3.1436,-3.1537,-3.2089,-3.224,-3.2365,-3.2943,-3.3111,-3.3111,-3.3111,-3.3111,-3.3111,-3.3111,-3.3111,-3.3111,-3.3111,-3.3111,-3.3111,-3.3111,-3.3111,-3.3111,-3.3111,-3.3111,-3.3111,-3.3111,-3.3111,-3.3111,-3.3111,-3.3111,-3.3111,-3.3111,-3.3111,-3.3111,-3.3111,-3.3111,-3.3111,-3.3111,-3.3111,-3.3111,-3.3111,-3.3111,-3.3111,-3.3111,-3.3111,-3.3111,-3.3111,-3.3111,-3.3111,-1.685,0.0,0.0,0.0,0.0,0.0,0.0,0.0,0.0,0.0,0.0,0.0,0.0,0.0,0.0,0.0,0.0,0.0,0.0,0.0,0.0,0.0,0.0,0.0,0.0,0.0,0.0,0.0,-2.9804,-2.9804,-2.9804,-2.9804,-2.9804,-2.9804,-2.9804,-2.9804,-2.9804,-2.9804,-2.9804,-2.9804,-2.9804,-2.9804,-2.9804,-2.9804,-2.9804,-2.9804,-2.9804,-2.9804,-2.9804,-2.9804,-2.9804,-2.9804,-2.9804,-2.9804,-2.9804,-2.9804,-2.9804,-2.9854,-3.0256,-3.0482,-3.0733,-3.1512,-3.1863,-3.2064,-3.2491,-3.2616,-3.2641,-3.2792,-3.2842,-3.2867,-3.3086,-3.3111,-3.3111,-3.3111,-3.3111,-3.3111,-3.3111,-3.3111,-3.3111,-3.3111,-3.3111,-3.3111,-3.3111,-3.3111,-3.3111,-3.3111,-3.3111,-3.3111,-3.3111,-3.3111,-3.3111,-3.3111,-3.3111,-3.3111,-3.3111,-3.3111,-3.3111,-3.3111,-3.3111,-3.3111,-3.3111,-3.3111,-3.3111,-3.3111,-3.3111,-3.3111,-3.3111,-3.3111,-3.3111,-3.3111,-3.3111,-3.3111,-1.7102,-1.7049,0.0,0.0,0.0,0.0,0.0,-2.0439,0.0,0.0,0.0,0.0,0.0,0.0,0.0,0.0,0.0,0.0,0.0,0.0,0.0,0.0,0.0,0.0,0.0,-2.9804,-2.9804,-2.9804,-2.9804,-2.9804,-2.9804,-2.9804,-2.9804,-2.9804,-2.9804,-2.9804,-2.9804,-2.9804,-2.9804,-2.9804,-2.9804,-2.9804,-2.9804,-2.9804,-2.9804,-2.9804,-2.9804,-2.9804,-2.9804,-2.9804,-2.9804,-2.9804,-2.9804,-2.9804,-2.9804,-2.9804,-2.9804,-2.988,-3.0432,-3.0758,-3.1085,-3.1938,-3.2365,-3.2641,-3.2968,-3.3111,-3.3111,-3.3111,-3.3111,-3.3111,-3.3111,-3.3111,-3.3111,-3.3111,-3.3111,-3.3111,-3.3111,-3.3111,-3.3111,-3.3111,-3.3111,-3.3111,-3.3111,-3.3111,-3.3111,-3.3111,-3.3111,-3.3111,-3.3111,-3.3111,-3.3111,-3.3111,-3.3111,-3.3111,-3.3111,-3.3111,-3.3111,-3.3111,-3.3111,-3.3111,-3.3111,-3.3111,-3.3111,-3.3111,-3.3111,-3.3111,-3.3111,-3.3111,-3.3111,-3.3111,-3.3111,-3.3111,-1.8204,-1.7852,-1.7473,0.0,0.0,0.0,-1.7928,-1.9258,0.0,0.0,0.0,0.0,0.0,0.0,0.0,0.0,0.0,0.0,0.0,0.0,0.0,0.0,0.0,0.0,-2.9804,-2.9804,-2.9804,-2.9804,-2.9804,-2.9804,-2.9804,-2.9804,-2.9804,-2.9804,-2.9804,-2.9804,-2.9804,-2.9804,-2.9804,-2.9804,-2.9804,-2.9804,-2.9804,-2.9804,-2.9804,-2.9804,-2.9804,-2.9804,-2.9804,-2.9804,-2.9804,-2.9804,-2.9804,-2.9804,-2.9804,-2.9804,-2.9804,-2.988,-3.0482,-3.1009,-3.1486,-3.2114,-3.2641,-3.3111,-3.3111,-3.3111,-3.3111,-3.3111,-3.3111,-3.3111,-3.3111,-3.3111,-3.3111,-3.3111,-3.3111,-3.3111,-3.3111,-3.3111,-3.3111,-3.3111,-3.3111,-3.3111,-3.3111,-3.3111,-3.3111,-3.3111,-3.3111,-3.3111,-3.3111,-3.3111,-3.3111,-3.3111,-3.3111,-3.3111,-3.3111,-3.3111,-3.3111,-3.3111,-3.3111,-3.3111,-3.3111,-3.3111,-3.3111,-3.3111,-3.3111,-3.3111,-3.3111,-3.3111,-3.3111,-3.3111,-3.3111,-3.3111,-1.8204,-1.8129,-1.7928,-1.7524,0.0,0.0,-1.6923,-1.7802,-1.8882,0.0,0.0,0.0,0.0,0.0,0.0,0.0,0.0,0.0,0.0,0.0,0.0,0.0,0.0,0.0,-2.9804,-2.9804,-2.9804,-2.9804,-2.9804,-2.9804,-2.9804,-2.9804,-2.9804,-2.9804,-2.9804,-2.9804,-2.9804,-2.9804,-2.9804,-2.9804,-2.9804,-2.9804,-2.9804,-2.9804,-2.9804,-2.9804,-2.9804,-2.9804,-2.9804,-2.9804,-2.9804,-2.9804,-2.9804,-2.9804,-2.9804,-2.9804,-2.9804,-2.993,-3.0909,-3.1311,-3.1562,-3.2566,-3.2993,-3.3111,-3.3111,-3.3111,-3.3111,-3.3111,-3.3111,-3.3111,-3.3111,-3.3111,-3.3111,-3.3111,-3.3111,-3.3111,-3.3111,-3.3111,-3.3111,-3.3111,-3.3111,-3.3111,-3.3111,-3.3111,-3.3111,-3.3111,-3.3111,-3.3111,-3.3111,-3.3111,-3.3111,-3.3111,-3.3111,-3.3111,-3.3111,-3.3111,-3.3111,-3.3111,-3.3111,-3.3111,-3.3111,-3.3111,-3.3111,-3.3111,-3.3111,-3.3111,-3.3111,-3.3111,-3.3111,-3.3111,-3.3111,-3.3111,-1.9836,-1.9434,-1.8882,-1.8329,0.0,0.0,0.0,-1.7378,-1.8355,-1.8882,0.0,0.0,0.0,0.0,0.0,0.0,0.0,0.0,0.0,0.0,0.0,0.0,0.0,0.0,-2.895,-2.895,-2.895,-2.895,-2.895,-2.9076,-2.9352,-2.9352,-2.9503,-2.9779,-2.9804,-2.9804,-2.9804,-2.9804,-2.9804,-2.9804,-2.9804,-2.9804,-2.9804,-2.9804,-2.9804,-2.9804,-2.9804,-2.9804,-2.9804,-2.9804,-2.9804,-2.9804,-2.9804,-2.9804,-2.9804,-2.9804,-2.9955,-3.0306,-3.111,-3.1562,-3.1938,-3.2835,-3.3111,-3.3111,-3.3111,-3.3111,-3.3111,-3.3111,-3.3111,-3.3111,-3.3111,-3.3111,-3.3111,-3.3111,-3.3111,-3.3111,-3.3111,-3.3111,-3.3111,-3.3111,-3.3111,-3.3111,-3.3111,-3.3111,-3.3111,-3.3111,-3.3111,-3.3111,-3.3111,-3.3111,-3.3111,-3.3111,-3.3111,-3.3111,-3.3111,-3.3111,-3.3111,-3.3111,-3.3111,-3.3111,-3.3111,-3.3111,-3.3111,-3.3111,-3.3111,-3.3111,-3.3111,-3.3111,-3.3111,-3.3111,-3.3111,-3.3111,0.0,0.0,0.0,0.0,0.0,-1.735,0.0,0.0,0.0,-1.8581,0.0,0.0,0.0,0.0,0.0,0.0,0.0,0.0,0.0,0.0,0.0,0.0,0.0,0.0,0.0,-2.7946,-2.7896,-2.7795,-2.7896,-2.8147,-2.8562,-2.8787,-2.9113,-2.9603,-2.9729,-2.9804,-2.9804,-2.9804,-2.9804,-2.9804,-2.9804,-2.9804,-2.9804,-2.9804,-2.9804,-2.9804,-2.9804,-2.9804,-2.9804,-2.9804,-2.9804,-2.9804,-2.9804,-2.9804,-2.9804,-2.9905,-3.0231,-3.0708,-3.1336,-3.1838,-3.2315,-3.2893,-3.3111,-3.3111,-3.3111,-3.3111,-3.3111,-3.3111,-3.3111,-3.3111,-3.3111,-3.3111,-3.3111,-3.3111,-3.3111,-3.3111,-3.3111,-3.3111,-3.3111,-3.3111,-3.3111,-3.3111,-3.3111,-3.3111,-3.3111,-3.3111,-3.3111,-3.3111,-3.3111,-3.3212,-3.3244,-3.3244,-3.3345,-3.3395,-3.3395,-3.3395,-3.3345,-3.3244,-3.3244,-3.3237,-3.3093,-3.3212,-3.3294,-3.3395,-3.3395,-3.3395,-3.3395,-3.3395,-3.3294,-3.3111,-3.3111,-3.3111,0.0,0.0,0.0,0.0,-1.8531,0.0,0.0,0.0,-1.7524,-1.7574,0.0,0.0,0.0,0.0,0.0,0.0,0.0,0.0,0.0,0.0,0.0,0.0,0.0,0.0,0.0,-2.7369,-2.7168,-2.6725,-2.7128,-2.7394,-2.7469,-2.8398,-2.8913,-2.8988,-2.9528,-2.9804,-2.9804,-2.9804,-2.9804,-2.9804,-2.9804,-2.9804,-2.9804,-2.9804,-2.9804,-2.9804,-2.9804,-2.9804,-2.9804,-2.9804,-2.9804,-2.9804,-2.9804,-2.9804,-2.9854,-3.0331,-3.0557,-3.0758,-3.1763,-3.2164,-3.2315,-3.2893,-3.3111,-3.3111,-3.3111,-3.3111,-3.3111,-3.3111,-3.3111,-3.3111,-3.3111,-3.3111,-3.3111,-3.3111,-3.3111,-3.3111,-3.3111,-3.3111,-3.3111,-3.3111,-3.3111,-3.3111,-3.3111,-3.3111,-3.3111,-3.3111,-3.3111,-3.3111,-3.3111,-3.3495,-3.3796,-3.3796,-3.4248,-3.4525,-3.4525,-3.4525,-3.4324,-3.3847,-3.3796,-3.3596,-3.3136,-3.3545,-3.4048,-3.4525,-3.4525,-3.4525,-3.4525,-3.4525,-3.4022,-3.3111,-3.3111,-3.3111,0.0,0.0,0.0,0.0,0.0,0.0,-1.7275,0.0,-1.843,0.0,0.0,0.0,0.0,0.0,0.0,0.0,0.0,0.0,0.0,0.0,0.0,0.0,0.0,0.0,0.0,0.0,0.0,0.0,-2.5435,-2.5787,-2.6776,-2.7544,-2.8273,-2.8863,-2.9176,-2.9453,-2.9804,-2.9804,-2.9804,-2.9804,-2.9804,-2.9804,-2.9804,-2.9804,-2.9804,-2.9804,-2.9804,-2.9804,-2.9804,-2.9804,-2.9804,-2.9804,-2.9804,-2.9804,-2.9854,-3.0407,-3.0809,-3.116,-3.1938,-3.2441,-3.2742,-3.2993,-3.3111,-3.3111,-3.3111,-3.3111,-3.3111,-3.3111,-3.3111,-3.3111,-3.3111,-3.3111,-3.3111,-3.3111,-3.3111,-3.3111,-3.3111,-3.3111,-3.3111,-3.3111,-3.3111,-3.3111,-3.3111,-3.3111,-3.3111,-3.3111,-3.3111,-3.3111,-3.3111,-3.3571,-3.3897,-3.3897,-3.4399,-3.468,-3.468,-3.468,-3.4625,-3.4399,-3.4374,-3.4274,-3.4048,-3.4248,-3.4474,-3.4726,-3.468,-3.468,-3.468,-3.468,-3.4474,-3.4022,-3.4022,-3.4022,-2.3346,0.0,0.0,0.0,0.0,0.0,0.0,0.0,0.0,0.0,0.0,0.0,0.0,0.0,0.0,0.0,0.0,0.0,0.0,0.0,0.0,0.0,0.0,0.0,0.0,0.0,0.0,0.0,0.0,-2.4582,-2.5971,-2.6851,-2.772,-2.8637,-2.8813,-2.9202,-2.9779,-2.9804,-2.9804,-2.9804,-2.9804,-2.9804,-2.9804,-2.9804,-2.9804,-2.9804,-2.9804,-2.9804,-2.9804,-2.9804,-2.9804,-2.9804,-2.9804,-2.9804,-2.988,-3.0583,-3.106,-3.1486,-3.2215,-3.2717,-3.3111,-3.3111,-3.3111,-3.3111,-3.3111,-3.3111,-3.3111,-3.3111,-3.3111,-3.3111,-3.3111,-3.3111,-3.3111,-3.3111,-3.3111,-3.3111,-3.3111,-3.3111,-3.3111,-3.3111,-3.3111,-3.3111,-3.3111,-3.3111,-3.3111,-3.3111,-3.3111,-3.3144,-3.3294,-3.3796,-3.4173,-3.4324,-3.4851,-3.5177,-3.5177,-3.5177,-3.5102,-3.4906,-3.4756,-3.4801,-3.4906,-3.4906,-3.5027,-3.5177,-3.5177,-3.5177,-3.5177,-3.5177,-3.5177,-3.5152,-3.4851,-3.468,0.0,0.0,0.0,-2.0087,0.0,0.0,0.0,0.0,-1.9786,0.0,0.0,0.0,0.0,0.0,0.0,0.0,0.0,0.0,0.0,0.0,0.0,0.0,0.0,0.0,0.0,0.0,0.0,0.0,-2.3401,0.0,-2.48,-2.6414,-2.7544,-2.8122,-2.8612,-2.9202,-2.9779,-2.9804,-2.9804,-2.9804,-2.9804,-2.9804,-2.9804,-2.9804,-2.9804,-2.9804,-2.9804,-2.9804,-2.9804,-2.9804,-2.9804,-2.9804,-2.9804,-2.9804,-2.993,-3.0984,-3.1386,-3.1537,-3.2667,-3.3068,-3.3111,-3.3111,-3.3111,-3.3111,-3.3111,-3.3111,-3.3111,-3.3111,-3.3111,-3.3111,-3.3111,-3.3111,-3.3111,-3.3111,-3.3111,-3.3111,-3.3111,-3.3111,-3.3111,-3.3111,-3.3111,-3.3111,-3.3111,-3.3111,-3.3111,-3.3111,-3.3111,-3.3269,-3.3796,-3.4349,-3.4856,-3.5382,-3.5981,-3.6355,-3.6355,-3.6355,-3.6081,-3.5508,-3.4981,-3.4906,-3.5458,-3.5483,-3.5755,-3.6355,-3.6355,-3.6355,-3.6355,-3.6355,-3.6355,-3.6329,-3.5203,-3.468,0.0,0.0,-2.1769,-2.0691,0.0,0.0,0.0,0.0,0.0,0.0,0.0,0.0,0.0,0.0,0.0,0.0,0.0,0.0,0.0,0.0,0.0,0.0,0.0,0.0,0.0,0.0,0.0,0.0,-2.2322,0.0,-2.47,-2.5661,-2.6766,-2.8072,-2.8298,-2.8825,-2.9779,-2.9804,-2.9804,-2.9804,-2.9804,-2.9804,-2.9804,-2.9804,-2.9804,-2.9804,-2.9804,-2.9804,-2.9804,-2.9804,-2.9804,-2.9804,-2.9804,-2.9804,-2.993,-3.0984,-3.1386,-3.1537,-3.2692,-3.3111,-3.3111,-3.3111,-3.3111,-3.3111,-3.3111,-3.3111,-3.3111,-3.3111,-3.3111,-3.3111,-3.3111,-3.3111,-3.3111,-3.3111,-3.3111,-3.3111,-3.3111,-3.3111,-3.3111,-3.3111,-3.3111,-3.3194,-3.3571,-3.3621,-3.3621,-3.3621,-3.3922,-3.4223,-3.4424,-3.4881,-3.5282,-3.5483,-3.6031,-3.6405,-3.6405,-3.6405,-3.6329,-3.6107,-3.5906,-3.5881,-3.6081,-3.6081,-3.6182,-3.6405,-3.6405,-3.6405,-3.6405,-3.6405,-3.6405,-3.6405,-3.5981,-3.5805,-2.4582,-2.3753,0.0,-2.1769,-2.1393,0.0,-2.0112,0.0,0.0,0.0,0.0,0.0,0.0,0.0,0.0,0.0,0.0,0.0,0.0,0.0,0.0,0.0,0.0,0.0,0.0,0.0,-2.0993,-2.1669,-2.1568,0.0,0.0,0.0,-2.6088,-2.777,-2.7996,-2.8649,-2.9779,-2.9804,-2.9804,-2.9804,-2.9804,-2.9804,-2.9804,-2.9804,-2.9804,-2.9804,-2.9804,-2.9804,-2.9804,-2.9804,-2.9804,-2.9804,-2.9804,-2.9905,-3.0181,-3.106,-3.1637,-3.2089,-3.286,-3.3111,-3.3111,-3.3111,-3.3111,-3.3111,-3.3111,-3.3111,-3.3111,-3.3111,-3.3111,-3.3111,-3.3111,-3.3111,-3.3111,-3.3111,-3.3111,-3.3111,-3.3111,-3.3111,-3.3111,-3.3111,-3.3244,-3.347,-3.3847,-3.4223,-3.4424,-3.4223,-3.45,-3.4756,-3.4931,-3.5282,-3.5583,-3.5805,-3.6157,-3.6405,-3.6405,-3.6405,-3.6405,-3.6405,-3.6405,-3.6405,-3.6405,-3.6405,-3.6405,-3.6405,-3.6405,-3.6405,-3.6405,-3.6405,-3.6405,-3.6405,-3.6405,-3.6405]},{"header":{"parameterUnit":"m.s-1","parameterCategory":1,"la1":30.6,"la2":29.2853,"lo1":-89.7004,"lo2":-87.6739,"dy":0.0162,"dx":0.0183,"nx":112,"ny":82,"refTime":"2026-04-12T12:00:00:Z","depth":0,"parameterNumber":3,"parameterNumberName":"V-component_of_WINDS"},"data":[0.0,0.0,0.0,0.0,0.0,0.0,0.0,0.0,0.0,0.0,0.0,0.0,0.0,0.0,0.0,0.0,0.0,0.0,0.0,0.0,0.0,0.0,0.0,0.0,0.0,0.0,0.0,0.0,0.0,0.0,0.0,0.0,0.0,0.0,0.0,0.0,0.0,0.0,0.0,0.0,0.0,0.0,0.0,0.0,0.0,0.0,0.0,0.0,0.0,0.0,0.0,0.0,0.0,0.0,0.0,0.0,0.0,0.0,0.0,0.0,0.0,0.0,0.0,0.0,0.0,0.0,0.0,0.0,0.0,0.0,0.0,0.0,0.0,0.0,0.0,0.0,0.0,0.0,0.0,0.0,0.0,0.0,0.0,0.0,0.0,0.0,0.0,0.0,0.0,0.0,0.0,1.1217,1.3321,1.4483,1.3953,1.3461,1.2473,1.0852,0.0,0.0,0.0,0.0,0.0,0.0,0.0,0.0,0.0,0.0,0.0,0.0,0.0,0.0,0.0,0.0,0.0,0.0,0.0,0.0,0.0,0.0,0.0,0.0,0.0,0.0,0.0,0.0,0.0,0.0,0.0,0.0,0.0,0.0,0.0,0.0,0.0,0.0,0.0,0.0,0.0,0.0,0.0,0.0,0.0,0.0,0.0,0.0,0.0,0.0,0.0,0.0,0.0,0.0,0.0,0.0,0.0,0.0,0.0,0.0,0.0,0.0,0.0,0.0,0.0,0.0,0.0,0.0,0.0,0.0,0.0,0.0,0.0,0.0,0.0,0.0,0.0,0.0,0.0,0.0,0.0,0.0,0.0,0.0,0.0,0.0,0.0,0.0,0.0,0.0,0.0,0.0,0.0,0.0,0.0,0.0,0.0,0.0,0.0,0.0,0.0,0.0,0.0,0.0,1.1547,1.3926,1.5452,1.6219,1.5892,1.5107,1.3996,1.2433,0.0,0.0,0.0,0.0,0.0,0.0,0.0,0.0,0.0,0.0,0.0,0.0,0.0,0.0,0.0,0.0,0.0,0.0,0.0,0.0,0.0,0.0,0.0,0.0,0.0,0.0,0.0,0.0,0.0,0.0,0.0,0.0,0.0,0.0,0.0,0.0,0.0,0.0,0.0,0.0,0.0,0.0,0.0,0.0,0.0,0.0,0.0,0.0,0.0,0.0,0.0,0.0,0.0,0.0,0.0,0.0,0.0,0.0,0.0,0.0,0.0,0.0,0.0,0.0,0.0,0.0,0.0,0.0,0.0,0.0,0.0,0.0,0.0,0.0,0.0,0.0,0.0,0.0,0.0,0.0,0.0,0.0,0.0,0.0,0.0,0.0,0.0,0.0,0.0,0.0,0.0,0.0,0.0,0.0,0.0,0.0,0.0,0.0,0.0,0.0,0.0,0.0,0.0,1.1907,1.3231,1.4807,1.5871,1.6286,1.5832,1.5137,1.413,1.2674,1.0645,0.0,0.0,0.0,0.0,0.0,0.0,0.0,0.0,0.0,0.0,0.0,0.0,0.0,0.0,0.0,0.0,0.0,0.0,0.0,0.0,0.0,0.0,0.0,0.0,0.0,0.0,0.0,0.0,0.0,0.0,0.0,0.0,0.0,0.0,0.0,0.0,0.0,0.0,0.0,0.0,0.0,0.0,0.0,0.0,0.0,0.0,0.0,0.0,0.0,0.0,0.0,0.0,0.0,0.0,0.0,0.0,0.0,0.0,0.0,0.0,0.0,0.0,0.0,0.0,0.0,0.0,0.0,0.0,0.0,0.0,0.0,0.0,0.0,0.0,0.0,0.0,0.0,0.0,0.0,0.0,0.0,0.0,0.0,0.0,0.0,0.0,0.0,0.0,0.0,0.0,0.0,0.0,0.0,0.0,0.0,0.0,0.0,0.0,0.0,0.0,0.0,0.0,1.3544,1.4553,1.5179,1.5737,1.5858,1.5337,1.4629,1.3693,1.2461,1.1093,0.0,0.0,0.0,0.0,0.0,0.0,0.0,0.0,0.0,0.0,0.0,0.0,0.0,0.0,0.0,0.0,0.0,0.0,0.0,0.0,0.0,0.0,0.0,0.0,0.0,0.0,0.0,0.0,0.0,0.0,0.0,0.0,0.0,0.0,0.0,0.0,0.0,0.0,0.0,0.0,0.0,0.0,0.0,0.0,0.0,0.0,0.0,0.0,0.0,0.0,0.0,0.0,0.0,0.0,0.0,0.0,0.0,0.0,0.0,0.0,0.0,0.0,0.0,0.0,0.0,0.0,0.0,0.0,0.0,0.0,0.0,0.0,0.0,0.0,0.0,0.0,0.0,0.0,0.0,0.0,0.0,0.0,0.0,0.0,0.0,0.0,0.0,0.0,0.0,0.0,0.0,0.0,0.0,0.0,0.0,0.0,0.0,0.0,0.0,0.0,0.0,0.0,1.4186,1.5132,1.5691,1.5591,1.5337,1.5062,1.3961,1.2906,1.1984,1.0789,0.0,0.0,0.0,0.0,0.0,0.0,0.0,0.0,0.0,0.0,0.0,0.0,0.0,0.0,0.0,0.0,0.0,0.0,0.0,0.0,0.0,0.0,0.0,0.0,0.0,0.0,0.0,0.0,0.0,0.0,0.0,0.0,0.0,0.0,0.0,0.0,0.0,0.0,0.0,0.0,0.0,0.0,0.0,0.0,0.0,0.0,0.0,0.0,0.0,0.0,0.0,0.0,0.0,0.0,0.0,0.0,0.0,0.0,0.0,0.0,0.0,0.0,0.0,0.0,0.0,0.0,0.0,0.0,0.0,0.0,0.0,0.0,0.0,0.0,0.0,0.0,0.0,0.0,0.0,0.0,0.0,0.0,0.0,0.0,0.0,0.0,0.0,0.0,0.0,0.0,0.0,0.0,0.0,0.0,0.0,0.0,0.0,0.0,0.0,0.0,0.0,0.0,1.4951,1.5927,0.0,1.6207,1.5982,1.5247,1.4443,1.3431,1.2186,0.0,0.0,0.0,0.0,0.0,0.0,0.0,0.0,0.0,0.0,0.0,0.0,0.0,0.0,0.0,0.0,0.0,0.0,0.0,0.0,0.0,0.0,0.0,0.0,0.0,0.0,0.0,0.0,0.0,0.0,0.0,0.0,0.0,0.0,0.0,0.0,0.0,0.0,0.0,0.0,0.0,0.0,0.0,0.0,0.0,0.0,0.0,0.0,0.0,0.0,0.0,0.0,0.0,0.0,0.0,0.0,0.0,0.0,0.0,0.0,0.0,0.0,0.0,0.0,0.0,0.0,0.0,0.0,0.0,0.0,0.0,0.0,0.0,0.0,0.0,0.0,0.0,0.0,0.0,0.0,0.0,0.0,0.0,0.0,0.0,0.0,0.0,0.0,0.0,0.0,0.0,0.0,0.0,0.0,0.0,0.0,0.0,0.0,0.0,0.0,0.0,0.0,1.4079,1.5645,1.669,0.0,1.7038,1.6735,1.5801,1.4963,1.3861,1.241,0.0,0.0,0.0,0.0,0.0,0.0,0.0,0.0,0.0,0.0,0.0,0.0,0.0,0.0,0.0,0.0,0.0,0.0,0.0,0.0,0.0,0.0,0.0,0.0,0.0,0.0,0.0,0.0,0.0,0.0,0.0,0.0,0.0,0.0,0.0,0.0,0.0,0.0,0.0,0.0,0.0,0.0,0.0,0.0,0.0,0.0,0.0,0.0,0.0,0.0,0.0,0.0,0.0,0.0,0.0,0.0,0.0,0.0,0.0,0.0,0.0,0.0,0.0,0.0,0.0,0.0,0.0,0.0,0.0,0.0,0.0,0.0,0.0,0.0,0.0,0.0,0.0,0.0,0.0,0.0,0.0,0.0,0.0,0.0,0.0,0.0,0.0,0.0,0.0,0.0,0.0,0.0,0.0,0.0,0.0,0.0,0.0,0.0,0.0,0.0,0.0,0.0,1.4833,1.625,1.7408,1.811,1.7966,1.7499,1.6743,1.5488,1.4131,0.0,0.0,0.0,0.0,0.0,0.0,0.0,0.0,0.0,0.0,0.0,0.0,0.0,0.0,0.0,0.0,0.0,0.0,0.0,0.0,0.0,0.0,0.0,0.0,0.0,0.0,0.0,0.0,0.0,0.0,0.0,0.0,0.0,0.0,0.0,0.0,0.0,0.0,0.0,0.0,0.0,0.0,0.0,0.0,0.0,0.0,0.0,0.0,0.0,0.0,0.0,0.0,0.0,0.0,0.0,0.0,0.0,0.0,0.0,0.0,0.0,0.0,0.0,0.0,0.0,0.0,0.0,0.0,0.0,0.0,0.0,0.0,0.0,0.0,0.0,0.0,0.0,0.0,0.0,0.0,0.0,0.0,0.0,0.0,0.0,0.0,0.0,0.0,0.0,0.0,0.0,0.0,0.0,0.0,0.0,0.0,0.0,0.0,0.0,0.0,0.0,0.0,0.0,1.529,1.7015,1.8204,1.851,1.8683,1.8354,1.7353,1.6383,1.5117,1.343,0.0,0.0,0.0,0.0,0.0,0.0,0.0,0.0,0.0,0.0,0.0,0.0,0.0,0.0,0.0,0.0,0.0,0.0,0.0,0.0,0.0,0.0,0.0,0.0,0.0,0.0,0.0,0.0,0.0,0.0,0.0,0.0,0.0,0.0,0.0,0.0,0.0,0.0,0.0,0.0,0.0,0.0,0.0,0.0,0.0,0.0,0.0,0.0,0.0,0.0,0.0,0.0,0.0,0.0,0.0,0.0,0.0,0.0,0.0,0.0,0.0,0.0,0.0,0.0,0.0,0.0,0.0,0.0,0.0,0.0,0.0,0.0,0.0,0.0,0.0,0.0,0.0,0.0,0.0,0.0,0.0,0.0,0.0,0.0,0.0,0.0,0.0,0.0,0.0,0.0,0.0,0.0,0.0,0.0,0.0,0.0,0.0,0.0,0.0,0.0,0.0,0.0,1.5891,1.7696,1.8983,1.9413,1.9485,1.9132,1.8267,1.7307,1.5995,1.4261,0.0,0.0,0.0,0.0,0.0,0.0,0.0,0.0,0.0,0.0,0.0,0.0,0.0,0.0,0.0,0.0,0.0,0.0,0.0,0.0,0.0,0.0,0.0,0.0,0.0,0.0,0.0,0.0,0.0,0.0,0.0,0.0,0.0,0.0,0.0,0.0,0.0,0.0,0.0,0.0,0.0,0.0,0.0,0.0,0.0,0.0,0.0,0.0,0.0,0.0,0.0,0.0,0.0,0.0,0.0,0.0,0.0,0.0,0.0,0.0,0.0,0.0,0.0,0.0,0.0,0.0,0.0,0.0,0.0,0.0,0.0,0.0,0.0,0.0,0.0,0.0,0.0,0.0,0.0,0.0,0.0,0.0,0.0,0.0,0.0,0.0,0.0,0.0,0.0,0.0,0.0,0.0,0.0,0.0,0.0,0.0,0.0,0.0,0.0,0.0,0.0,0.0,1.6445,1.8237,1.9627,2.041,2.0117,1.9727,1.9294,1.812,1.6753,1.5195,0.0,0.0,0.0,0.0,0.0,0.0,0.0,0.0,0.0,0.0,0.0,0.0,0.0,0.0,0.0,0.0,0.0,0.0,0.0,0.0,0.0,0.0,0.0,0.0,0.0,0.0,0.0,0.0,0.0,0.0,0.0,0.0,0.0,0.0,0.0,0.0,0.0,0.0,0.0,0.0,0.0,0.0,0.0,0.0,0.0,0.0,0.0,0.0,0.0,0.0,0.0,0.0,0.0,0.0,0.0,0.0,0.0,0.0,0.0,0.0,1.9411,0.0,0.0,0.0,0.0,0.0,0.0,0.0,0.0,0.0,0.0,0.0,0.0,0.0,0.0,0.0,0.0,0.0,0.0,0.0,0.0,0.0,0.0,0.0,0.0,0.0,0.0,0.0,0.0,0.0,0.0,0.0,0.0,0.0,0.0,0.0,0.0,0.0,0.0,0.0,0.0,0.0,1.6367,1.8381,1.972,1.9792,1.986,1.9646,1.9041,1.8214,1.7145,1.578,1.4314,0.0,0.0,0.0,0.0,0.0,0.0,0.0,0.0,0.0,0.0,0.0,0.0,0.0,0.0,0.0,0.0,0.0,0.0,0.0,0.0,0.0,0.0,0.0,0.0,0.0,0.0,0.0,0.0,0.0,0.0,0.0,0.0,0.0,0.0,0.0,0.0,0.0,0.0,0.0,0.0,0.0,0.0,0.0,0.0,0.0,0.0,0.0,0.0,0.0,0.0,0.0,0.0,0.0,0.0,0.0,0.0,0.0,0.0,0.0,0.0,2.1538,0.0,0.0,0.0,0.0,0.0,0.0,0.0,0.0,0.0,0.0,0.0,0.0,0.0,0.0,0.0,0.0,0.0,0.0,0.0,0.0,0.0,0.0,0.0,0.0,0.0,0.0,0.0,0.0,0.0,0.0,0.0,0.0,0.0,0.0,0.0,0.0,0.0,0.0,0.0,0.0,1.6632,1.8369,1.955,1.9837,1.9515,1.9193,1.9059,1.8286,1.7482,1.6821,1.5468,0.0,0.0,0.0,0.0,0.0,0.0,0.0,0.0,0.0,0.0,0.0,0.0,0.0,0.0,0.0,0.0,0.0,0.0,0.0,0.0,0.0,0.0,0.0,0.0,0.0,0.0,0.0,0.0,0.0,0.0,0.0,0.0,0.0,0.0,0.0,0.0,0.0,0.0,0.0,0.0,0.0,0.0,0.0,0.0,0.0,0.0,0.0,0.0,0.0,0.0,0.0,0.0,0.0,2.7999,2.8184,2.7898,2.8207,2.8603,2.8868,2.6754,2.5578,2.5128,2.4515,0.0,0.0,0.0,0.0,0.0,0.0,0.0,0.0,0.0,0.0,0.0,0.0,0.0,0.0,0.0,0.0,0.0,0.0,0.0,0.0,0.0,0.0,0.0,0.0,2.1296,2.0519,0.0,0.0,0.0,0.0,0.0,0.0,0.0,0.0,0.0,0.0,0.0,0.0,1.7225,1.8607,1.9586,2.0015,1.9284,1.8889,1.9164,1.8446,1.7935,1.7788,1.6595,1.5512,0.0,0.0,0.0,0.0,0.0,0.0,0.0,0.0,0.0,0.0,0.0,0.0,0.0,0.0,0.0,0.0,0.0,0.0,0.0,0.0,0.0,0.0,0.0,0.0,0.0,0.0,0.0,0.0,0.0,0.0,0.0,0.0,2.5944,2.5939,0.0,0.0,0.0,0.0,0.0,0.0,0.0,0.0,0.0,0.0,0.0,0.0,0.0,2.8521,2.897,2.956,3.008,3.0508,3.0626,3.0649,3.0602,3.0629,3.0917,3.138,3.1636,0.0,2.8242,2.7693,0.0,0.0,0.0,0.0,0.0,0.0,0.0,0.0,0.0,0.0,0.0,0.0,0.0,0.0,0.0,0.0,0.0,0.0,0.0,0.0,0.0,0.0,2.497,2.4414,2.3898,2.3573,0.0,2.1034,1.8245,1.7396,1.6246,0.0,0.0,0.0,0.0,0.0,0.0,0.0,1.8197,1.9761,2.0532,1.9885,1.9677,1.945,1.9136,1.8841,1.8489,1.8079,1.7696,1.6777,1.5177,1.4654,0.0,0.0,0.0,0.0,0.0,0.0,0.0,0.0,0.0,0.0,0.0,0.0,0.0,0.0,0.0,0.0,0.0,0.0,0.0,0.0,0.0,0.0,0.0,0.0,0.0,0.0,0.0,0.0,0.0,2.7311,2.8645,2.8352,2.8415,2.7973,0.0,0.0,0.0,0.0,0.0,0.0,0.0,0.0,0.0,2.9705,3.1301,3.2406,3.2901,3.378,3.432,3.4519,3.4519,3.4691,3.4961,3.4666,3.4613,3.487,3.5211,3.4268,3.2457,3.0663,2.8976,2.7369,0.0,0.0,0.0,0.0,2.5008,2.4958,2.4732,2.4664,0.0,2.4387,0.0,0.0,0.0,0.0,0.0,0.0,0.0,0.0,0.0,0.0,2.5971,2.5385,2.5084,2.4883,2.48,2.343,2.1815,0.0,1.9068,1.7573,1.651,0.0,0.0,0.0,0.0,1.819,1.9464,2.0419,2.0937,2.0741,2.0095,1.9716,1.9763,1.9365,1.913,1.9101,1.8714,1.8092,1.7195,1.6197,1.4968,0.0,0.0,0.0,0.0,0.0,0.0,0.0,0.0,0.0,0.0,0.0,0.0,0.0,0.0,0.0,0.0,0.0,0.0,0.0,0.0,0.0,0.0,0.0,0.0,0.0,0.0,0.0,0.0,2.9277,3.0859,3.0457,3.1035,3.0859,0.0,0.0,0.0,0.0,0.0,0.0,3.0142,3.1637,3.2641,3.3,3.455,3.5554,3.5909,3.691,3.7337,3.7186,3.7186,3.7337,3.7563,3.7161,3.7033,3.696,3.6835,3.6307,3.5332,3.3144,3.126,2.964,2.8699,2.7957,2.7354,2.7354,2.7354,2.7354,2.7354,2.7253,2.7128,2.7128,2.6264,2.5134,2.4582,0.0,0.0,0.0,0.0,2.4808,2.5611,2.6273,2.6575,2.5963,2.5812,2.5711,2.5335,2.5134,2.4536,0.0,2.1389,1.9844,1.8601,0.0,0.0,0.0,0.0,1.9449,2.0696,2.1152,2.1419,2.1573,2.061,2.0083,2.0326,1.9846,1.9614,1.9821,1.9429,1.9008,1.8536,1.7339,1.6073,1.4756,0.0,0.0,0.0,0.0,0.0,0.0,0.0,0.0,0.0,0.0,0.0,0.0,0.0,0.0,0.0,0.0,0.0,0.0,0.0,0.0,0.0,0.0,0.0,0.0,0.0,0.0,0.0,0.0,0.0,3.2089,3.3068,0.0,0.0,0.0,0.0,3.1938,3.2516,3.3093,3.3621,3.468,3.5307,3.5332,3.6483,3.7086,3.7086,3.7688,3.7688,3.7186,3.7186,3.6983,3.648,3.6455,3.6455,3.643,3.5855,3.5558,3.5458,3.4781,3.3571,3.1989,3.1411,3.0532,2.9628,2.9628,2.9628,2.9628,2.9628,2.9277,2.8762,2.8762,2.7695,2.6298,2.5686,2.5109,0.0,0.0,2.5921,2.6373,2.6424,2.6876,2.7128,2.6575,2.6449,2.6449,2.6424,2.5971,2.5018,0.0,2.2233,2.1296,2.0003,0.0,1.8911,1.9631,2.0385,2.1113,2.1756,2.2116,2.2304,2.2166,2.1303,2.0694,2.0514,2.0109,1.9797,1.9626,1.9734,1.9233,1.8087,1.7725,1.6757,1.5097,1.384,0.0,0.0,0.0,0.0,0.0,0.0,0.0,0.0,0.0,0.0,0.0,0.0,0.0,0.0,0.0,0.0,0.0,0.0,0.0,0.0,0.0,0.0,0.0,0.0,0.0,0.0,0.0,0.0,3.4279,3.5655,0.0,3.4455,3.45,3.4525,3.4329,3.5529,3.6332,3.6533,3.7613,3.8216,3.8216,3.8592,3.8793,3.8793,3.8642,3.8467,3.8316,3.7538,3.7262,3.7412,3.7061,3.6885,3.686,3.6307,3.5881,3.5483,3.5282,3.4274,3.2742,3.2541,3.1788,3.0809,3.0809,3.0809,3.0809,3.0809,3.0457,2.9841,2.9139,2.8524,2.7946,2.7369,2.7092,2.6967,2.7168,2.7369,2.7444,2.7128,2.7178,2.7178,2.6625,2.6499,2.6499,2.6499,2.6323,2.5862,2.4843,2.3548,2.2516,2.206,2.1156,2.0761,2.1336,2.1666,2.2048,2.2596,2.2784,2.2823,2.2787,2.1884,2.124,2.1156,2.0343,1.9803,1.9734,1.9434,1.9083,1.8658,1.7887,1.6997,1.6033,1.5229,1.4395,0.0,0.0,0.0,0.0,0.0,0.0,0.0,0.0,0.0,0.0,0.0,0.0,0.0,0.0,0.0,0.0,0.0,0.0,0.0,0.0,0.0,0.0,0.0,0.0,0.0,0.0,3.5429,3.5734,3.7462,3.799,3.6486,3.6885,3.6985,3.6386,3.7739,3.8492,3.8316,3.9371,3.9898,3.9697,3.9697,3.9697,3.9697,3.9145,3.8768,3.8567,3.7638,3.7287,3.7437,3.7086,3.6958,3.6885,3.6332,3.5981,3.5805,3.5583,3.4856,3.3897,3.3897,3.3219,3.224,3.224,3.2114,3.1938,3.1738,3.1436,3.0959,2.9854,2.9465,2.9364,2.885,2.8674,2.8674,2.8674,2.8674,2.8499,2.7745,2.757,2.7369,2.6675,2.6499,2.6499,2.6499,2.6499,2.6323,2.5711,2.4582,2.3622,2.3421,2.2648,2.2171,2.2518,2.2569,2.2694,2.3045,2.3095,2.3095,2.3095,2.2146,2.1493,2.1493,2.0464,1.9811,1.9811,1.9284,1.8933,1.8732,1.7877,1.7121,1.65,1.5969,1.516,1.4116,0.0,0.0,0.0,0.0,0.0,0.0,0.0,0.0,0.0,0.0,0.0,0.0,0.0,0.0,0.0,0.0,0.0,0.0,0.0,0.0,0.0,0.0,0.0,3.1386,3.4324,3.6458,3.6483,3.8417,3.9295,3.8165,3.8592,3.8693,3.809,3.9094,3.9496,3.8994,3.9948,4.0275,3.9747,3.9697,3.9697,3.9697,3.912,3.8567,3.799,3.7437,3.6885,3.6405,3.6405,3.6405,3.638,3.578,3.5855,3.6355,3.5755,3.5508,3.5508,3.5508,3.4831,3.3897,3.3897,3.3545,3.2993,3.2416,3.2215,3.2039,3.0959,3.0608,3.0547,2.9994,2.9818,2.9818,2.9804,2.9804,2.9528,2.8398,2.8097,2.7821,2.6751,2.6499,2.6499,2.6499,2.6499,2.6323,2.577,2.5184,2.4632,2.4079,2.3496,2.3095,2.3095,2.3095,0.0,2.3095,2.3095,2.3095,2.3095,2.2146,2.1493,2.1493,2.0464,1.9811,1.9811,1.9284,1.8732,1.8229,1.7652,1.7074,1.6475,1.5969,1.516,1.4116,0.0,0.0,0.0,0.0,0.0,0.0,0.0,0.0,0.0,0.0,0.0,0.0,0.0,0.0,0.0,0.0,0.0,0.0,0.0,0.0,0.0,3.1619,3.3043,3.3194,3.5378,3.7287,3.809,3.9798,4.045,3.9346,4.0099,4.0275,3.9295,3.9898,4.0224,4.0074,4.035,4.045,4.03,3.9898,3.9697,3.9697,3.8718,3.8165,3.799,3.7036,3.6556,3.6405,3.6405,3.6405,3.638,3.578,3.5583,3.5708,3.5558,3.5508,3.5508,3.5508,3.4831,3.3897,3.3897,3.3545,3.3036,3.2626,3.259,3.2577,3.1573,3.137,3.1423,3.0663,3.0356,3.0177,3.0049,2.9895,2.9528,2.8398,2.8097,2.7821,2.6751,2.6499,2.6533,2.6611,2.6748,2.6799,2.6671,2.5823,2.4919,2.4111,2.3496,2.3095,2.3095,2.3095,0.0,2.3095,2.3095,2.3095,2.3095,2.2146,2.1493,2.1493,2.0464,1.9811,1.9811,1.8932,1.8355,1.8204,1.7275,1.6497,1.5944,1.5768,1.516,0.0,0.0,0.0,0.0,0.0,0.0,0.0,0.0,0.0,0.0,0.0,0.0,0.0,0.0,0.0,0.0,0.0,0.0,0.0,0.0,0.0,0.0,3.4128,3.5454,3.5906,3.7086,3.814,3.8844,4.0124,4.0651,3.9772,4.0475,4.0626,3.9747,4.0199,4.0425,4.0199,4.04,4.04,4.0174,3.9848,3.9597,3.9346,3.8467,3.7889,3.7638,3.6832,3.6405,3.6405,3.6405,3.6405,3.638,3.6031,3.5881,3.5881,3.5881,3.5708,0.0,0.0,0.0,0.0,0.0,3.3345,3.3104,3.3073,3.3296,3.3502,3.2633,3.2588,3.276,3.1633,3.1022,3.0658,3.0381,3.0062,2.9528,2.8398,2.8097,2.7821,2.6751,2.6499,2.6568,2.6782,2.7061,2.7219,2.7011,2.6265,0.0,2.4489,2.3654,2.3095,2.3095,2.3095,2.3125,2.321,2.3271,2.336,2.342,2.249,2.1854,2.1799,2.0676,0.0,0.0,0.0,1.8645,1.8533,1.7664,0.0,0.0,0.0,0.0,0.0,0.0,0.0,0.0,1.5211,1.5437,0.0,0.0,0.0,0.0,0.0,0.0,0.0,0.0,0.0,0.0,0.0,0.0,0.0,0.0,0.0,0.0,3.6601,3.7934,3.8969,3.9222,3.9221,3.912,3.9973,4.0375,3.9747,4.0199,4.03,3.9747,4.0149,4.0199,3.9722,0.0,0.0,0.0,0.0,3.9371,3.8868,3.8241,3.7663,3.7186,3.6681,3.6405,3.6405,3.6405,3.6405,3.6405,3.6405,3.6405,3.6405,3.6405,3.6031,3.5533,3.5977,3.5525,3.4589,3.3575,3.324,3.3326,3.3725,0.0,0.0,3.3934,3.4066,3.427,3.2718,3.1819,3.1267,3.0857,3.0343,2.9681,2.8509,2.8206,2.7965,2.6854,2.6602,2.6714,2.7061,2.7497,2.7676,2.7237,2.6684,2.6065,2.5149,2.3952,2.3095,2.3095,2.3095,2.318,2.339,2.3569,2.3776,2.3979,0.0,0.0,2.2347,2.1069,2.0271,2.0271,1.978,1.9406,1.911,1.8605,1.831,1.8231,1.8157,1.777,1.705,1.7507,1.7631,1.7498,1.6898,1.6651,0.0,0.0,0.0,0.0,0.0,0.0,0.0,0.0,0.0,0.0,0.0,0.0,0.0,0.0,0.0,3.737,3.8859,4.0037,4.0436,4.1106,4.1203,4.0302,4.0777,4.0724,3.9798,4.0199,4.03,3.9747,3.9798,3.9798,3.9697,3.9798,3.9798,3.9697,3.927,3.8969,3.8919,3.7864,3.7287,3.7186,0.0,0.0,3.6405,3.6405,3.6405,3.6405,3.6405,3.6405,3.6405,3.6405,3.6031,3.5433,3.4855,3.4622,3.4543,3.4067,3.3979,3.423,3.4853,3.5359,3.5665,3.5,3.5096,3.5164,3.3564,3.2668,0.0,3.1673,3.1172,3.0488,2.9284,2.8999,2.8688,2.7574,2.7289,2.7456,2.7927,2.8352,2.8588,2.8666,2.8115,2.7359,2.6398,2.4512,2.3095,2.3095,2.3095,2.3185,2.3509,2.3897,2.4276,2.4536,2.3852,2.3252,2.3043,2.1584,2.0671,2.0671,2.0361,2.0101,1.991,1.9767,1.9513,1.9079,1.9249,1.8913,1.8046,1.8386,1.84,1.8028,1.7476,1.7702,0.0,0.0,0.0,0.0,0.0,0.0,0.0,0.0,0.0,0.0,0.0,3.8407,3.8919,0.0,4.0757,4.0847,4.2031,4.2843,4.2714,4.3232,4.299,4.1347,4.0981,4.0701,4.0149,4.0099,3.9998,3.9722,3.9697,3.9697,3.9697,3.9697,3.9697,3.9697,3.917,3.8793,3.8442,3.7613,3.7036,3.6832,3.6531,3.6405,3.6405,3.6405,3.6452,3.6546,3.6687,3.6828,3.6896,3.6447,3.6083,3.5724,3.5072,3.4914,3.5027,3.4789,3.4965,3.5386,3.5976,3.6492,3.6775,3.6045,3.615,3.6237,3.4577,3.3659,3.3108,3.2755,3.2218,3.1514,3.0331,2.9973,2.9678,2.8556,2.826,2.8357,2.8807,2.9251,2.9563,2.9682,2.9177,2.8493,2.7883,2.6096,2.4478,2.3717,2.3603,2.375,2.4131,2.4536,2.4879,2.5272,2.4519,2.387,2.3614,2.2188,2.1288,2.1215,2.1254,2.1301,2.131,2.1044,2.0755,2.0514,2.0494,2.0158,1.9503,1.9847,1.9784,1.9374,1.9142,1.8998,0.0,0.0,0.0,0.0,0.0,0.0,0.0,0.0,3.751,3.8794,4.1062,4.2862,4.2887,4.3918,4.4566,4.402,4.4902,4.5398,4.467,4.483,4.4255,4.2257,4.1218,4.0626,4.0526,4.0023,3.9697,3.9697,3.9697,3.9697,3.9697,3.9597,3.9546,3.9546,3.8894,3.8316,3.7839,3.7287,3.6857,3.6405,3.6304,3.6304,3.6405,3.6304,3.6445,3.6803,3.7268,3.7638,3.788,3.692,3.6462,3.6442,3.5925,3.5791,3.5909,3.567,3.5961,3.6554,3.7011,3.7501,3.7792,3.6908,3.699,3.7097,3.5452,3.4543,3.4075,3.3762,3.3283,3.2528,3.1332,3.0999,3.0693,2.9497,2.9192,2.9286,2.9656,3.0086,3.0389,3.0447,3.0014,2.955,2.9199,2.7822,2.6239,2.4776,2.4445,2.4536,2.4935,2.5273,2.5632,2.6042,2.522,2.4386,2.3784,2.266,2.1935,2.1817,2.217,2.2495,2.2694,2.23,2.2062,2.2062,2.182,2.1479,2.1088,2.1308,2.1215,2.082,2.082,2.0263,2.8448,2.9846,3.2136,3.3672,3.5322,3.69,0.0,0.0,3.974,4.1067,4.2935,4.4204,4.3691,4.4907,4.5725,4.4922,4.5924,4.6336,4.4955,4.4952,4.4542,4.3049,4.1866,4.1,4.0576,4.0023,3.9697,3.9697,3.9697,3.9697,3.9697,3.922,3.902,3.902,3.7914,3.7337,3.7287,3.6782,3.6455,3.6405,3.5881,3.5881,3.638,3.5855,3.6138,3.7108,3.8206,3.9033,3.9541,3.8348,3.7854,3.7813,3.7016,3.7039,3.7471,3.695,3.7039,3.7529,3.791,3.824,3.8259,3.7329,3.7228,3.7131,3.5614,3.4872,3.4509,3.4337,3.3997,3.3346,3.2122,3.1781,3.1468,3.0247,2.9993,3.0054,3.0417,3.0598,3.0777,3.0984,3.0807,3.0426,2.9755,2.8742,2.7569,2.6324,2.563,2.5356,2.5631,2.6067,2.6469,2.6759,2.5997,2.4758,2.2988,2.2689,2.2581,2.2581,2.2859,2.315,2.345,2.3412,2.3382,2.3382,2.3164,2.2877,2.2466,2.2276,2.1974,2.1592,2.1592,2.1156,3.0683,3.2054,3.405,3.5605,3.8113,4.0442,4.1268,4.2223,4.3168,4.4197,4.5605,4.6612,4.6343,4.7509,4.8281,0.0,4.8244,4.8307,4.6776,4.611,4.5071,4.322,4.144,4.0425,4.0501,4.0023,3.9749,3.9929,4.0108,4.016,4.016,3.9677,3.9423,3.9575,3.834,3.7663,3.7663,3.7111,3.6779,3.6568,3.613,3.607,3.6345,3.607,3.6753,3.8179,3.8725,3.9388,4.0069,3.883,3.8323,3.8307,3.7833,3.7872,3.8173,3.791,3.8202,3.8686,3.8833,3.8973,3.8839,3.7645,3.7336,3.7131,3.578,3.5231,3.51,3.5063,3.4902,3.4479,3.3187,3.2834,3.2511,3.1219,3.0925,3.0955,3.1073,3.1161,3.1219,3.1336,3.1248,3.1101,3.0777,2.9777,2.8843,2.833,2.6911,2.6041,2.6281,2.6575,2.6718,2.6747,2.5985,2.497,2.3612,2.3249,2.3016,2.2949,2.3172,2.3414,2.361,2.361,2.361,2.361,2.3458,2.326,2.2949,2.3144,2.3055,2.2743,2.3162,2.3161,3.2365,3.3796,3.5507,3.6845,3.9918,4.2653,4.3101,4.4185,4.5258,4.5941,4.681,4.7489,4.7687,4.8652,4.9284,4.8805,4.9434,4.9413,4.7841,4.6858,4.5498,4.3336,4.1175,3.9956,4.021,3.9625,3.9373,3.9728,4.0054,4.0304,4.0304,3.9762,3.9563,3.9828,3.8464,3.7789,3.7789,3.7387,3.6978,3.6574,3.6334,3.6257,3.6302,3.6392,3.7245,3.8695,3.9016,3.97,4.0509,3.944,3.9006,3.8987,3.8652,3.8612,3.8752,3.8752,3.901,3.9343,3.92,3.914,3.8931,3.7584,3.7165,3.6956,3.5848,3.5519,3.5519,3.5519,3.5519,3.522,3.4083,3.3634,3.3215,3.2049,3.163,3.1511,3.1511,3.1511,3.1511,3.1511,3.1511,3.1511,3.1511,3.0432,2.9621,2.9621,2.7898,2.6733,2.6919,2.7019,2.6963,2.6637,2.6081,2.5313,2.4328,2.3888,2.3533,2.326,2.3414,2.3545,2.361,2.361,2.361,2.361,2.3545,2.3414,2.3238,2.3825,2.3979,2.3838,2.4476,2.4795,3.2742,3.4675,3.6546,3.7289,4.0112,4.2725,4.272,4.378,4.4879,4.5441,4.5561,4.5817,4.6506,4.7064,4.7399,4.7369,4.8446,4.882,4.7444,4.6708,4.5524,4.3513,4.1559,4.0129,0.0,3.8656,3.8263,3.8779,3.9455,3.9833,3.9833,3.928,3.8993,3.9139,3.7876,3.7211,3.7211,3.7186,3.6871,3.6197,3.6296,3.6314,3.6437,3.6887,3.7389,3.8076,3.9078,4.0187,4.1316,4.0629,4.036,4.03,3.9606,3.9373,3.9373,3.9373,3.9373,3.932,3.8661,3.8422,3.8212,3.6926,3.6507,3.6387,3.5699,3.5519,3.5519,3.5519,3.5519,3.534,3.4653,3.3963,3.3335,3.2647,3.1959,3.1511,3.1511,3.1511,3.1511,3.1511,3.1511,3.1511,3.1511,3.0432,2.9621,2.9621,2.8427,2.756,2.756,2.756,2.732,2.6662,2.6572,2.6033,2.4701,2.4552,2.4276,2.3618,2.361,2.361,2.361,2.361,2.361,2.361,2.361,2.361,2.3588,2.4253,2.4582,2.4559,2.5269,2.5568,3.3872,3.578,3.7709,3.8697,4.1345,4.3686,4.3701,4.4667,4.5546,4.5364,4.5321,4.5364,4.5566,4.6191,4.68,4.7249,4.8416,4.8984,4.8201,4.7833,4.6814,4.4575,4.2885,0.0,0.0,0.0,0.0,3.9525,3.9997,4.0535,4.0962,4.0401,4.0233,4.0483,3.9381,3.86,3.8192,3.8192,3.8132,3.7986,3.765,3.7419,3.7277,3.7331,3.7993,3.9061,3.9167,3.9827,4.0666,4.0008,3.9738,3.9738,3.9499,3.9373,3.9373,3.9373,3.9373,3.932,3.8631,3.8392,3.8182,3.6896,3.6477,3.6357,3.5699,3.5519,3.5519,3.5519,3.5519,3.534,3.4651,3.4354,3.3873,3.2766,3.2318,3.2019,3.16,3.1511,3.1511,3.1511,3.1511,3.1511,3.1511,3.0432,2.9292,2.8423,2.7884,2.7585,2.7585,2.7585,2.7495,2.7285,2.6866,2.6422,2.5974,2.5113,2.4515,2.4276,2.3849,2.361,2.361,2.361,2.361,2.361,2.4059,2.4246,2.4276,2.5382,2.5944,2.5944,2.6602,2.6926,3.5253,3.7086,3.8793,3.9625,4.1776,4.3545,4.3205,4.4167,4.4955,4.4303,4.3967,4.3921,4.4291,4.4662,4.5274,4.6411,4.7698,4.8492,4.834,4.805,4.7218,4.5407,4.3828,4.2491,0.0,0.0,0.0,3.9918,4.0383,4.0865,4.1346,4.1137,4.1172,4.1362,4.0703,4.0034,3.9447,3.9421,3.9429,3.9495,3.9006,3.8654,3.8434,3.8131,3.8472,3.93,3.9015,3.9303,4.0008,3.9589,3.9373,3.9373,3.9373,3.9373,3.9373,3.9373,3.9373,3.9254,3.8362,3.8033,3.7823,3.6537,3.6118,3.6058,3.5639,3.5519,3.5519,3.5519,3.5519,3.54,3.4951,3.4683,3.4234,3.3125,3.2677,3.2318,3.166,3.1511,3.1511,3.1511,3.1511,3.1511,3.1511,3.0432,2.9232,2.8124,2.7764,2.7585,2.7585,2.7585,2.7585,2.7585,2.7225,2.6866,2.6602,2.5824,2.5113,2.4634,2.4186,2.3849,2.361,2.361,2.361,2.361,2.4246,2.4605,2.4605,2.5944,2.6602,2.6626,2.7285,2.7585,3.6835,3.8517,3.9849,4.0133,4.1388,4.232,4.1395,4.2385,4.3213,4.2335,4.1666,4.1546,4.2564,0.0,4.289,4.4766,4.6322,4.7402,4.7807,4.7523,4.6985,0.0,0.0,0.0,0.0,0.0,0.0,4.0213,0.0,4.0797,4.0979,4.1505,4.1809,4.1809,4.1754,4.1422,4.0758,4.0758,4.0714,4.0637,4.0169,3.9892,3.9805,3.9169,3.8842,3.8813,3.8614,3.8863,3.9373,3.9373,3.9373,3.9373,3.9373,3.9373,3.9373,3.9343,3.9379,3.917,3.7823,3.7375,3.7195,3.5908,3.5519,3.5519,3.5519,3.5519,3.5519,3.5519,3.5519,3.5519,3.5519,3.5011,3.4384,3.3664,3.3006,3.2348,3.166,3.1511,3.1511,3.1511,3.1511,3.1481,3.1451,3.0462,2.9412,2.8697,2.8064,2.7645,2.7585,2.7585,2.7585,2.7585,2.7585,2.7345,2.6716,2.6602,2.6033,2.4724,2.4634,2.4306,2.367,2.364,2.367,2.3699,2.4365,2.4694,2.4724,2.6004,2.6632,2.6686,2.7315,2.7585,3.809,4.0,4.1483,4.1081,4.1645,4.2095,4.1354,4.192,4.227,4.1071,4.0334,3.9847,3.9599,3.9911,0.0,4.2132,4.4736,0.0,4.7372,4.8209,0.0,4.7778,0.0,4.6016,4.5335,4.4655,0.0,0.0,4.2193,4.1651,4.235,4.2761,4.2918,4.2826,4.2842,4.2304,4.1171,4.1468,4.1513,4.1179,4.0793,4.0471,4.0217,3.9232,3.8998,3.9217,3.9054,3.9119,3.9373,3.9373,3.9373,3.9373,3.9373,3.9373,3.9313,3.8841,3.8661,3.8452,3.7165,3.7015,3.7195,3.5908,3.5519,3.5519,3.5519,3.5519,3.5519,3.5519,3.5519,3.5519,3.5519,3.537,3.4951,3.3784,3.3365,3.2916,3.175,3.1511,3.1511,3.1511,3.1511,3.1331,3.0823,3.0492,2.9894,2.8757,2.8457,2.8158,2.7675,2.7585,2.7585,2.7585,2.7585,2.7525,2.7375,2.6896,2.6243,2.5382,2.4874,2.4515,2.4365,2.4335,2.4575,2.5076,2.5764,2.6093,2.6093,2.6956,2.7345,2.7345,2.7525,2.7585,3.922,4.0676,4.1656,4.1103,4.1028,4.0891,3.9933,3.9987,3.9968,3.8875,3.7879,3.7225,3.7135,3.7434,3.8332,0.0,0.0,0.0,4.5873,4.686,4.7489,0.0,4.683,0.0,4.6322,4.5693,4.506,0.0,4.343,4.3076,4.358,4.4044,4.4093,4.3661,4.3935,4.3494,4.2211,4.2456,4.2441,4.2248,4.1744,4.1418,4.1242,4.0054,3.9632,3.9815,0.0,3.9301,3.9373,3.9373,3.9373,3.9373,3.9373,3.9373,3.9313,3.8631,3.8392,3.8212,3.6926,3.6716,3.6836,3.5818,3.5519,3.5519,3.5519,3.5519,3.5519,3.5519,3.5519,3.5519,3.5519,3.5519,3.525,3.4173,3.3694,3.3215,3.2138,3.172,3.1511,3.1511,3.1511,3.1391,3.1002,3.0702,3.0253,2.9535,2.8966,2.8457,2.8094,2.7794,2.7585,2.7585,2.7585,2.7585,2.7585,2.7255,2.6656,2.5674,2.5501,2.5202,2.4634,2.4874,2.5202,2.5585,2.6243,2.6602,2.6602,2.7285,2.7585,2.7585,2.7585,2.7585,4.0124,4.0978,4.1225,4.0576,3.9998,3.9222,3.7883,3.7427,3.707,3.6174,3.4986,3.4292,3.4981,3.519,3.6058,3.8601,0.0,4.268,4.3898,4.4766,4.5514,4.6112,4.5753,4.5663,4.6219,4.5873,4.5221,4.4359,4.4543,4.4586,4.4398,4.4931,4.4951,4.4232,4.4733,4.4496,4.329,4.32,4.317,4.314,4.2462,4.2141,4.2081,4.0816,4.0277,4.0247,3.9679,0.0,3.9373,3.9373,3.9373,3.9373,3.9373,3.9373,3.932,3.8542,3.8272,3.8093,3.6806,3.6357,3.6267,3.5699,3.5519,3.5519,3.5519,3.5519,3.5519,3.5519,3.5519,3.5519,3.5519,3.5519,3.534,3.4683,3.3963,3.3305,3.2617,3.1959,3.1511,3.1511,3.1511,3.1511,3.1511,3.1002,3.0612,3.0522,2.9564,2.8786,2.8637,2.8034,2.7585,2.7585,2.7585,2.7585,2.7585,2.7585,2.7076,2.5824,2.6273,2.6063,2.4903,2.5412,2.5764,2.5854,2.6422,2.6722,2.6722,2.7315,2.7585,2.7585,2.7585,2.7585,4.045,4.1254,4.1656,4.0199,3.9421,3.8539,3.6748,3.5835,0.0,0.0,3.2645,3.2228,3.2916,3.3484,3.4532,3.6656,3.9559,4.1841,4.262,4.4197,4.5334,0.0,0.0,0.0,0.0,0.0,0.0,0.0,0.0,4.5348,4.3906,4.4192,4.4363,4.4292,4.3877,4.3529,4.329,4.2791,4.256,4.256,4.1324,4.0756,4.0726,3.9948,3.9553,3.9589,3.9433,0.0,3.9373,3.9373,3.9373,3.9373,3.9373,3.9373,3.926,3.8033,3.7584,3.7404,3.6118,3.5669,3.5639,3.5549,3.5519,3.5519,3.5519,3.5519,3.5519,3.5519,3.5519,3.5519,3.5519,3.5519,3.534,3.4683,3.3963,3.3305,3.2617,3.1959,3.1511,3.1511,3.1511,3.1511,3.1511,3.1391,3.1122,3.0582,3.0313,2.9804,2.8727,2.8034,2.7585,2.7585,2.7585,2.7585,2.7585,2.7585,2.7255,2.6482,2.6542,2.6482,2.6243,2.6363,2.6716,2.7255,2.7375,2.7435,2.7435,2.7525,2.7585,2.7585,2.7585,2.7585,4.035,4.0902,4.0902,3.922,3.8191,3.7074,3.5115,0.0,0.0,0.0,3.0835,3.0223,3.0881,3.1509,0.0,3.4592,3.7404,3.9679,4.0696,4.2222,0.0,0.0,0.0,0.0,0.0,0.0,0.0,0.0,0.0,4.5072,4.4567,4.4341,4.4246,4.4276,4.3648,4.329,4.329,4.2671,4.241,4.2381,4.1025,4.0397,4.0367,3.9709,3.9373,3.9373,3.9373,0.0,3.9373,3.9373,3.9373,3.9373,3.9373,3.9373,3.926,3.7913,3.7404,3.7225,3.5938,3.5519,3.5519,3.5519,3.5519,3.5519,3.5519,3.5519,3.5519,3.5519,3.5519,3.5519,3.5519,3.5519,3.5429,3.51,3.4233,3.3305,3.2617,3.1959,3.1511,3.1511,3.1511,3.1511,3.1511,3.1511,3.1391,3.1062,3.0731,3.0283,2.9684,2.8727,2.8004,2.7645,2.7585,2.7585,2.7585,2.7585,2.7315,2.6632,2.6926,2.6956,2.6602,2.6956,2.7285,2.7585,2.7585,2.7585,2.7585,2.7585,2.7585,2.7585,2.7585,2.7585,4.0099,4.0425,4.0074,3.8291,3.701,3.5658,3.3519,3.1915,0.0,3.0397,2.9287,2.8577,2.9235,2.9774,3.0761,0.0,3.516,3.7255,3.8601,4.0157,4.1594,0.0,0.0,0.0,0.0,0.0,0.0,0.0,0.0,0.0,4.4855,4.4377,4.4107,4.4107,4.3479,4.312,4.312,4.2342,4.1991,4.1961,4.0756,4.0187,4.0157,3.9649,3.9373,3.9373,3.926,0.0,0.0,3.905,3.908,3.92,3.905,3.908,3.905,3.7704,3.7225,3.7045,3.5908,3.5519,3.5519,3.5519,3.5519,3.5519,3.5519,3.5519,3.5519,3.5519,3.5519,3.5519,3.5519,3.5519,3.5459,3.531,3.4472,3.3484,3.2677,3.2079,3.166,3.154,3.1511,3.1511,3.1511,3.1511,3.1511,3.1511,3.1032,3.0672,3.0522,2.9624,2.8697,2.7914,2.7675,2.7585,2.7585,2.7585,2.7375,2.6866,2.7315,2.7375,2.6836,2.7315,2.7585,2.7585,2.7585,2.7585,2.7585,2.7585,2.7585,2.7585,2.7585,2.7585,3.9747,4.0149,3.9998,3.7814,3.6433,3.4956,3.2418,0.0,2.9421,2.8531,2.8,2.7914,2.8577,2.8727,2.9415,3.1361,3.3425,3.522,3.6567,3.8901,0.0,0.0,0.0,0.0,0.0,0.0,0.0,0.0,0.0,0.0,4.3469,4.3409,4.3379,4.3379,4.2791,4.25,4.25,4.1205,4.0576,4.0576,3.9858,3.9499,3.9499,3.9439,3.9373,3.9379,3.8751,0.0,0.0,3.7823,3.7943,3.8422,3.7823,3.7973,3.8332,3.7045,3.6567,3.6477,3.5759,3.5519,3.5519,3.5519,3.5519,3.5519,3.5519,3.5519,3.5519,3.5519,3.5519,3.5519,3.5519,3.5519,3.534,3.4743,3.4503,3.4053,3.2796,3.2437,3.2228,3.163,3.1511,3.1511,3.1511,3.1511,3.1511,3.1511,3.1451,3.1182,3.0582,3.0402,2.9864,2.8637,2.7974,2.7585,2.7585,2.7585,2.7555,2.7495,2.7555,2.7555,2.7495,2.7555,2.7585,2.7585,2.7585,2.7585,2.7585,2.7585,2.7585,2.7585,2.7585,2.7585,3.8492,3.9094,3.9069,3.7186,3.5629,3.3947,3.1668,3.005,2.8821,2.8249,2.7852,2.7675,2.7944,2.8338,2.9116,3.0672,3.2258,3.3903,3.5639,3.7135,0.0,0.0,0.0,0.0,0.0,0.0,0.0,0.0,0.0,0.0,4.329,4.329,4.329,4.329,4.2701,4.241,4.241,4.1055,4.0397,4.0397,3.9738,3.9373,3.9373,3.9373,3.9373,3.9343,3.8691,0.0,0.0,3.7674,3.7793,3.8332,3.7674,3.7823,3.8242,3.6956,3.6477,3.6387,3.5729,3.5519,3.5519,3.5519,3.5519,3.5519,3.5519,3.5519,3.5519,3.5519,3.5519,3.5519,3.5519,3.5519,3.5429,3.516,3.4771,3.4354,3.3814,3.3066,3.2407,3.2138,3.178,3.1511,3.1511,3.1511,3.1511,3.1511,3.1511,3.1391,3.1122,3.0761,3.0313,2.9804,2.8816,2.8034,2.7615,2.7585,2.7585,2.7585,2.7585,2.7585,2.7585,2.7585,2.7585,2.7585,2.7585,2.7585,2.7585,2.7585,2.7585,2.7585,2.7585,2.7585,3.7236,3.8065,3.8216,3.6558,3.5027,3.3384,3.1255,2.9712,2.8577,2.8192,2.7852,2.7585,2.7585,2.8004,2.8667,2.9774,3.1061,3.2467,3.4113,3.54,0.0,0.0,0.0,0.0,0.0,0.0,0.0,0.0,0.0,0.0,4.329,4.315,4.303,4.303,4.2402,4.2021,4.1811,4.0666,4.0098,4.0098,3.9649,3.9373,3.9373,3.9373,3.9373,3.9343,3.8482,0.0,0.0,3.7195,3.7225,3.7764,3.7105,3.7255,3.7704,3.6596,3.6178,3.6118,3.5669,3.5519,3.5519,3.5519,3.5519,3.5519,3.5519,3.5519,3.5519,3.5519,3.5519,3.5519,3.5519,3.5519,3.5519,3.5519,3.513,3.4711,3.4563,3.3754,3.2976,3.2587,3.2108,3.172,3.154,3.1511,3.1511,3.1511,3.1511,3.1511,3.1511,3.1092,3.0731,3.0522,2.9714,2.8906,2.8244,2.8004,2.7914,2.7914,2.7705,2.7585,2.7585,2.7585,2.7675,2.7884,2.7914,2.8004,2.8184,2.8184,2.8184,2.8184,2.8184,2.8184,3.6132,3.7211,3.7613,3.5934,3.468,3.3384,3.1255,2.9712,2.8577,2.8192,2.7852,2.7585,2.7585,2.7615,2.7824,2.8517,2.9684,3.0761,3.1451,3.3813,0.0,0.0,0.0,0.0,0.0,0.0,0.0,0.0,0.0,0.0,4.329,4.2731,4.241,4.241,4.1782,4.1085,4.0427,3.9768,3.9403,3.9403,3.9373,3.9373,3.9373,3.9373,3.9373,0.0,0.0,0.0,0.0,3.6058,3.5908,3.6447,3.5789,3.5938,3.6417,3.5759,3.5519,3.5519,3.5519,3.5519,3.5519,3.5519,3.5519,3.5519,3.5519,3.5519,3.5519,3.5519,3.5519,3.5519,3.5519,3.5519,3.5519,3.5519,3.5489,3.531,3.4653,3.4503,3.4114,3.2766,3.2467,3.2258,3.16,3.1511,3.1511,3.1511,3.1511,3.1511,3.1511,3.1481,3.1241,3.0582,3.0492,3.0253,2.9651,2.8966,2.8577,2.8577,2.7974,2.7585,2.7585,2.7585,2.7914,2.8577,2.8577,2.8906,2.9592,2.9592,2.9592,2.9592,2.9592,2.9592,3.3244,3.4349,3.4977,3.4073,3.2742,3.1271,2.9936,2.8805,2.7974,2.757,2.753,2.7585,2.7585,2.7585,2.7824,2.8487,2.8936,2.9894,0.0,0.0,0.0,0.0,0.0,0.0,0.0,0.0,0.0,0.0,0.0,0.0,4.2701,4.25,4.241,4.241,4.1332,4.0606,4.0397,3.9738,3.9373,3.9373,3.9373,3.9373,3.9373,3.9373,3.9373,0.0,0.0,0.0,0.0,3.6028,3.5908,3.6417,3.5759,3.5908,3.6417,3.5759,3.5519,3.5519,3.5519,3.5519,3.5519,3.5519,3.5519,3.5519,3.5519,3.5519,3.5519,3.5519,3.5519,3.5519,3.5519,3.5519,3.5519,3.5519,3.5519,3.5459,3.522,3.4801,3.4264,3.3335,3.2826,3.2288,3.163,3.1511,3.1511,3.1511,3.1511,3.1511,3.1511,3.1511,3.1421,3.1212,3.1182,3.0761,2.9711,2.9412,2.9086,2.8637,2.8397,2.8094,2.7615,2.8064,2.8368,2.8607,2.9056,2.9412,2.9621,2.9621,2.9621,2.9621,2.9621,2.9804,3.0468,3.1938,3.2767,3.2014,3.0909,2.9681,2.8705,2.799,2.7456,2.723,2.7208,2.7225,2.7225,2.7016,2.7051,2.7739,2.8038,2.9056,0.0,0.0,0.0,0.0,0.0,0.0,0.0,0.0,0.0,0.0,0.0,0.0,4.241,4.1931,4.1662,4.1662,4.0816,4.0277,4.0038,3.9619,3.9373,3.9373,3.9373,3.9373,3.9373,3.9373,3.9373,0.0,0.0,0.0,0.0,3.6028,3.5759,3.6058,3.5669,3.5759,3.6058,3.5639,3.5519,3.5519,3.5519,3.5519,3.5519,3.5519,3.5519,3.5519,3.5519,3.5519,3.5519,3.5519,3.5519,3.5519,3.5519,3.5519,3.5519,3.5519,3.5519,3.5519,3.5519,3.516,3.4592,3.3664,3.3155,3.2557,3.166,3.1511,3.1511,3.1511,3.1511,3.1511,3.1511,3.1511,3.1511,3.1511,3.1511,3.1182,3.0372,3.0073,2.9744,2.9355,2.9086,2.8813,2.8364,2.8783,2.9086,2.9325,2.9714,3.0043,3.0313,3.0313,3.0313,3.0313,3.0313,3.0522,0.0,2.9804,3.0859,2.9854,2.9176,2.847,2.7582,2.7144,0.0,2.7059,2.6828,2.6602,2.6602,2.6093,2.5914,2.6632,2.7255,2.8364,0.0,3.3006,0.0,0.0,0.0,0.0,0.0,0.0,0.0,0.0,0.0,0.0,4.2321,4.1085,4.0367,4.0337,4.0337,4.0038,3.9439,3.9373,3.9373,3.9373,3.9373,3.9373,3.9373,3.9373,3.9373,0.0,0.0,0.0,0.0,3.6028,3.5519,3.5519,3.5519,3.5519,3.5519,3.5519,3.5519,3.5519,3.5519,3.5519,3.5519,3.5519,3.5519,3.5519,3.5519,3.5519,3.5519,3.5519,3.5519,3.5519,3.5519,3.5519,3.5519,3.5519,3.5519,3.5519,3.5519,3.5519,3.513,3.3814,3.3574,3.3155,3.1869,3.163,3.163,3.163,3.16,3.157,3.157,3.154,3.1511,3.1511,3.1511,3.1511,3.1511,3.0913,3.0552,3.0492,2.9953,2.9651,2.9621,2.9651,2.9924,3.0492,3.0552,3.0881,3.1511,3.1511,3.1511,3.1511,3.1511,3.1511,2.4983,0.0,2.8197,2.7946,2.748,2.6924,0.0,2.626,2.627,2.584,2.6209,2.6602,2.6602,2.6452,2.6752,2.7949,2.8248,2.9235,3.1689,0.0,0.0,0.0,0.0,0.0,0.0,0.0,0.0,0.0,0.0,4.2171,4.1662,4.0846,4.0157,3.9679,3.9649,3.9589,3.9373,3.9373,3.9373,3.9373,3.9373,3.9373,3.9373,3.9373,3.9373,0.0,0.0,0.0,3.7315,3.6028,3.5519,3.5519,3.5519,3.5519,3.5519,3.5519,3.5519,3.5519,3.5519,3.5519,3.5519,3.5519,3.5519,3.5519,3.5519,3.5519,3.5519,3.5519,3.5519,3.5519,3.5519,3.5519,3.5519,3.5519,3.5519,3.5519,3.5519,3.5519,3.525,3.4444,3.4264,3.3993,3.3185,3.3036,3.3036,3.3036,3.2587,3.2258,3.2258,3.1809,3.1511,3.1511,3.1511,3.1511,3.1511,3.1361,3.1032,3.0522,3.0372,3.0073,2.9621,3.0043,3.0372,3.0492,3.1002,3.1331,3.1511,3.1511,3.1511,3.1511,3.1511,3.1511,2.3929,2.5234,2.6389,2.5912,2.5561,2.5228,2.4702,2.479,2.4995,2.4901,2.5306,2.5794,2.6093,2.6123,2.6572,2.7919,2.8637,0.0,0.0,0.0,0.0,0.0,0.0,0.0,0.0,0.0,0.0,0.0,0.0,4.1782,4.1414,4.0457,3.9798,3.9403,3.9373,3.9373,3.9373,3.9373,3.9373,3.9373,3.9373,3.9373,3.9373,3.9373,3.9373,0.0,0.0,0.0,3.7315,3.6028,3.5519,3.5519,3.5519,3.5519,3.5519,3.5519,3.5519,3.5519,3.5519,3.5519,3.5519,3.5519,3.5519,3.5519,3.5519,3.5519,3.5519,3.5519,3.5519,3.5519,3.5519,3.5519,3.5519,3.5519,3.5519,3.5519,3.5519,3.5519,3.531,3.4653,3.4503,3.4294,3.3604,3.3484,3.3484,3.3484,3.3185,3.2856,3.2557,3.2168,3.1839,3.154,3.1511,3.1511,3.1511,3.1511,3.1361,3.0972,3.0943,3.0821,3.0492,3.0791,3.0943,3.0943,3.1301,3.1511,3.1511,3.1511,3.1511,3.1511,3.1511,3.166,2.3703,2.4582,2.5159,2.433,2.413,2.4008,2.3531,2.3608,2.3915,2.4368,2.465,2.5067,2.5747,2.589,0.0,2.7944,0.0,0.0,3.6896,0.0,0.0,0.0,0.0,0.0,0.0,0.0,0.0,0.0,0.0,4.1362,4.1235,4.0068,3.9373,3.9373,3.9373,3.9373,3.9373,3.9373,3.9373,3.9373,3.9373,3.9373,3.9373,3.9373,3.9373,3.9313,0.0,0.0,3.7315,3.6028,3.5519,3.5519,3.5519,3.5519,3.5519,3.5519,3.5519,3.5519,3.5519,3.5519,3.5519,3.5519,3.5519,3.5519,3.5519,3.5519,3.5519,3.5519,3.5519,3.5519,3.5519,3.5519,3.5519,3.5519,3.5519,3.5519,3.5519,3.5519,3.534,3.4741,3.4653,3.4474,3.3903,3.3814,3.3814,3.3814,3.3724,3.3455,3.2886,3.2736,3.2467,3.1869,3.172,3.166,3.166,3.157,3.1511,3.1511,3.1511,3.1511,3.1511,3.1511,3.1511,3.1511,3.1511,3.1511,3.1511,3.1511,3.1511,3.1511,3.1511,3.1869,2.3095,2.3753,2.433,2.4575,2.4675,2.4659,2.4498,2.4585,2.4723,2.4819,2.5423,2.6194,2.6971,2.7215,2.8068,0.0,0.0,3.5459,0.0,0.0,0.0,0.0,0.0,0.0,0.0,0.0,0.0,0.0,0.0,4.1145,4.0576,3.9828,3.9373,3.9373,3.9373,3.9373,3.9373,3.9373,3.9373,3.9373,3.9373,3.9373,3.9373,3.9373,3.9373,3.9313,0.0,3.7404,3.7315,3.6028,3.5519,3.5519,3.5519,3.5519,3.5519,3.5519,3.5519,3.5519,3.5519,3.5519,3.5519,3.5519,3.5519,3.5519,3.5519,3.5519,3.5519,3.5519,3.5519,3.5519,3.5519,3.5519,3.5519,3.5519,3.5519,3.5519,3.5519,3.5519,3.5459,3.537,3.534,3.531,3.522,3.519,3.519,3.519,3.4711,3.4324,3.4204,3.3694,3.3305,3.3215,3.2706,3.2348,3.2348,3.1839,3.1511,3.1511,3.1511,3.1511,3.1511,3.1511,3.1511,3.1511,3.1511,3.1511,3.1511,3.1511,3.1511,3.1511,3.1511,3.1869,2.2945,2.3296,2.3722,2.4575,2.48,2.4753,2.4602,2.4498,2.4573,2.4888,2.5643,2.6526,0.0,0.0,3.0133,3.3155,0.0,3.6836,0.0,0.0,0.0,0.0,0.0,0.0,0.0,0.0,0.0,0.0,0.0,0.0,4.0427,3.9768,3.9373,3.9373,3.9373,3.9373,3.9373,3.9373,3.9373,3.9373,3.9373,3.923,3.8871,3.8871,3.8661,3.8272,0.0,3.6896,3.6836,3.5878,3.5519,3.5519,3.5519,3.5519,3.5519,3.5519,3.5519,3.5519,3.5519,3.5519,3.5519,3.5519,3.5519,3.5519,3.5519,3.5519,3.5519,3.5519,3.5519,3.5519,3.5519,3.5519,3.5519,3.5519,3.5519,3.5519,3.5519,3.5519,3.5519,3.5519,3.5519,3.5519,3.5519,3.5519,3.5519,3.5519,3.525,3.4891,3.4563,3.4234,3.3873,3.3544,3.3215,3.3036,3.3036,3.2437,3.1899,3.154,3.1511,3.1511,3.1511,3.1511,3.1511,3.1511,3.1511,3.1511,3.1511,3.1869,3.2019,3.2049,3.2407,3.2946,2.2769,2.2819,2.2995,2.4123,2.46,2.4796,2.4778,2.4684,2.48,2.5443,2.6385,0.0,0.0,3.0156,0.0,3.507,3.6178,0.0,0.0,0.0,0.0,0.0,0.0,0.0,0.0,0.0,0.0,0.0,0.0,0.0,4.0187,3.9679,3.9373,3.9373,3.9373,3.9373,3.9373,3.9373,3.9373,3.9373,3.926,3.8901,3.8392,3.8242,3.7883,3.7375,3.6746,3.6477,3.6447,3.5789,3.5519,3.5519,3.5519,3.5519,3.5519,3.5519,3.5519,3.5519,3.5519,3.5519,3.5519,3.5519,3.5519,3.5519,3.5519,3.5519,3.5519,3.5519,3.5519,3.5519,3.5519,3.5519,3.5519,3.5519,3.5519,3.5519,3.5519,3.5519,3.5519,3.5519,3.5519,3.5519,3.5519,3.5519,3.5519,3.5519,3.5519,3.531,3.4771,3.4711,3.4563,3.4023,3.3814,3.3664,3.3514,3.2886,3.2258,3.178,3.16,3.1511,3.1511,3.1511,3.1511,3.1511,3.1511,3.157,3.175,3.2228,3.2587,3.2766,3.3275,3.3844,2.2221,2.1995,2.187,2.2945,2.4023,2.4965,2.5615,2.5986,2.6355,2.7086,2.8398,0.0,0.0,3.2874,3.4472,3.537,3.6537,0.0,0.0,0.0,0.0,0.0,0.0,0.0,0.0,0.0,0.0,0.0,0.0,0.0,3.9529,3.9439,3.9373,3.9373,3.9373,3.9373,3.9373,3.9373,3.9373,3.9373,3.8781,3.8452,3.8362,3.7764,3.7464,3.7375,3.6746,3.6477,3.6447,3.5789,3.5519,3.5519,3.5519,3.5519,3.5519,3.5519,3.5519,3.5519,3.5519,3.5519,3.5519,3.5519,3.5519,3.5519,3.5519,3.5519,3.5519,3.5519,3.5519,3.5519,3.5519,3.5519,3.5519,3.5519,3.5519,3.5519,3.5519,3.5519,3.5519,3.5519,3.5519,3.5519,3.5519,3.5519,3.5519,3.5519,3.5519,3.5489,3.5429,3.5429,3.54,3.537,3.4801,3.4204,3.3544,3.2886,3.2497,3.2437,3.1839,3.1511,3.1511,3.1511,3.1511,3.1511,3.1511,3.1809,3.2437,3.2497,3.2826,3.3425,3.3484,3.3844,2.2644,2.2422,2.2347,2.3797,2.4474,2.5059,2.6038,2.6873,2.7736,2.8838,3.0378,0.0,0.0,0.0,3.4951,3.6447,0.0,0.0,0.0,0.0,0.0,0.0,0.0,0.0,0.0,0.0,0.0,0.0,0.0,0.0,3.9403,3.9373,3.9373,3.9373,3.9373,3.9373,3.9373,3.899,3.8781,3.8781,3.8512,3.7973,3.7195,3.6956,3.6596,3.6207,3.5968,3.5878,3.5848,3.5609,3.5519,3.5519,3.5519,3.5519,3.5519,3.5519,3.5519,3.5519,3.5519,3.5519,3.5519,3.5519,3.5519,3.5519,3.5519,3.5519,3.5519,3.5519,3.5519,3.5519,3.5519,3.5519,3.5519,3.5519,3.5519,3.5519,3.5519,3.5519,3.5519,3.5519,3.5519,3.5519,3.5519,3.5519,3.5519,3.5519,3.5519,3.5519,3.5519,3.5519,3.5519,3.5519,3.528,3.4831,3.4173,3.3873,3.3574,3.3155,3.2079,3.169,3.2079,3.2108,3.2318,3.2736,3.2736,3.2886,3.3125,3.3544,3.3873,3.4113,3.4532,3.4891,2.2744,2.2472,2.2422,2.3873,2.4525,2.5159,2.6474,2.757,2.8746,3.0095,3.2074,3.4037,3.5522,0.0,0.0,0.0,0.0,0.0,0.0,0.0,0.0,0.0,0.0,0.0,0.0,0.0,0.0,0.0,0.0,0.0,0.0,3.9373,3.932,3.911,3.908,3.899,3.8781,3.8302,3.7973,3.7793,3.7793,3.7315,3.6477,3.6267,3.5938,3.5519,3.5519,3.5519,3.5519,3.5519,3.5519,3.5519,3.5519,3.5519,3.5519,3.5519,3.5519,3.5519,3.5519,3.5519,3.5519,3.5519,3.5519,3.5519,3.5519,3.5519,3.5519,3.5519,3.5519,3.5519,3.5519,3.5519,3.5519,3.5519,3.5519,3.5519,3.5519,3.5519,3.5519,3.5519,3.5519,3.5519,3.5519,3.5519,3.5519,3.5519,3.5519,3.5519,3.5519,3.5519,3.5519,3.5519,3.5519,3.531,3.4831,3.4623,3.4324,3.3844,3.2766,3.2318,3.2796,3.2826,3.3036,3.3484,3.3484,3.3604,3.3814,3.4294,3.4623,3.4833,3.528,3.5519,2.2322,2.192,2.1769,2.2844,2.3973,2.5285,2.6917,2.8147,2.9328,3.073,3.3532,3.5899,3.6424,3.6507,0.0,0.0,0.0,0.0,0.0,0.0,0.0,0.0,0.0,0.0,0.0,0.0,0.0,0.0,0.0,0.0,0.0,3.9373,3.911,3.8422,3.8392,3.8063,3.7434,3.7404,3.7105,3.6477,3.6477,3.6477,3.6447,3.5789,3.5519,3.5519,3.5519,3.5519,3.5519,3.5519,3.5519,3.5519,3.5519,3.5519,3.5519,3.5519,3.5519,3.5519,3.5519,3.5519,3.5519,3.5519,3.5519,3.5519,3.5519,3.5519,3.5519,3.5519,3.5519,3.5519,3.5519,3.5519,3.5519,3.5519,3.5519,3.5519,3.5519,3.5519,3.5519,3.5519,3.5519,3.5519,3.5519,3.5519,3.5519,3.5519,3.5519,3.5519,3.5519,3.5519,3.5519,3.5519,3.5519,3.5519,3.5519,3.4891,3.4503,3.4503,3.3873,3.3514,3.3514,3.3514,3.3514,3.3514,3.3514,3.3844,3.4503,3.4503,3.4831,3.5519,3.5519,3.5519,2.2769,2.3075,2.3527,2.4607,2.541,2.6549,2.8574,2.9603,3.0969,0.0,3.5553,3.6641,3.7645,0.0,0.0,0.0,0.0,0.0,0.0,0.0,0.0,0.0,0.0,0.0,0.0,0.0,0.0,0.0,0.0,0.0,0.0,3.896,3.8601,3.8392,3.7943,3.7614,3.7404,3.6985,3.6656,3.6477,3.6028,3.5789,3.5789,3.5579,3.5519,3.5519,3.5519,3.5519,3.5519,3.5519,3.5519,3.5519,3.5519,3.5519,3.5519,3.5519,3.5519,3.5519,3.5519,3.5519,3.5519,3.5519,3.5519,3.5519,3.5519,3.5519,3.5519,3.5519,3.5519,3.5519,3.5519,3.5519,3.5519,3.5519,3.5519,3.5519,3.5519,3.5519,3.5519,3.5519,3.5519,3.5519,3.5519,3.5519,3.5519,3.5519,3.5519,3.5519,3.5519,3.5519,3.5519,3.5519,3.5519,3.5519,3.5519,3.531,3.519,3.519,3.5011,3.4711,3.4234,3.4204,3.4412,3.4891,3.4921,3.5011,3.519,3.519,3.531,3.5519,3.5519,3.5519,2.2895,2.3697,2.4582,2.5661,2.6691,2.8021,3.0256,0.0,0.0,0.0,3.6624,3.7284,3.821,3.8063,0.0,0.0,0.0,0.0,0.0,0.0,0.0,0.0,0.0,0.0,0.0,0.0,0.0,0.0,0.0,0.0,0.0,3.8212,3.7883,3.7644,3.7255,3.6926,3.6656,3.6267,3.6088,3.6088,3.5699,3.5519,3.5519,3.5519,3.5519,3.5519,3.5519,3.5519,3.5519,3.5519,3.5519,3.5519,3.5519,3.5519,3.5519,3.5519,3.5519,3.5519,3.5519,3.5519,3.5519,3.5519,3.5519,3.5519,3.5519,3.5519,3.5519,3.5519,3.5519,3.5519,3.5519,3.5519,3.5519,3.5519,3.5519,3.5519,3.5519,3.5519,3.5519,3.5519,3.5519,3.5519,3.5519,3.5519,3.5519,3.5519,3.5519,3.5519,3.5519,3.5519,3.5519,3.5519,3.5519,3.5519,3.5519,3.5519,3.5519,3.5519,3.5519,3.531,3.4891,3.4891,3.507,3.5489,3.5519,3.5519,3.5519,3.5519,3.5519,3.5519,3.5519,3.5519,2.2719,2.3898,2.5084,2.6223,2.777,0.0,3.1662,3.287,3.4071,3.5864,0.0,3.7774,3.8359,0.0,0.0,0.0,0.0,0.0,0.0,0.0,0.0,0.0,0.0,0.0,0.0,0.0,0.0,0.0,0.0,0.0,0.0,3.7345,3.7075,3.6507,3.6417,3.6118,3.5519,3.5519,3.5519,3.5519,3.5519,3.5519,3.5519,3.5519,3.5519,3.5519,3.5519,3.5519,3.5519,3.5519,3.5519,3.5519,3.5519,3.5519,3.5519,3.5519,3.5519,3.5519,3.5519,3.5519,3.5519,3.5519,3.5519,3.5519,3.5519,3.5519,3.5519,3.5519,3.5519,3.5519,3.5519,3.5519,3.5519,3.5519,3.5519,3.5519,3.5519,3.5519,3.5519,3.5519,3.5519,3.5519,3.5519,3.5519,3.5519,3.5579,3.5639,3.5669,3.5669,3.5669,3.5669,3.5609,3.5579,3.5579,3.5519,3.5519,3.5519,3.5519,3.5519,3.5519,3.5519,3.5519,3.5519,3.5519,3.5519,3.5519,3.5519,3.5519,3.5519,3.5519,3.5519,3.5549,2.2196,2.3597,0.0,2.6223,2.8373,3.0482,3.1361,3.2628,3.4071,3.5864,3.6972,3.7919,0.0,0.0,0.0,0.0,0.0,0.0,0.0,0.0,0.0,0.0,0.0,0.0,0.0,0.0,0.0,0.0,0.0,0.0,3.7434,3.6956,3.6626,3.6477,3.5998,3.5639,3.5519,3.5519,3.5519,0.0,3.5519,3.5519,3.5519,3.5519,3.5519,3.5519,3.5519,3.5519,3.5519,3.5519,3.5519,3.5519,3.5519,3.5519,3.5519,3.5519,3.5519,3.5519,3.5519,3.5519,3.5519,3.5519,3.5519,3.5519,3.5519,3.5519,3.5519,3.5519,3.5519,3.5519,3.5519,3.5519,3.5519,3.5519,3.5519,3.5519,3.5519,3.5519,3.5519,3.5519,3.5519,3.5519,3.5519,3.5519,3.5669,3.6207,3.6686,3.7015,3.7015,3.7015,3.6806,3.6327,3.6267,3.6058,3.5549,3.5519,3.5519,3.5519,3.5519,3.5519,3.5519,3.5519,3.5519,3.5519,3.5519,3.5519,3.5519,3.5519,3.5519,3.5519,3.5519,3.5789,2.187,2.3521,0.0,2.7519,0.0,3.0507,3.1537,3.2716,3.4071,3.5864,3.6972,0.0,0.0,0.0,0.0,0.0,0.0,0.0,0.0,0.0,0.0,0.0,0.0,0.0,0.0,0.0,0.0,0.0,0.0,3.6836,3.6507,3.6178,3.6028,3.6028,3.5699,3.5519,3.5519,3.5519,3.5519,3.5519,3.5519,3.5519,3.5519,3.5519,3.5519,3.5519,3.5519,3.5519,3.5519,3.5519,3.5519,3.5519,3.5519,3.5519,3.5519,3.5519,3.5519,3.5519,3.5519,3.5519,3.5519,3.5519,3.5519,3.5519,3.5519,3.5519,3.5519,3.5519,3.5519,3.5519,3.5519,3.5519,3.5519,3.5519,3.5519,3.5519,3.5519,3.5519,3.5519,3.5519,3.5519,3.5519,3.5519,3.5759,3.6207,3.6836,3.7195,3.7404,3.7404,3.7404,3.7285,3.6956,3.6656,3.6357,3.5998,3.5699,3.5519,3.5519,3.5519,3.5519,3.5519,3.5519,3.5519,3.5519,3.5519,3.5519,3.5519,3.5519,3.5519,3.5519,3.5818,3.6148,2.1468,2.3452,2.5661,2.8624,2.9541,0.0,3.1543,3.2684,3.394,3.5641,0.0,0.0,0.0,0.0,0.0,0.0,0.0,0.0,0.0,0.0,0.0,0.0,0.0,0.0,0.0,0.0,0.0,0.0,0.0,3.6088,3.5519,3.5519,3.5519,3.5519,3.5519,3.5519,3.5519,3.5519,3.5519,3.5519,3.5519,3.5519,3.5519,3.5519,3.5519,3.5519,3.5519,3.5519,3.5519,3.5519,3.5519,3.5519,3.5519,3.5519,3.5519,3.5519,3.5519,3.5519,3.5519,3.5519,3.5519,3.5519,3.5519,3.5519,3.5519,3.5519,3.5519,3.5519,3.5519,3.5519,3.5519,3.5519,3.5519,3.5519,3.5519,3.5519,3.5519,3.5519,3.5519,3.5519,3.5579,3.5669,3.5669,3.6297,3.6985,3.7494,3.7674,3.7764,3.7764,3.7764,3.7704,3.7584,3.7135,3.6776,3.6656,3.6148,3.5848,3.5848,3.5848,3.5848,3.5848,3.5848,3.5848,3.5848,3.5609,3.5519,3.5519,3.5519,3.5579,3.5699,3.6237,3.6596,2.044,0.0,2.5837,0.0,2.847,2.9504,0.0,0.0,3.3252,0.0,0.0,0.0,0.0,0.0,0.0,0.0,0.0,0.0,0.0,0.0,0.0,0.0,0.0,0.0,0.0,0.0,0.0,0.0,3.5968,3.5609,3.5519,3.5519,3.5519,3.5519,3.5519,3.5519,3.5519,3.5519,3.5519,3.5519,3.5519,3.5519,3.5519,3.5519,3.5519,3.5519,3.5519,3.5519,3.5519,3.5519,3.5519,3.5519,3.5519,3.5519,3.5519,3.5519,3.5519,3.5519,3.5519,3.5519,3.5519,3.5519,3.5519,3.5519,3.5519,3.5519,3.5519,3.5519,3.5519,3.5519,3.5519,3.5519,3.5519,3.5519,3.5519,3.5519,3.5519,3.5519,3.5519,3.5519,3.5968,3.6357,3.6357,3.7345,3.8153,3.8242,3.8781,3.914,3.914,3.914,3.8931,3.8332,3.8182,3.7913,3.7345,3.7195,3.7165,3.7165,3.7165,3.7165,3.7165,3.7165,3.7165,3.7165,3.6058,3.5519,3.5519,3.5519,3.5789,3.6357,3.6447,3.7075,2.0891,2.3125,2.5109,0.0,2.786,2.882,3.0485,0.0,3.3111,0.0,0.0,0.0,0.0,0.0,0.0,0.0,0.0,0.0,0.0,0.0,0.0,0.0,0.0,0.0,0.0,0.0,0.0,0.0,3.5669,3.5519,3.5519,3.5519,3.5519,3.5519,3.5519,3.5519,3.5519,3.5519,3.5519,3.5519,3.5519,3.5519,3.5519,3.5519,3.5519,3.5519,3.5519,3.5519,3.5519,3.5519,3.5519,3.5519,3.5519,3.5519,3.5519,3.5519,3.5519,3.5519,3.5519,3.5519,3.5519,3.5519,3.5519,3.5519,3.5519,3.5519,3.5579,3.5938,3.6058,3.6148,3.6477,3.6567,3.6567,3.6567,3.6567,3.6567,3.6567,3.5998,3.5609,3.5998,3.6297,3.6716,3.7434,3.8033,3.8512,3.8901,3.923,3.9373,3.9373,3.9373,3.932,3.899,3.8631,3.8272,3.7973,3.7614,3.7404,3.7404,3.7404,3.7404,3.7404,3.7404,3.7404,3.7404,3.6866,3.6567,3.6567,3.6567,3.6716,3.7015,3.7375,3.7853,0.0,0.0,2.4247,2.6198,2.7327,2.8395,0.0,0.0,0.0,0.0,0.0,0.0,0.0,0.0,0.0,0.0,0.0,0.0,0.0,0.0,0.0,0.0,0.0,0.0,0.0,0.0,0.0,0.0,3.5519,3.5519,3.5519,3.5519,3.5519,3.5519,3.5519,3.5519,3.5519,3.5519,3.5519,3.5519,3.5519,3.5519,3.5519,3.5519,3.5519,3.5519,3.5519,3.5519,3.5519,3.5519,3.5519,3.5519,3.5519,3.5519,3.5519,3.5519,3.5519,3.5519,3.5519,3.5519,3.5519,3.5519,3.5519,3.5519,3.5519,3.5519,3.5639,3.6297,3.6477,3.6626,3.7255,3.7404,3.7404,3.7404,3.7404,3.7404,3.7404,3.6656,3.6118,3.6626,3.6866,3.7255,3.8212,3.8542,3.8811,3.9313,3.9373,3.9373,3.9373,3.9373,3.9373,3.9373,3.896,3.8661,3.8661,3.8212,3.7913,3.7913,3.7913,3.7913,3.7913,3.7913,3.7913,3.7913,3.7913,3.7764,3.7404,3.7404,3.7494,3.7674,3.8153,3.8482,0.0,2.19,0.0,2.4624,2.6633,0.0,0.0,0.0,0.0,0.0,0.0,0.0,0.0,0.0,0.0,0.0,0.0,0.0,0.0,0.0,0.0,0.0,0.0,0.0,0.0,0.0,0.0,0.0,3.5519,3.5519,3.5519,3.5519,3.5519,3.5519,3.5519,3.5519,3.5519,3.5519,3.5519,3.5519,3.5519,3.5519,3.5519,3.5519,3.5519,3.5519,3.5519,3.5519,3.5519,3.5519,3.5519,3.5519,3.5519,3.5519,3.5519,3.5519,3.5519,3.5519,3.5519,3.5519,3.5519,3.5519,3.5519,3.5519,3.5519,3.5519,3.5639,3.6297,3.6477,3.6626,3.7255,3.7404,3.7404,3.7404,3.7404,3.7404,3.7404,3.7375,3.7315,3.7345,3.7853,3.8302,3.8392,3.8931,3.9379,3.9373,3.9373,3.9373,3.9373,3.9373,3.9373,3.9373,3.9379,3.9379,3.9379,3.9313,3.932,3.932,3.932,3.932,3.932,3.932,3.932,3.932,3.932,3.8691,3.7404,3.7404,3.7734,3.8332,3.8362,3.8751,0.0,0.0,0.0,2.3954,2.548,2.7014,0.0,0.0,0.0,0.0,0.0,0.0,0.0,0.0,0.0,0.0,0.0,0.0,0.0,0.0,0.0,0.0,0.0,0.0,0.0,0.0,0.0,0.0,0.0,3.5519,3.5519,3.5519,3.5519,3.5519,3.5519,3.5519,3.5519,3.5519,3.5519,3.5519,3.5519,3.5519,3.5519,3.5519,3.5519,3.5519,3.5519,3.5519,3.5519,3.5519,3.5519,3.5519,3.5519,3.5519,3.5519,3.5519,3.5519,3.5519,3.5519,3.5519,3.5579,3.5998,3.6118,3.6207,3.6596,3.6716,3.6866,3.7524,3.7704,3.7853,3.8542,3.8691,3.8691,3.8691,3.8691,3.8691,3.8691,3.8033,3.7524,3.7973,3.8242,3.8542,3.896,3.926,3.9373,3.9373,3.9373,3.9373,3.9373,3.9373,3.9373,3.9373,3.9373,3.9373,3.9373,3.9373,3.9373,3.9373,3.9373,3.9373,3.9373,3.9373,3.9373,3.9373,3.9373,3.9134,3.8691,3.8691,3.8811,3.905,3.905,3.917,1.9925,0.0,0.0,0.0,0.0,2.5786,0.0,0.0,0.0,0.0,0.0,0.0,0.0,0.0,0.0,0.0,0.0,0.0,0.0,0.0,0.0,0.0,0.0,0.0,0.0,0.0,0.0,0.0,0.0,0.0,3.5519,3.5519,3.5519,3.5519,3.5519,3.5519,3.5519,3.5519,3.5519,3.5519,3.5519,3.5519,3.5519,3.5519,3.5519,3.5519,3.5519,3.5519,3.5519,3.5519,3.5519,3.5519,3.5519,3.5519,3.5519,3.5519,3.5519,3.5519,3.5519,3.5639,3.5908,3.6357,3.6626,3.6866,3.7285,3.7404,3.7554,3.8212,3.8392,3.8542,3.923,3.9373,3.9373,3.9373,3.9373,3.9373,3.9373,3.8686,3.8212,3.8661,3.8751,3.8871,3.9313,3.9373,3.9373,3.9373,3.9373,3.9373,3.9373,3.9373,3.9373,3.9373,3.9373,3.9373,3.9373,3.9373,3.9373,3.9373,3.9373,3.9373,3.9373,3.9373,3.9373,3.9373,3.9373,3.9373,3.9373,3.9373,3.9373,3.9373,3.9373,3.9373,0.0,0.0,0.0,0.0,0.0,0.0,0.0,0.0,0.0,0.0,0.0,0.0,0.0,0.0,0.0,0.0,0.0,0.0,0.0,0.0,0.0,0.0,0.0,0.0,0.0,0.0,0.0,0.0,3.5519,3.5519,3.5519,3.5519,3.5519,3.5519,3.5519,3.5519,3.5519,3.5519,3.5519,3.5519,3.5519,3.5519,3.5519,3.5519,3.5519,3.5519,3.5519,3.5519,3.5519,3.5519,3.5519,3.5519,3.5519,3.5519,3.5519,3.5519,3.5519,3.5519,3.5519,3.5938,3.6507,3.6537,3.6956,3.7434,3.7464,3.7464,3.7584,3.8242,3.8422,3.8571,3.926,3.9373,3.9373,3.9373,3.9373,3.9373,3.9373,3.9373,3.9373,3.9373,3.9373,3.9373,3.9373,3.9373,3.9373,3.9373,3.9373,3.9373,3.9373,3.9373,3.9373,3.9373,3.9373,3.9373,3.9373,3.9373,3.9373,3.9373,3.9373,3.9373,3.9373,3.9373,3.9373,3.9373,3.9373,3.9373,3.9373,3.9373,3.9373,3.9373,3.9373,3.9373,1.9513,0.0,0.0,0.0,0.0,0.0,0.0,0.0,0.0,0.0,0.0,0.0,0.0,0.0,0.0,0.0,0.0,0.0,0.0,0.0,0.0,0.0,0.0,0.0,0.0,0.0,0.0,0.0,3.5519,3.5519,3.5519,3.5519,3.5519,3.5519,3.5519,3.5519,3.5519,3.5519,3.5519,3.5519,3.5519,3.5519,3.5519,3.5519,3.5519,3.5519,3.5519,3.5519,3.5519,3.5519,3.5519,3.5519,3.5519,3.5519,3.5519,3.5519,3.5519,3.5579,3.6058,3.6327,3.6626,3.7554,3.7973,3.8212,3.8721,3.8871,3.8901,3.908,3.914,3.917,3.9343,3.9373,3.9373,3.9373,3.9373,3.9373,3.9373,3.9373,3.9373,3.9373,3.9373,3.9373,3.9373,3.9373,3.9373,3.9373,3.9373,3.9373,3.9373,3.9373,3.9373,3.9373,3.9373,3.9373,3.9373,3.9373,3.9373,3.9373,3.9373,3.9373,3.9373,3.9373,3.9373,3.9373,3.9373,3.9373,3.9373,3.9373,3.9373,3.9373,3.9373,3.9373,2.0427,2.0318,0.0,0.0,0.0,0.0,0.0,2.4358,0.0,0.0,0.0,0.0,0.0,0.0,0.0,0.0,0.0,0.0,0.0,0.0,0.0,0.0,0.0,0.0,0.0,3.5519,3.5519,3.5519,3.5519,3.5519,3.5519,3.5519,3.5519,3.5519,3.5519,3.5519,3.5519,3.5519,3.5519,3.5519,3.5519,3.5519,3.5519,3.5519,3.5519,3.5519,3.5519,3.5519,3.5519,3.5519,3.5519,3.5519,3.5519,3.5519,3.5519,3.5519,3.5519,3.5609,3.6267,3.6656,3.7045,3.8063,3.8571,3.8901,3.929,3.9373,3.9373,3.9373,3.9373,3.9373,3.9373,3.9373,3.9373,3.9373,3.9373,3.9373,3.9373,3.9373,3.9373,3.9373,3.9373,3.9373,3.9373,3.9373,3.9373,3.9373,3.9373,3.9373,3.9373,3.9373,3.9373,3.9373,3.9373,3.9373,3.9373,3.9373,3.9373,3.9373,3.9373,3.9373,3.9373,3.9373,3.9373,3.9373,3.9373,3.9373,3.9373,3.9373,3.9373,3.9373,3.9373,3.9373,2.1695,2.1276,2.0778,0.0,0.0,0.0,2.1365,2.2951,0.0,0.0,0.0,0.0,0.0,0.0,0.0,0.0,0.0,0.0,0.0,0.0,0.0,0.0,0.0,0.0,3.5519,3.5519,3.5519,3.5519,3.5519,3.5519,3.5519,3.5519,3.5519,3.5519,3.5519,3.5519,3.5519,3.5519,3.5519,3.5519,3.5519,3.5519,3.5519,3.5519,3.5519,3.5519,3.5519,3.5519,3.5519,3.5519,3.5519,3.5519,3.5519,3.5519,3.5519,3.5519,3.5519,3.5609,3.6327,3.6956,3.7524,3.8272,3.8901,3.9373,3.9373,3.9373,3.9373,3.9373,3.9373,3.9373,3.9373,3.9373,3.9373,3.9373,3.9373,3.9373,3.9373,3.9373,3.9373,3.9373,3.9373,3.9373,3.9373,3.9373,3.9373,3.9373,3.9373,3.9373,3.9373,3.9373,3.9373,3.9373,3.9373,3.9373,3.9373,3.9373,3.9373,3.9373,3.9373,3.9373,3.9373,3.9373,3.9373,3.9373,3.9373,3.9373,3.9373,3.9373,3.9373,3.9373,3.9373,3.9373,2.1695,2.1605,2.1365,2.0838,0.0,0.0,2.0168,2.1216,2.2503,0.0,0.0,0.0,0.0,0.0,0.0,0.0,0.0,0.0,0.0,0.0,0.0,0.0,0.0,0.0,3.5519,3.5519,3.5519,3.5519,3.5519,3.5519,3.5519,3.5519,3.5519,3.5519,3.5519,3.5519,3.5519,3.5519,3.5519,3.5519,3.5519,3.5519,3.5519,3.5519,3.5519,3.5519,3.5519,3.5519,3.5519,3.5519,3.5519,3.5519,3.5519,3.5519,3.5519,3.5519,3.5519,3.5669,3.6836,3.7315,3.7614,3.8811,3.932,3.9373,3.9373,3.9373,3.9373,3.9373,3.9373,3.9373,3.9373,3.9373,3.9373,3.9373,3.9373,3.9373,3.9373,3.9373,3.9373,3.9373,3.9373,3.9373,3.9373,3.9373,3.9373,3.9373,3.9373,3.9373,3.9373,3.9373,3.9373,3.9373,3.9373,3.9373,3.9373,3.9373,3.9373,3.9373,3.9373,3.9373,3.9373,3.9373,3.9373,3.9373,3.9373,3.9373,3.9373,3.9373,3.9373,3.9373,3.9373,3.9373,2.364,2.3161,2.2503,2.1844,0.0,0.0,0.0,2.0756,2.1874,2.2553,0.0,0.0,0.0,0.0,0.0,0.0,0.0,0.0,0.0,0.0,0.0,0.0,0.0,0.0,3.4502,3.4502,3.4502,3.4502,3.4502,3.4651,3.4981,3.4981,3.516,3.5489,3.5519,3.5519,3.5519,3.5519,3.5519,3.5519,3.5519,3.5519,3.5519,3.5519,3.5519,3.5519,3.5519,3.5519,3.5519,3.5519,3.5519,3.5519,3.5519,3.5519,3.5519,3.5519,3.5699,3.6118,3.7075,3.7614,3.8063,3.9044,3.9373,3.9373,3.9373,3.9373,3.9373,3.9373,3.9373,3.9373,3.9373,3.9373,3.9373,3.9373,3.9373,3.9373,3.9373,3.9373,3.9373,3.9373,3.9373,3.9373,3.9373,3.9373,3.9373,3.9373,3.9373,3.9373,3.9373,3.9373,3.9373,3.9373,3.9373,3.9373,3.9373,3.9373,3.9373,3.9373,3.9373,3.9373,3.9373,3.9373,3.9373,3.9373,3.9373,3.9373,3.9373,3.9373,3.9373,3.9373,3.9373,3.9373,0.0,0.0,0.0,0.0,0.0,2.0677,0.0,0.0,0.0,2.2194,0.0,0.0,0.0,0.0,0.0,0.0,0.0,0.0,0.0,0.0,0.0,0.0,0.0,0.0,0.0,3.3305,3.3245,3.3125,3.3245,3.3544,3.4114,3.4384,3.4773,3.528,3.5429,3.5519,3.5519,3.5519,3.5519,3.5519,3.5519,3.5519,3.5519,3.5519,3.5519,3.5519,3.5519,3.5519,3.5519,3.5519,3.5519,3.5519,3.5519,3.5519,3.5519,3.5639,3.6028,3.6596,3.7345,3.7943,3.8512,3.92,3.9373,3.9373,3.9373,3.9373,3.9373,3.9373,3.9373,3.9373,3.9373,3.9373,3.9373,3.9373,3.9373,3.9373,3.9373,3.9373,3.9373,3.9373,3.9373,3.9373,3.9373,3.9373,3.9373,3.9373,3.9373,3.9373,3.9373,3.9493,3.9619,3.9619,3.9738,3.9798,3.9798,3.9798,3.9738,3.9619,3.9619,3.9523,3.9439,3.9493,3.9679,3.9798,3.9798,3.9798,3.9798,3.9798,3.9679,3.9373,3.9373,3.9373,0.0,0.0,0.0,0.0,2.2134,0.0,0.0,0.0,2.0838,2.0897,0.0,0.0,0.0,0.0,0.0,0.0,0.0,0.0,0.0,0.0,0.0,0.0,0.0,0.0,0.0,3.2617,3.2377,3.178,3.2258,3.2647,3.2736,3.3844,3.4533,3.4623,3.519,3.5519,3.5519,3.5519,3.5519,3.5519,3.5519,3.5519,3.5519,3.5519,3.5519,3.5519,3.5519,3.5519,3.5519,3.5519,3.5519,3.5519,3.5519,3.5519,3.5579,3.6148,3.6417,3.6656,3.7853,3.8332,3.8512,3.92,3.9373,3.9373,3.9373,3.9373,3.9373,3.9373,3.9373,3.9373,3.9373,3.9373,3.9373,3.9373,3.9373,3.9373,3.9373,3.9373,3.9373,3.9373,3.9373,3.9373,3.9373,3.9373,3.9373,3.9373,3.9373,3.9373,3.9373,3.9918,4.0277,4.0277,4.0816,4.1145,4.1145,4.1145,4.0905,4.0337,4.0277,4.0038,3.9403,3.9978,4.0576,4.1145,4.1145,4.1145,4.1145,4.1145,4.0546,3.9373,3.9373,3.9373,0.0,0.0,0.0,0.0,0.0,0.0,2.0587,0.0,2.1964,0.0,0.0,0.0,0.0,0.0,0.0,0.0,0.0,0.0,0.0,0.0,0.0,0.0,0.0,0.0,0.0,0.0,0.0,0.0,3.0313,3.0731,3.1839,3.2826,3.3694,3.4474,3.4771,3.51,3.5519,3.5519,3.5519,3.5519,3.5519,3.5519,3.5519,3.5519,3.5519,3.5519,3.5519,3.5519,3.5519,3.5519,3.5519,3.5519,3.5519,3.5519,3.5579,3.6237,3.6716,3.7135,3.8063,3.8661,3.902,3.932,3.9373,3.9373,3.9373,3.9373,3.9373,3.9373,3.9373,3.9373,3.9373,3.9373,3.9373,3.9373,3.9373,3.9373,3.9373,3.9373,3.9373,3.9373,3.9373,3.9373,3.9373,3.9373,3.9373,3.9373,3.9373,3.9373,3.9373,4.0008,4.0397,4.0397,4.0995,4.1422,4.1422,4.1422,4.1265,4.0995,4.0965,4.0846,4.0576,4.0816,4.1085,4.1384,4.1422,4.1422,4.1422,4.1422,4.1085,4.0546,4.0546,4.0546,2.7884,0.0,0.0,0.0,0.0,0.0,0.0,0.0,0.0,0.0,0.0,0.0,0.0,0.0,0.0,0.0,0.0,0.0,0.0,0.0,0.0,0.0,0.0,0.0,0.0,0.0,0.0,0.0,0.0,2.9295,3.0883,3.1929,3.3036,3.4204,3.4414,3.4801,3.5489,3.5519,3.5519,3.5519,3.5519,3.5519,3.5519,3.5519,3.5519,3.5519,3.5519,3.5519,3.5519,3.5519,3.5519,3.5519,3.5519,3.5519,3.5609,3.6447,3.7015,3.7524,3.8392,3.899,3.9373,3.9373,3.9373,3.9373,3.9373,3.9373,3.9373,3.9373,3.9373,3.9373,3.9373,3.9373,3.9373,3.9373,3.9373,3.9373,3.9373,3.9373,3.9373,3.9373,3.9373,3.9373,3.9373,3.9373,3.9373,3.9373,3.9373,3.9499,3.9679,4.0277,4.0726,4.0905,4.1534,4.1923,4.1923,4.1923,4.1833,4.1692,4.1512,4.1474,4.1692,4.1692,4.1743,4.1923,4.1923,4.1923,4.1923,4.1923,4.1923,4.1893,4.1534,4.1422,0.0,0.0,0.0,2.3939,0.0,0.0,0.0,0.0,2.358,0.0,0.0,0.0,0.0,0.0,0.0,0.0,0.0,0.0,0.0,0.0,0.0,0.0,0.0,0.0,0.0,0.0,0.0,0.0,2.7889,0.0,2.9621,3.148,3.2826,3.3514,3.4174,3.4801,3.5489,3.5519,3.5519,3.5519,3.5519,3.5519,3.5519,3.5519,3.5519,3.5519,3.5519,3.5519,3.5519,3.5519,3.5519,3.5519,3.5519,3.5519,3.5669,3.6926,3.7404,3.7584,3.8931,3.9409,3.9373,3.9373,3.9373,3.9373,3.9373,3.9373,3.9373,3.9373,3.9373,3.9373,3.9373,3.9373,3.9373,3.9373,3.9373,3.9373,3.9373,3.9373,3.9373,3.9373,3.9373,3.9373,3.9373,3.9373,3.9373,3.9373,3.9373,3.9649,4.0277,4.0935,4.1632,4.2261,4.288,4.323,4.323,4.323,4.3,4.241,4.1782,4.1692,4.2351,4.2381,4.2611,4.323,4.323,4.323,4.323,4.323,4.323,4.32,4.1953,4.1422,0.0,0.0,2.5944,2.4605,0.0,0.0,0.0,0.0,0.0,0.0,0.0,0.0,0.0,0.0,0.0,0.0,0.0,0.0,0.0,0.0,0.0,0.0,0.0,0.0,0.0,0.0,0.0,0.0,2.6602,0.0,2.9502,3.0582,3.1898,3.3455,3.3724,3.4352,3.5489,3.5519,3.5519,3.5519,3.5519,3.5519,3.5519,3.5519,3.5519,3.5519,3.5519,3.5519,3.5519,3.5519,3.5519,3.5519,3.5519,3.5519,3.5669,3.6926,3.7404,3.7584,3.896,3.9373,3.9373,3.9373,3.9373,3.9373,3.9373,3.9373,3.9373,3.9373,3.9373,3.9373,3.9373,3.9373,3.9373,3.9373,3.9373,3.9373,3.9373,3.9373,3.9373,3.9373,3.9373,3.9559,4.0008,4.0068,4.0068,4.0068,4.0427,4.0786,4.1025,4.1662,4.2141,4.2381,4.294,4.329,4.329,4.329,4.32,4.303,4.2791,4.2761,4.3,4.3,4.312,4.329,4.329,4.329,4.329,4.329,4.329,4.329,4.288,4.2671,2.9295,2.8308,0.0,2.5944,2.5495,0.0,2.3969,0.0,0.0,0.0,0.0,0.0,0.0,0.0,0.0,0.0,0.0,0.0,0.0,0.0,0.0,0.0,0.0,0.0,0.0,0.0,2.4963,2.5824,2.5704,0.0,0.0,0.0,3.1091,3.3095,3.3365,3.4143,3.5489,3.5519,3.5519,3.5519,3.5519,3.5519,3.5519,3.5519,3.5519,3.5519,3.5519,3.5519,3.5519,3.5519,3.5519,3.5519,3.5519,3.5639,3.5968,3.7015,3.7704,3.8242,3.9074,3.9373,3.9373,3.9373,3.9373,3.9373,3.9373,3.9373,3.9373,3.9373,3.9373,3.9373,3.9373,3.9373,3.9373,3.9373,3.9373,3.9373,3.9373,3.9373,3.9373,3.9373,3.9619,3.9888,4.0337,4.0786,4.1025,4.0786,4.1115,4.1512,4.1722,4.2141,4.25,4.2671,4.309,4.329,4.329,4.329,4.329,4.329,4.329,4.329,4.329,4.329,4.329,4.329,4.329,4.329,4.329,4.329,4.329,4.329,4.329,4.329]}]]